[[{"header":{"parameterUnit":"m.s-1","parameterCategory":1,"la1":30.6,"la2":29.2853,"lo1":-89.7004,"lo2":-87.6739,"dy":0.0162,"dx":0.0183,"nx":112,"ny":82,"refTime":"2023-10-02T06:00:00:Z","depth":0,"parameterNumber":2,"parameterNumberName":"U-component_of_WINDS"},"data":[0.0,0.0,0.0,0.0,0.0,0.0,0.0,0.0,0.0,0.0,0.0,0.0,0.0,0.0,0.0,0.0,0.0,0.0,0.0,0.0,0.0,0.0,0.0,0.0,0.0,0.0,0.0,0.0,0.0,0.0,0.0,0.0,0.0,0.0,0.0,0.0,0.0,0.0,0.0,0.0,0.0,0.0,0.0,0.0,0.0,0.0,0.0,0.0,0.0,0.0,0.0,0.0,0.0,0.0,0.0,0.0,0.0,0.0,0.0,0.0,0.0,0.0,0.0,0.0,0.0,0.0,0.0,0.0,0.0,0.0,0.0,0.0,0.0,0.0,0.0,0.0,0.0,0.0,0.0,0.0,0.0,0.0,0.0,0.0,0.0,0.0,0.0,0.0,0.0,0.0,2.5605,2.5583,2.5529,2.5201,2.4455,2.4401,2.4092,2.336,0.0,0.0,0.0,0.0,0.0,0.0,0.0,0.0,0.0,0.0,0.0,0.0,0.0,0.0,0.0,0.0,0.0,0.0,0.0,0.0,0.0,0.0,0.0,0.0,0.0,0.0,0.0,0.0,0.0,0.0,0.0,0.0,0.0,0.0,0.0,0.0,0.0,0.0,0.0,0.0,0.0,0.0,0.0,0.0,0.0,0.0,0.0,0.0,0.0,0.0,0.0,0.0,0.0,0.0,0.0,0.0,0.0,0.0,0.0,0.0,0.0,0.0,0.0,0.0,0.0,0.0,0.0,0.0,0.0,0.0,0.0,0.0,0.0,0.0,0.0,0.0,0.0,0.0,0.0,0.0,0.0,0.0,0.0,0.0,0.0,0.0,0.0,0.0,0.0,0.0,0.0,0.0,0.0,0.0,0.0,0.0,0.0,0.0,0.0,0.0,0.0,0.0,0.0,0.0,2.5581,2.5522,2.5511,2.5453,2.5318,2.5298,2.526,2.5112,0.0,0.0,0.0,0.0,0.0,0.0,0.0,0.0,0.0,0.0,0.0,0.0,0.0,0.0,0.0,0.0,0.0,0.0,0.0,0.0,0.0,0.0,0.0,0.0,0.0,0.0,0.0,0.0,0.0,0.0,0.0,0.0,0.0,0.0,0.0,0.0,0.0,0.0,0.0,0.0,0.0,0.0,0.0,0.0,0.0,0.0,0.0,0.0,0.0,0.0,0.0,0.0,0.0,0.0,0.0,0.0,0.0,0.0,0.0,0.0,0.0,0.0,0.0,0.0,0.0,0.0,0.0,0.0,0.0,0.0,0.0,0.0,0.0,0.0,0.0,0.0,0.0,0.0,0.0,0.0,0.0,0.0,0.0,0.0,0.0,0.0,0.0,0.0,0.0,0.0,0.0,0.0,0.0,0.0,0.0,0.0,0.0,0.0,0.0,0.0,0.0,0.0,0.0,2.5613,2.5586,2.5554,2.5549,2.555,2.5511,2.5511,2.5511,2.5511,2.4745,0.0,0.0,0.0,0.0,0.0,0.0,0.0,0.0,0.0,0.0,0.0,0.0,0.0,0.0,0.0,0.0,0.0,0.0,0.0,0.0,0.0,0.0,0.0,0.0,0.0,0.0,0.0,0.0,0.0,0.0,0.0,0.0,0.0,0.0,0.0,0.0,0.0,0.0,0.0,0.0,0.0,0.0,0.0,0.0,0.0,0.0,0.0,0.0,0.0,0.0,0.0,0.0,0.0,0.0,0.0,0.0,0.0,0.0,0.0,0.0,0.0,0.0,0.0,0.0,0.0,0.0,0.0,0.0,0.0,0.0,0.0,0.0,0.0,0.0,0.0,0.0,0.0,0.0,0.0,0.0,0.0,0.0,0.0,0.0,0.0,0.0,0.0,0.0,0.0,0.0,0.0,0.0,0.0,0.0,0.0,0.0,0.0,0.0,0.0,0.0,0.0,0.0,2.5721,2.559,2.5605,2.5585,2.5556,2.5498,2.549,2.5511,2.5511,2.5511,0.0,0.0,0.0,0.0,0.0,0.0,0.0,0.0,0.0,0.0,0.0,0.0,0.0,0.0,0.0,0.0,0.0,0.0,0.0,0.0,0.0,0.0,0.0,0.0,0.0,0.0,0.0,0.0,0.0,0.0,0.0,0.0,0.0,0.0,0.0,0.0,0.0,0.0,0.0,0.0,0.0,0.0,0.0,0.0,0.0,0.0,0.0,0.0,0.0,0.0,0.0,0.0,0.0,0.0,0.0,0.0,0.0,0.0,0.0,0.0,0.0,0.0,0.0,0.0,0.0,0.0,0.0,0.0,0.0,0.0,0.0,0.0,0.0,0.0,0.0,0.0,0.0,0.0,0.0,0.0,0.0,0.0,0.0,0.0,0.0,0.0,0.0,0.0,0.0,0.0,0.0,0.0,0.0,0.0,0.0,0.0,0.0,0.0,0.0,0.0,0.0,0.0,2.6108,2.5604,2.5599,2.5542,2.5506,2.5506,2.5503,2.5511,2.5511,2.5511,0.0,0.0,0.0,0.0,0.0,0.0,0.0,0.0,0.0,0.0,0.0,0.0,0.0,0.0,0.0,0.0,0.0,0.0,0.0,0.0,0.0,0.0,0.0,0.0,0.0,0.0,0.0,0.0,0.0,0.0,0.0,0.0,0.0,0.0,0.0,0.0,0.0,0.0,0.0,0.0,0.0,0.0,0.0,0.0,0.0,0.0,0.0,0.0,0.0,0.0,0.0,0.0,0.0,0.0,0.0,0.0,0.0,0.0,0.0,0.0,0.0,0.0,0.0,0.0,0.0,0.0,0.0,0.0,0.0,0.0,0.0,0.0,0.0,0.0,0.0,0.0,0.0,0.0,0.0,0.0,0.0,0.0,0.0,0.0,0.0,0.0,0.0,0.0,0.0,0.0,0.0,0.0,0.0,0.0,0.0,0.0,0.0,0.0,0.0,0.0,0.0,0.0,2.7369,2.7168,2.7168,2.715,2.7122,2.7123,2.6618,2.63,2.6262,0.0,0.0,0.0,0.0,0.0,0.0,0.0,0.0,0.0,0.0,0.0,0.0,0.0,0.0,0.0,0.0,0.0,0.0,0.0,0.0,0.0,0.0,0.0,0.0,0.0,0.0,0.0,0.0,0.0,0.0,0.0,0.0,0.0,0.0,0.0,0.0,0.0,0.0,0.0,0.0,0.0,0.0,0.0,0.0,0.0,0.0,0.0,0.0,0.0,0.0,0.0,0.0,0.0,0.0,0.0,0.0,0.0,0.0,0.0,0.0,0.0,0.0,0.0,0.0,0.0,0.0,0.0,0.0,0.0,0.0,0.0,0.0,0.0,0.0,0.0,0.0,0.0,0.0,0.0,0.0,0.0,0.0,0.0,0.0,0.0,0.0,0.0,0.0,0.0,0.0,0.0,0.0,0.0,0.0,0.0,0.0,0.0,0.0,0.0,0.0,0.0,0.0,2.8477,2.8255,2.8081,2.81,2.8087,2.8072,2.8097,2.755,2.7163,2.7121,0.0,0.0,0.0,0.0,0.0,0.0,0.0,0.0,0.0,0.0,0.0,0.0,0.0,0.0,0.0,0.0,0.0,0.0,0.0,0.0,0.0,0.0,0.0,0.0,0.0,0.0,0.0,0.0,0.0,0.0,0.0,0.0,0.0,0.0,0.0,0.0,0.0,0.0,0.0,0.0,0.0,0.0,0.0,0.0,0.0,0.0,0.0,0.0,0.0,0.0,0.0,0.0,0.0,0.0,0.0,0.0,0.0,0.0,0.0,0.0,0.0,0.0,0.0,0.0,0.0,0.0,0.0,0.0,0.0,0.0,0.0,0.0,0.0,0.0,0.0,0.0,0.0,0.0,0.0,0.0,0.0,0.0,0.0,0.0,0.0,0.0,0.0,0.0,0.0,0.0,0.0,0.0,0.0,0.0,0.0,0.0,0.0,0.0,0.0,0.0,0.0,0.0,2.9312,2.8608,2.8049,2.8106,2.8068,2.8049,2.8106,2.8049,2.7999,0.0,0.0,0.0,0.0,0.0,0.0,0.0,0.0,0.0,0.0,0.0,0.0,0.0,0.0,0.0,0.0,0.0,0.0,0.0,0.0,0.0,0.0,0.0,0.0,0.0,0.0,0.0,0.0,0.0,0.0,0.0,0.0,0.0,0.0,0.0,0.0,0.0,0.0,0.0,0.0,0.0,0.0,0.0,0.0,0.0,0.0,0.0,0.0,0.0,0.0,0.0,0.0,0.0,0.0,0.0,0.0,0.0,0.0,0.0,0.0,0.0,0.0,0.0,0.0,0.0,0.0,0.0,0.0,0.0,0.0,0.0,0.0,0.0,0.0,0.0,0.0,0.0,0.0,0.0,0.0,0.0,0.0,0.0,0.0,0.0,0.0,0.0,0.0,0.0,0.0,0.0,0.0,0.0,0.0,0.0,0.0,0.0,0.0,0.0,0.0,0.0,0.0,0.0,3.0275,3.0027,2.9844,2.9863,2.9844,2.9844,2.9863,2.9274,2.8926,2.8925,0.0,0.0,0.0,0.0,0.0,0.0,0.0,0.0,0.0,0.0,0.0,0.0,0.0,0.0,0.0,0.0,0.0,0.0,0.0,0.0,0.0,0.0,0.0,0.0,0.0,0.0,0.0,0.0,0.0,0.0,0.0,0.0,0.0,0.0,0.0,0.0,0.0,0.0,0.0,0.0,0.0,0.0,0.0,0.0,0.0,0.0,0.0,0.0,0.0,0.0,0.0,0.0,0.0,0.0,0.0,0.0,0.0,0.0,0.0,0.0,0.0,0.0,0.0,0.0,0.0,0.0,0.0,0.0,0.0,0.0,0.0,0.0,0.0,0.0,0.0,0.0,0.0,0.0,0.0,0.0,0.0,0.0,0.0,0.0,0.0,0.0,0.0,0.0,0.0,0.0,0.0,0.0,0.0,0.0,0.0,0.0,0.0,0.0,0.0,0.0,0.0,0.0,3.0709,3.0636,3.0598,3.0598,3.0598,3.0598,3.0559,3.0085,2.9767,2.9785,0.0,0.0,0.0,0.0,0.0,0.0,0.0,0.0,0.0,0.0,0.0,0.0,0.0,0.0,0.0,0.0,0.0,0.0,0.0,0.0,0.0,0.0,0.0,0.0,0.0,0.0,0.0,0.0,0.0,0.0,0.0,0.0,0.0,0.0,0.0,0.0,0.0,0.0,0.0,0.0,0.0,0.0,0.0,0.0,0.0,0.0,0.0,0.0,0.0,0.0,0.0,0.0,0.0,0.0,0.0,0.0,0.0,0.0,0.0,0.0,0.0,0.0,0.0,0.0,0.0,0.0,0.0,0.0,0.0,0.0,0.0,0.0,0.0,0.0,0.0,0.0,0.0,0.0,0.0,0.0,0.0,0.0,0.0,0.0,0.0,0.0,0.0,0.0,0.0,0.0,0.0,0.0,0.0,0.0,0.0,0.0,0.0,0.0,0.0,0.0,0.0,0.0,3.0711,3.0636,3.0598,3.0598,3.0598,3.0578,3.052,3.0492,3.05,3.0506,0.0,0.0,0.0,0.0,0.0,0.0,0.0,0.0,0.0,0.0,0.0,0.0,0.0,0.0,0.0,0.0,0.0,0.0,0.0,0.0,0.0,0.0,0.0,0.0,0.0,0.0,0.0,0.0,0.0,0.0,0.0,0.0,0.0,0.0,0.0,0.0,0.0,0.0,0.0,0.0,0.0,0.0,0.0,0.0,0.0,0.0,0.0,0.0,0.0,0.0,0.0,0.0,0.0,0.0,0.0,0.0,0.0,0.0,0.0,0.0,2.4161,2.3005,0.0,0.0,0.0,0.0,0.0,0.0,0.0,0.0,0.0,0.0,0.0,0.0,0.0,0.0,0.0,0.0,0.0,0.0,0.0,0.0,0.0,0.0,0.0,0.0,0.0,0.0,0.0,0.0,0.0,0.0,0.0,0.0,0.0,0.0,0.0,0.0,0.0,0.0,0.0,0.0,3.0711,3.0636,3.0598,3.0598,3.0598,3.0578,3.052,3.0499,3.0491,3.0506,3.0287,0.0,0.0,0.0,0.0,0.0,0.0,0.0,0.0,0.0,0.0,0.0,0.0,0.0,0.0,0.0,0.0,0.0,0.0,0.0,0.0,0.0,0.0,0.0,0.0,0.0,0.0,0.0,0.0,0.0,0.0,0.0,0.0,0.0,0.0,0.0,0.0,0.0,0.0,0.0,0.0,0.0,0.0,0.0,0.0,0.0,0.0,0.0,0.0,0.0,0.0,0.0,0.0,0.0,0.0,0.0,0.0,0.0,0.0,0.0,2.6184,2.5437,0.0,0.0,0.0,0.0,0.0,0.0,0.0,0.0,0.0,0.0,0.0,0.0,0.0,0.0,0.0,0.0,0.0,0.0,0.0,0.0,0.0,0.0,0.0,0.0,0.0,0.0,0.0,0.0,0.0,0.0,0.0,0.0,0.0,0.0,0.0,0.0,0.0,0.0,0.0,0.0,3.071,3.0643,3.0588,3.055,3.055,3.052,3.0462,3.0452,3.0447,3.0448,3.0417,0.0,0.0,0.0,0.0,0.0,0.0,0.0,0.0,0.0,0.0,0.0,0.0,0.0,0.0,0.0,0.0,0.0,0.0,0.0,0.0,0.0,0.0,0.0,0.0,0.0,0.0,0.0,0.0,0.0,0.0,0.0,0.0,0.0,0.0,0.0,0.0,0.0,0.0,0.0,0.0,0.0,0.0,0.0,0.0,0.0,0.0,0.0,0.0,0.0,0.0,0.0,0.0,0.0,2.8674,2.882,2.8975,2.8898,2.8878,2.8888,2.896,2.8609,2.7992,2.7992,0.0,0.0,0.0,0.0,0.0,0.0,0.0,0.0,0.0,0.0,0.0,0.0,0.0,0.0,0.0,0.0,0.0,0.0,0.0,0.0,0.0,0.0,2.9516,2.9569,3.0092,3.0402,2.9741,0.0,0.0,0.0,0.0,0.0,0.0,0.0,0.0,0.0,0.0,0.0,3.0686,3.0626,3.0559,3.051,3.0511,3.0463,3.0405,3.0395,3.0393,3.041,3.0398,3.0379,0.0,0.0,0.0,0.0,0.0,0.0,0.0,0.0,0.0,0.0,0.0,0.0,0.0,0.0,0.0,0.0,0.0,0.0,0.0,0.0,0.0,0.0,0.0,0.0,0.0,0.0,0.0,0.0,0.0,0.0,0.0,0.0,2.5699,2.5694,0.0,0.0,0.0,0.0,0.0,0.0,0.0,0.0,0.0,0.0,0.0,0.0,0.0,2.8136,2.8194,2.888,2.9588,3.0278,3.0975,3.17,3.2435,3.2435,3.2435,3.2435,3.2435,0.0,2.8009,2.8009,0.0,0.0,0.0,0.0,0.0,0.0,0.0,0.0,0.0,0.0,0.0,0.0,0.0,0.0,0.0,0.0,0.0,0.0,0.0,0.0,0.0,0.0,3.0346,3.0346,3.0434,3.0492,3.0443,3.0564,3.0689,3.0696,3.0696,3.071,0.0,0.0,0.0,0.0,0.0,0.0,3.0619,3.0554,3.052,3.0491,3.05,3.0471,3.0413,3.0398,3.0402,3.041,3.0398,3.0321,3.0148,3.0129,0.0,0.0,0.0,0.0,0.0,0.0,0.0,0.0,0.0,0.0,0.0,0.0,0.0,0.0,0.0,0.0,0.0,0.0,0.0,0.0,0.0,0.0,0.0,0.0,0.0,0.0,0.0,0.0,0.0,2.6019,2.6064,2.7049,2.6665,2.6532,0.0,0.0,0.0,0.0,0.0,0.0,0.0,0.0,0.0,2.9622,2.9616,3.0054,3.0997,3.1328,3.1661,3.1999,3.2357,3.2734,3.3102,3.3102,3.3102,3.3102,3.3102,3.226,3.0877,3.0877,3.0577,3.0153,0.0,0.0,0.0,0.0,2.9419,2.939,2.9359,2.9333,2.9308,2.9308,0.0,0.0,0.0,0.0,0.0,0.0,0.0,3.0741,3.1077,3.154,3.1907,3.1918,3.1918,3.1899,3.1929,3.1971,3.1726,3.0826,3.0639,3.0661,3.0722,3.0732,0.0,0.0,0.0,3.1355,3.1329,3.168,3.1907,3.1915,3.1474,3.1165,3.1122,3.0683,3.0398,3.0398,3.0398,3.0302,3.011,3.0102,3.0007,0.0,0.0,0.0,0.0,0.0,0.0,0.0,0.0,0.0,0.0,0.0,0.0,0.0,0.0,0.0,0.0,0.0,0.0,0.0,0.0,0.0,0.0,0.0,0.0,0.0,0.0,0.0,0.0,2.6767,2.6843,2.8149,2.7675,2.7514,0.0,0.0,0.0,0.0,0.0,0.0,2.9588,2.9597,3.0147,3.1336,3.1323,3.1895,3.3152,3.3359,3.3432,3.3437,3.3862,3.4075,3.4075,3.4287,3.4414,3.4414,3.4414,3.4414,3.4326,3.3456,3.272,3.213,3.2143,3.1753,3.1191,3.113,3.1072,3.1,3.0958,3.0939,3.0962,3.0962,3.1021,3.1068,3.1126,0.0,0.0,0.0,0.0,3.2039,3.2008,3.249,3.2972,3.3003,3.3003,3.3003,3.2995,3.2995,3.264,3.1458,3.1204,3.1239,3.1303,3.1306,0.0,3.1313,3.1815,3.2207,3.2169,3.2659,3.3003,3.2998,3.2405,3.2,3.2016,3.121,3.0717,3.0717,3.0525,3.0302,3.011,3.0072,2.9932,2.9688,0.0,0.0,0.0,0.0,0.0,0.0,0.0,0.0,0.0,0.0,0.0,0.0,0.0,0.0,0.0,0.0,0.0,0.0,0.0,0.0,0.0,0.0,0.0,0.0,0.0,0.0,0.0,0.0,0.0,2.8288,2.8252,0.0,0.0,0.0,0.0,3.0706,3.1485,3.2265,3.3105,3.3144,3.3145,3.3177,3.3169,3.316,3.3111,3.392,3.4328,3.4348,3.5941,3.6714,3.6733,3.7568,3.7936,3.7936,3.7936,3.7936,3.7684,3.4453,3.3059,3.3021,3.3021,3.2923,3.2781,3.2765,3.261,3.2392,3.2411,3.2444,3.2485,3.2485,3.2666,3.2863,3.2863,3.2868,0.0,0.0,3.2902,3.2921,3.2865,3.2872,3.2923,3.2979,3.2998,3.301,3.2995,3.2995,3.2976,3.2899,3.2871,3.2902,3.2974,0.0,3.2984,3.2983,3.2998,3.3017,3.2956,3.2983,3.2998,3.2998,3.2904,3.2833,3.2837,3.2112,3.1626,3.1626,3.0864,3.0302,3.011,2.9978,2.9895,2.9895,2.9504,0.0,0.0,0.0,0.0,0.0,0.0,0.0,0.0,0.0,0.0,0.0,0.0,0.0,0.0,0.0,0.0,0.0,0.0,0.0,0.0,0.0,0.0,0.0,0.0,0.0,0.0,0.0,0.0,3.0548,3.0281,0.0,3.1485,3.1858,3.217,3.2497,3.277,3.3063,3.3378,3.3395,3.3628,3.4112,3.4599,3.5085,3.5592,3.6393,3.6795,3.6853,3.7452,3.773,3.7757,3.8066,3.8201,3.8201,3.8194,3.8206,3.8098,3.6742,3.588,3.5366,3.4796,3.4462,3.4249,3.4253,3.4165,3.4055,3.4037,3.4074,3.3978,3.3428,3.3391,3.3461,3.2905,3.282,3.2935,3.2935,3.3339,3.3782,3.375,3.4141,3.4584,3.4597,3.4616,3.4597,3.461,3.461,3.461,3.461,3.3742,3.3014,3.3037,3.3037,3.3045,3.3041,3.348,3.3795,3.3769,3.4263,3.4616,3.4616,3.409,3.3749,3.3743,3.2961,3.225,3.1723,3.1415,3.0864,3.0002,2.9917,2.9782,2.952,2.937,2.9323,0.0,0.0,0.0,0.0,0.0,0.0,0.0,0.0,0.0,0.0,0.0,0.0,0.0,0.0,0.0,0.0,0.0,0.0,0.0,0.0,0.0,0.0,0.0,0.0,0.0,2.9786,3.0216,3.1892,3.1899,3.2172,3.33,3.3398,3.3515,3.3827,3.3844,3.4098,3.4686,3.4671,3.5012,3.581,3.6277,3.6779,3.7372,3.7868,3.8136,3.8199,3.8508,3.8632,3.8658,3.8948,3.9083,3.9083,3.9076,3.9076,3.9038,3.862,3.808,3.7448,3.6481,3.5971,3.5742,3.5723,3.5646,3.5564,3.5665,3.5704,3.5628,3.5207,3.5171,3.5132,3.4255,3.4079,3.4122,3.3853,3.4199,3.4641,3.4641,3.5064,3.5493,3.5493,3.5493,3.5493,3.5493,3.5493,3.5493,3.5493,3.4591,3.3826,3.3826,3.3826,3.3839,3.3832,3.4308,3.4629,3.4642,3.5136,3.5493,3.5493,3.4979,3.4653,3.4653,3.3838,3.3108,3.2583,3.2204,3.1638,3.0845,3.0494,3.0137,2.9802,2.9455,2.9255,2.9245,0.0,0.0,0.0,0.0,0.0,0.0,0.0,0.0,0.0,0.0,0.0,0.0,0.0,0.0,0.0,0.0,0.0,0.0,0.0,0.0,0.0,0.0,0.0,3.1055,3.1621,3.2148,3.2185,3.2926,3.3456,3.3515,3.3515,3.3886,3.4764,3.4822,3.5564,3.724,3.722,3.7488,3.8266,3.8186,3.8131,3.8138,3.8157,3.8215,3.8295,3.9127,3.9533,3.9584,4.0442,4.0829,4.0829,4.0848,4.0868,4.081,3.9959,3.9469,3.9157,3.7962,3.7375,3.7192,3.7125,3.6958,3.682,3.7168,3.7275,3.7375,3.7827,3.7973,3.7834,3.6993,3.6743,3.6584,3.5815,3.5584,3.5584,3.5584,3.5584,3.5584,3.5584,3.5584,3.5584,3.5584,3.5584,3.5584,3.5532,3.5545,3.5532,3.5493,3.5493,3.5501,3.5502,3.5515,0.0,3.5502,3.5515,3.5493,3.5493,3.5493,3.5493,3.5493,3.473,3.4236,3.4183,3.3211,3.2613,3.2569,3.1653,3.1022,3.0835,2.981,2.9222,2.9142,0.0,0.0,0.0,0.0,0.0,0.0,0.0,0.0,0.0,0.0,0.0,0.0,0.0,0.0,0.0,0.0,0.0,0.0,0.0,0.0,0.0,3.1953,3.2012,3.1797,3.25,3.328,3.3905,3.4198,3.4842,3.6111,3.6228,3.6599,3.7458,3.7536,3.7682,3.8073,3.8052,3.8082,3.8147,3.874,3.9026,3.8965,3.9601,3.9951,4.0018,4.0269,4.0398,4.0462,4.1293,4.1661,4.1699,4.2292,4.2549,4.2516,4.2133,4.147,4.054,3.8563,3.7637,3.7393,3.7187,3.6953,3.6738,3.6827,3.6958,3.7103,3.7232,3.7509,3.774,3.7491,3.7533,3.7603,3.7373,3.7315,3.7315,3.7315,3.7315,3.7315,3.7315,3.7315,3.7315,3.7315,3.7315,3.7142,3.6488,3.6372,3.618,3.5603,3.5493,3.5507,3.5501,3.5507,3.5507,3.5501,3.5507,3.5493,3.5493,3.5493,3.5493,3.5493,3.5282,3.4807,3.403,3.3698,3.3131,3.2194,3.1957,3.1671,3.1381,3.1032,3.0563,0.0,0.0,0.0,0.0,0.0,0.0,0.0,0.0,0.0,0.0,0.0,0.0,0.0,0.0,0.0,0.0,0.0,0.0,0.0,0.0,0.0,0.0,3.2714,3.3319,3.3671,3.3866,3.4276,3.5135,3.5564,3.6325,3.7711,3.7848,3.8043,3.8553,3.8593,3.869,3.8928,3.8896,3.8965,3.9185,3.9625,3.986,3.9837,4.0703,4.1157,4.1214,4.1581,4.1768,4.1821,4.2284,4.2497,4.2535,4.3004,4.3138,4.3022,4.2923,4.2393,4.1559,0.0,0.0,0.0,0.0,3.7835,3.7716,3.7846,3.7935,3.8066,3.8139,3.8419,3.8685,3.8322,3.8364,3.8469,3.8104,3.8007,3.8007,3.8007,3.8007,3.8007,3.8007,3.8007,3.8007,3.8007,3.8007,3.7853,3.7334,3.7238,0.0,3.6642,3.5968,3.5507,3.5501,3.5488,3.5507,3.5501,3.5488,3.5493,3.5493,3.5493,3.5493,3.5493,3.5493,0.0,0.0,0.0,3.3898,3.2723,3.2515,0.0,0.0,0.0,3.1262,3.0748,3.0807,0.0,0.0,2.982,2.9898,0.0,0.0,0.0,0.0,0.0,0.0,0.0,0.0,0.0,0.0,0.0,0.0,0.0,0.0,0.0,0.0,3.3768,3.5154,3.6013,3.5564,3.5428,3.6208,3.6989,3.7789,3.8648,3.8723,3.8762,3.886,3.8853,3.9126,3.9786,3.971,0.0,0.0,0.0,4.0677,4.0727,4.1609,4.2048,4.2039,4.2811,4.3196,4.3196,4.3293,4.3331,4.3331,4.3447,4.3333,4.3082,4.3082,4.281,4.2314,4.1415,4.0415,3.9517,3.9444,3.9389,3.9407,3.9657,0.0,0.0,3.9857,4.0095,4.0139,3.9261,3.9176,3.9211,3.8458,3.8247,3.8247,3.8277,3.8277,3.8277,3.8277,3.8219,3.8142,3.8142,3.8065,3.7969,3.7873,3.7853,3.7815,3.7738,3.6642,3.5751,3.5643,3.5636,3.5597,3.5522,3.5501,3.5493,3.5493,3.5493,0.0,3.5493,3.5493,3.5474,3.5455,3.5229,3.466,3.3713,3.3241,3.2723,3.2155,3.1883,3.1674,3.1546,3.155,3.1547,3.1528,3.083,3.0904,0.0,0.0,0.0,0.0,0.0,0.0,0.0,0.0,0.0,0.0,0.0,0.0,0.0,0.0,0.0,3.4078,3.5073,3.6052,3.6931,3.7516,3.7906,3.8082,3.8258,3.8668,3.9488,3.9516,3.9783,4.0485,4.0434,4.0412,4.0505,4.0471,4.0494,4.0549,4.1197,4.1546,4.1566,4.2428,4.2868,4.2876,4.305,0.0,4.3216,4.3871,4.416,4.4199,4.4916,4.5068,4.4805,4.4764,4.4068,4.2975,4.227,4.1757,4.1376,4.1376,4.125,4.1107,4.1165,4.1278,4.1342,4.0716,4.0703,4.0772,3.988,3.9675,0.0,3.9755,3.9772,3.9808,3.9977,4.0008,4.0008,4.0008,3.9508,3.9046,3.9046,3.8488,3.7796,3.7084,3.6949,3.6757,3.6103,3.6834,3.7276,3.6565,3.6469,3.6238,3.5584,3.5507,3.5493,3.5493,3.5493,3.5493,3.5493,3.5493,3.5416,3.5262,3.4749,3.432,3.4018,3.3753,3.358,3.3505,3.3405,3.3048,3.2383,3.2363,3.2379,3.236,3.1579,3.1297,0.0,0.0,0.0,0.0,0.0,0.0,0.0,0.0,0.0,0.0,0.0,3.2137,3.258,0.0,3.4304,3.5207,3.6069,3.7081,3.8326,3.8872,3.9154,3.9195,3.9195,3.952,4.0316,4.0368,4.0507,4.0859,4.0837,4.0761,4.0706,4.1081,4.1247,4.1143,4.2008,4.245,4.245,4.3278,4.3698,4.3715,4.4138,4.4366,4.4421,4.4826,4.493,4.4804,4.5265,4.5222,4.4849,4.4676,4.4213,4.3586,4.3268,4.2585,4.1764,4.1764,4.1669,4.159,4.159,4.1659,4.1689,4.1278,4.1316,4.1424,4.0971,4.1044,4.1279,4.1399,4.1226,4.1008,4.1127,4.0835,4.0489,4.0489,4.0181,3.9892,3.9892,3.9238,3.8527,3.8084,3.7642,3.7353,3.7392,3.8104,3.8065,3.6372,3.6449,3.6565,3.6161,3.6488,3.6584,3.6161,3.6103,3.593,3.5545,3.5397,3.5262,3.507,3.4632,3.4365,3.4289,3.3998,3.3865,3.3907,3.3825,3.3597,3.3195,3.3195,3.3195,3.3176,3.2802,3.2629,0.0,0.0,0.0,0.0,0.0,0.0,0.0,3.1067,3.139,3.1988,3.226,3.2615,3.3371,3.438,3.5332,3.6059,3.707,3.8213,3.9481,3.9805,3.9922,3.9984,3.9993,4.0248,4.0896,4.096,4.0902,4.0781,4.0761,4.0784,4.0907,4.1525,4.1933,4.2047,4.2893,4.3335,4.3335,4.4143,4.4547,4.4566,4.5259,4.5586,4.5586,4.555,4.54,4.5201,4.5096,4.48,4.4374,4.4091,4.4005,4.4005,4.4005,4.3206,4.2073,4.2073,4.2073,4.2073,4.2073,4.2073,4.2036,4.1869,4.195,4.2042,4.1892,4.2146,4.2512,4.2616,4.2259,4.1908,4.203,4.1527,4.1008,4.1008,4.0873,4.0739,4.0739,4.0104,3.9488,3.9315,3.8719,3.8411,3.895,3.9046,3.8411,3.6526,3.6796,3.7142,3.6969,3.7565,3.7738,3.7046,3.6944,3.6598,3.5757,3.5339,3.5033,3.4837,3.4572,3.442,3.4383,3.4054,3.3862,3.3862,3.3825,3.3807,3.3807,3.3807,3.3807,3.3807,3.3807,3.3825,3.0857,3.0878,3.0859,3.0753,3.1343,3.1913,0.0,3.24,3.2982,3.289,3.3538,3.4137,3.4178,3.5628,3.6839,3.688,3.8312,3.9461,3.9516,4.0178,4.0673,4.0682,4.0682,4.0721,4.0809,4.0759,4.073,4.0718,4.0602,4.0862,4.1655,4.1755,4.2159,4.2931,4.3739,4.4162,4.4162,4.5009,4.5451,4.5451,4.5547,4.5586,4.5586,4.5342,4.5222,4.5161,4.4701,4.4438,4.4374,4.4091,4.4005,4.4005,4.4005,4.3893,4.3726,4.3726,4.3726,4.3726,4.3726,4.3726,4.3615,4.289,4.2679,4.2579,4.1853,4.1688,4.181,4.2224,4.2306,4.2341,4.2827,4.2874,4.2816,4.2816,4.222,4.1662,4.1662,4.0969,4.0142,3.9431,3.9219,3.8931,3.8257,3.8142,3.8315,3.8796,3.895,3.8719,3.7945,3.793,3.7969,3.7858,3.7853,3.743,3.6386,3.5397,3.4757,3.4562,3.4344,3.4154,3.3962,3.3862,3.3807,3.3807,3.3807,3.3807,3.3807,3.3807,3.3807,3.3807,3.3807,3.3807,3.0833,3.1178,3.1525,3.1468,3.2096,3.2701,3.257,3.283,3.3227,3.3624,3.4013,3.4599,3.5626,3.6455,3.7316,3.8296,3.9088,3.973,4.0148,4.0505,4.0703,4.063,4.063,4.0655,4.0726,4.073,4.0668,4.0588,4.0534,4.0662,4.1027,4.1527,4.197,4.2335,4.3162,4.3605,4.3605,4.3951,4.4143,4.4143,4.398,4.3924,4.3905,4.3668,4.3494,4.3331,4.294,4.2762,4.2762,4.2653,4.2593,4.2593,4.2593,4.2593,4.2723,4.3652,4.4005,4.4005,4.4005,4.4005,4.3949,4.3615,4.3503,4.3448,4.3095,4.3114,4.3278,4.3476,4.3277,4.3042,4.3281,4.31,4.2871,4.2871,4.2712,4.2566,4.2566,4.1873,4.1162,4.0816,4.0354,4.0027,4.02,4.0169,4.0457,4.137,4.0254,3.9176,3.8792,3.9176,3.9227,3.8597,3.8101,3.7525,3.6752,3.6274,3.5913,3.5676,3.5551,3.5443,3.5375,3.5274,3.5256,3.5256,3.5256,3.5256,3.5256,3.5256,3.5256,3.5256,3.5256,3.5256,3.1169,3.1746,3.2351,3.2351,3.2933,3.3508,3.3371,3.3544,3.3878,3.4443,3.4564,3.4969,3.6272,3.6725,3.7293,3.8518,3.915,3.9682,4.023,4.0507,4.0602,4.0504,4.0489,4.0534,4.0629,4.0642,4.0602,4.0504,4.0489,4.0585,4.0854,4.147,4.1912,4.2162,4.2777,4.3104,4.3104,4.3104,4.3104,4.3104,4.2833,4.2699,4.2679,4.2424,4.214,4.1873,4.1688,4.159,4.159,4.159,4.159,4.159,4.159,4.159,4.1739,4.2897,4.3485,4.3689,4.3912,4.4005,4.4005,4.4005,4.4005,4.4005,4.4005,4.4121,4.4308,4.4354,4.4062,4.3725,4.3793,4.3502,4.3219,4.324,4.3385,4.3465,4.3254,4.268,4.2086,4.1646,4.1033,4.0803,4.1417,4.1474,4.1778,4.2713,4.1267,4.0053,3.9912,4.0132,4.0001,3.9216,3.8333,3.7649,3.724,3.6934,3.6682,3.6491,3.6408,3.6371,3.6371,3.6334,3.6316,3.6316,3.6316,3.6316,3.6316,3.6316,3.6316,3.6316,3.6316,3.6426,3.2061,3.2645,3.3238,3.3178,3.3768,3.4359,3.4292,3.4908,3.5504,3.5476,3.5468,3.5488,3.5526,3.6291,3.6861,3.6799,3.826,3.938,3.9345,4.0004,4.0504,4.0489,4.0489,4.0504,4.0504,4.0504,4.0504,4.0489,4.0489,4.0873,4.172,4.1797,4.22,4.3028,4.3085,4.3104,4.3104,4.3104,4.3104,4.3104,4.2833,4.2699,4.2679,4.2219,4.1873,4.1619,4.159,4.159,4.159,4.159,4.159,4.159,4.159,4.159,4.1609,4.1661,4.2173,4.2958,4.3726,4.4005,4.4005,4.4005,4.4005,4.4005,4.4005,4.4005,4.4061,4.4257,4.4277,4.4337,4.4535,4.4549,4.4575,4.4625,4.46,4.4348,4.3653,4.3359,4.278,4.1236,4.0915,4.0873,4.0844,4.0843,4.1142,4.2091,4.2163,4.1911,4.139,4.045,3.9781,3.9695,3.8709,3.806,3.7977,3.6995,3.6431,3.6401,3.6346,3.631,3.631,3.631,3.631,3.631,3.631,3.631,3.631,3.631,3.631,3.631,3.631,3.6705,3.2908,3.3527,3.4127,3.3959,3.4569,3.5179,3.5111,3.5323,3.5522,3.5488,3.5493,3.5661,3.6199,3.6548,3.6941,3.7483,3.8036,3.8609,3.9234,3.9492,3.9858,4.0431,4.0489,4.0489,4.0489,4.0489,4.0489,4.0489,4.0489,4.0623,4.0912,4.0931,4.1066,4.1373,4.1373,4.1373,4.1373,4.1373,4.1306,4.1166,4.0775,4.0486,4.0315,4.0154,4.003,3.9937,3.9937,3.9937,3.9937,3.9937,3.9937,3.9937,3.9937,3.9937,4.0011,4.0578,4.096,4.1417,4.2748,4.3187,4.3293,4.3825,4.4005,4.4005,4.4005,4.4005,4.3992,4.4027,4.3658,4.323,4.326,4.2969,4.2685,4.2712,4.2843,4.2875,4.2616,4.2535,4.2346,4.1798,4.1704,4.1704,4.168,4.1665,4.1589,4.1309,4.1798,4.1944,4.1159,4.0715,4.0215,3.9507,3.9108,3.8804,3.8545,3.8183,3.7973,3.7937,3.79,3.79,3.79,3.79,3.79,3.79,3.79,3.79,3.79,3.79,3.79,3.79,3.79,3.8028,3.378,3.4376,3.4971,3.4795,3.5168,3.5565,3.5526,3.5493,3.5411,3.5103,3.5045,3.5103,3.5295,3.5603,3.5988,3.6546,3.7108,3.7689,3.83,3.8862,3.9419,3.9973,4.0315,4.0489,4.0489,4.0489,4.0489,4.0489,4.0489,4.0489,4.0489,4.0489,4.0489,4.0489,4.0489,4.0473,4.0389,4.0389,4.0232,3.996,3.9632,3.9376,3.9101,3.9101,3.9101,3.9101,3.9073,3.9045,3.9045,3.9045,3.9017,3.9017,3.9045,3.9027,3.9082,3.9677,3.9872,4.0086,4.1768,4.2347,4.2421,4.2928,4.3076,4.3076,4.3076,4.3076,4.3058,4.2945,4.2543,4.2155,4.2073,4.1773,4.1508,4.1537,4.1614,4.1659,4.1405,4.133,4.1229,4.0929,4.0873,4.0967,4.1266,4.1565,4.1608,4.1035,4.1446,4.1491,4.0465,4.0458,4.0169,3.9221,3.9394,3.935,3.8803,3.8773,3.8744,3.8707,3.8707,3.8707,3.8707,3.8707,3.8707,3.8707,3.8707,3.8707,3.8707,3.8707,3.8707,3.8707,3.8707,3.8707,3.4652,3.5166,3.5679,3.56,3.5546,3.5488,3.5449,3.543,3.5199,3.4314,3.4122,3.3872,3.3045,3.3583,3.4122,3.4122,3.5507,3.6575,3.6622,3.8131,3.9223,3.9192,3.9973,4.0489,4.0489,4.0489,4.0489,4.0489,4.0489,4.0489,4.0489,4.0489,4.0489,4.0473,4.0473,4.0372,4.0158,4.0158,3.992,3.9502,3.9477,3.935,3.9101,3.9101,3.9101,3.9073,3.9091,3.9053,3.9053,3.9032,3.9021,3.9021,3.9024,3.9005,3.9016,3.9008,3.8999,3.9268,4.0896,4.146,4.144,4.1422,4.1403,4.1403,4.1403,4.1403,4.1385,4.1243,4.1162,4.1117,4.1048,4.1015,4.0983,4.1061,4.1029,4.0781,4.0081,3.9871,3.9606,3.8854,3.8707,3.8964,3.9722,4.0525,4.1071,4.1077,4.1052,4.0657,3.9488,3.9785,3.9771,3.8891,3.9497,3.9592,3.8775,3.8707,3.8707,3.8707,3.8707,3.8707,3.8707,3.8707,3.8707,3.8707,3.8707,3.8707,3.8707,3.8707,3.8707,3.8707,3.8707,3.8707,3.5204,3.5469,3.5615,3.554,3.5515,3.5334,3.468,3.4526,3.4276,3.341,3.3237,3.316,3.2949,3.3077,3.3237,3.3237,3.4059,3.4932,3.5633,3.7137,3.8438,3.9119,3.9961,4.0495,4.0489,4.0489,4.0508,4.0499,4.0499,4.0499,4.0499,4.0499,4.0394,4.0139,4.0177,4.0062,3.9775,3.959,3.9483,3.935,3.9156,3.9036,3.895,3.895,3.895,3.8987,3.9568,3.9826,3.9863,4.0461,4.0695,4.0681,4.0711,4.0688,4.0682,4.0691,4.069,4.0737,4.1137,4.0929,4.0548,4.1182,4.1397,4.1397,4.1397,4.1397,4.1379,4.1219,4.0769,4.0276,4.0221,3.9745,3.9313,3.9344,3.9313,3.9258,3.9068,3.9032,3.8946,3.8744,3.8707,3.8781,3.8951,3.9177,3.9337,3.9338,3.9338,3.9467,3.979,3.9884,3.9619,3.8798,3.892,3.8927,3.8707,3.8707,3.8707,3.8707,3.8707,3.8707,3.8707,3.8707,3.8707,3.8707,3.8707,3.8707,3.8707,3.8707,3.8707,3.8707,3.8707,3.8707,3.6016,3.5905,3.5681,3.5984,3.5509,3.4795,3.4282,3.3878,3.3397,3.2545,3.234,3.2225,3.1872,3.2128,3.2353,3.2321,3.3292,3.4223,3.4726,3.6224,3.76,3.8476,3.9372,4.006,4.0406,4.0476,4.0427,4.0288,4.0432,4.0485,4.0449,4.0342,4.0196,4.0022,3.9922,3.975,3.947,3.9227,3.911,3.9129,3.8979,3.891,3.891,3.9261,3.9427,3.9464,4.0265,4.0566,4.0622,4.1051,4.123,4.1219,4.1206,4.1218,4.12,4.12,4.1212,4.1199,4.1162,4.0873,4.0616,4.1114,4.1268,4.1268,4.1268,4.1268,4.1249,4.1194,4.0818,4.0462,4.0441,4.0079,3.9748,3.9748,3.9735,3.9662,3.9294,3.9239,3.9116,3.8781,3.8707,3.8707,3.8707,3.8707,3.8707,3.8707,3.8707,3.8903,3.9357,3.9712,3.9601,3.8787,3.9017,3.9068,3.8726,3.8707,3.8707,3.8707,3.8707,3.8707,3.8707,3.8707,3.8707,3.8707,3.905,3.9228,3.9228,3.9571,3.9749,3.9749,3.9749,3.9749,3.6552,3.6192,3.5747,3.6426,3.5368,3.4147,3.3972,3.3319,3.2493,3.1686,3.1462,3.1219,3.0533,3.1013,3.1513,3.145,3.2743,3.3758,3.3819,3.5324,3.676,3.7685,3.8629,3.9525,4.0319,4.0432,4.0325,4.0022,4.0214,4.0342,4.0289,4.0061,3.9922,3.9882,3.9622,3.9396,3.9219,3.9007,3.8881,3.8881,3.8881,3.8881,3.8899,3.9711,4.0062,4.0117,4.0964,4.1337,4.1337,4.142,4.142,4.1415,4.1405,4.1429,4.1414,4.14,4.1426,4.1426,4.1426,4.1426,4.1369,4.1153,4.1101,4.1101,4.1101,4.1101,4.1101,4.1101,4.1101,4.1101,4.1101,4.1093,4.1103,4.1089,4.1093,4.0928,4.0212,3.9978,3.9703,3.8982,3.8762,3.8707,3.8707,3.8707,3.8707,3.8707,3.8707,3.8707,3.8707,3.9301,3.9479,3.8762,3.932,3.9461,3.8762,3.8707,3.8707,3.8707,3.8707,3.8707,3.8707,3.8707,3.8707,3.8707,3.9375,3.9737,3.973,4.0449,4.0775,4.0775,4.0775,4.0775,3.5464,3.5545,3.5441,3.5547,3.4827,3.3944,3.3201,3.2396,3.1584,3.0707,3.0528,3.0508,3.0417,3.0482,3.0535,3.0535,3.1333,3.2173,3.2837,3.4385,3.6026,3.7608,3.8582,3.9461,4.0321,4.0196,4.0042,3.9922,3.9754,3.9664,3.9664,3.9618,3.9481,3.9264,3.9008,3.8833,3.8792,3.875,3.8719,3.8719,3.8719,3.8719,3.8756,3.9564,3.9945,4.0037,4.1475,4.2117,4.2173,4.28,4.3075,4.3091,4.3075,4.3091,4.3073,4.3094,4.3078,4.3078,4.3078,4.3078,4.2842,4.1546,4.111,4.111,4.111,4.111,4.111,4.111,4.111,4.111,4.111,4.1086,4.1097,4.111,4.1104,4.1042,4.0918,4.0368,3.985,3.9718,3.9173,3.8707,3.8707,3.8707,3.8707,3.8707,3.8707,3.8707,3.8707,3.8817,3.8836,3.8707,3.8817,3.8836,3.8707,3.8707,3.8707,3.8707,3.8707,3.8707,3.8707,3.8707,3.8707,3.8707,3.8836,3.8912,3.8912,3.9055,3.9127,3.9127,3.9127,3.9127,3.5734,3.5724,3.535,3.532,3.4342,3.3207,3.2316,3.1473,3.0759,3.0382,3.0267,3.0273,3.033,3.0323,3.0292,3.0292,3.092,3.1565,3.1996,3.3427,3.4916,3.6296,3.7486,3.8537,3.9376,3.9634,3.9664,3.9513,3.9345,3.9345,3.9494,3.9364,3.9181,3.8894,3.8762,3.8707,3.8707,3.8707,3.8707,3.8707,3.8707,3.8927,3.935,4.0157,4.0744,4.1222,4.2396,4.291,4.2947,4.3332,4.3497,4.3497,4.3497,4.3497,4.3497,4.3461,4.3442,4.3442,4.3442,4.3406,4.3224,4.2569,4.2333,4.2333,4.2333,4.2333,4.2333,4.2333,4.2333,4.2333,4.2333,4.2347,4.2344,4.2349,4.202,4.1724,4.1727,4.1101,4.0396,3.9989,3.959,3.9191,3.8762,3.8707,3.8707,3.8707,3.8707,3.8707,3.8707,3.8707,3.8707,3.8707,3.8707,3.8707,3.8707,3.8707,3.8707,3.8707,3.8707,3.8707,3.8707,3.8707,3.8707,3.8707,3.9105,3.93,3.9341,3.9721,3.9937,3.9937,3.9937,3.9937,3.5494,3.533,3.4749,3.4737,3.3623,3.2354,3.1656,3.0838,3.0207,3.0266,3.0234,3.0221,3.0279,3.0299,3.0311,3.0292,3.072,3.1157,3.1408,3.2583,3.3825,3.4939,3.6388,3.7654,3.8461,3.9072,3.932,3.9129,3.9045,3.9101,3.9324,3.9129,3.8939,3.8707,3.8707,3.8707,3.8707,3.8707,3.8707,3.8707,3.8707,3.9129,3.9918,4.0744,4.1552,4.2341,4.3149,4.3497,4.3497,4.3497,4.3479,4.3479,4.3479,4.3461,4.3424,4.3387,4.3371,4.3356,4.3356,4.33,4.3224,4.3428,4.3499,4.3479,4.3497,4.3497,4.3497,4.3497,4.3497,4.3497,4.3497,4.3497,4.3497,4.3479,4.3023,4.2532,4.2532,4.1907,4.1185,4.0533,4.0105,3.9694,3.905,3.8781,3.867,3.867,3.8689,3.8689,3.867,3.8689,3.8707,3.8707,3.8707,3.8707,3.8707,3.8707,3.8707,3.8707,3.8707,3.8707,3.8707,3.8707,3.8707,3.8707,3.932,3.9626,3.9626,4.029,4.0597,4.0597,4.0597,4.0597,3.3135,3.3087,3.3015,3.2951,3.2267,3.1613,3.1522,3.0815,3.0199,3.0207,3.0188,3.0221,3.0279,3.0292,3.0292,3.0292,3.0311,3.0515,3.1156,3.1969,3.3053,3.4484,3.6058,3.737,3.8235,3.8812,3.9129,3.9101,3.8881,3.875,3.878,3.875,3.8738,3.8707,3.8707,3.8707,3.8707,3.8707,3.8707,3.8707,3.8707,3.9129,3.9918,4.0744,4.1552,4.2341,4.3149,4.3497,4.3497,4.3497,4.3461,4.3406,4.3406,4.3332,4.3224,4.3206,4.3213,4.3231,4.3231,4.3196,4.3226,4.336,4.3397,4.3424,4.3479,4.3497,4.3497,4.3497,4.3497,4.3497,4.3497,4.3497,4.3479,4.3424,4.3351,4.3314,4.3314,4.2713,4.2184,4.2093,4.0868,3.9804,3.9786,3.9068,3.8511,3.8511,3.8634,3.867,3.853,3.8634,3.8707,3.8707,3.8707,3.8707,3.8707,3.8707,3.8707,3.8707,3.8707,3.8707,3.8707,3.8707,3.8707,3.8707,3.8762,3.8799,3.8799,3.8903,3.8921,3.8921,3.8921,3.8921,3.268,3.2771,3.2607,3.2114,3.1752,3.1369,3.0835,3.0452,3.0185,3.0199,3.0199,3.0213,3.0226,3.024,3.0247,3.0292,3.0147,3.0122,3.0434,3.1604,3.2561,3.3028,3.494,3.6503,3.7219,3.7812,3.8298,3.87,3.8634,3.8559,3.8496,3.8578,3.859,3.859,3.8528,3.8515,3.8515,3.8515,3.8515,3.8515,3.9008,3.9666,4.0471,4.1379,4.215,4.2847,4.3279,4.3389,4.332,4.3316,4.3314,4.3279,4.3269,4.3251,4.3196,4.316,4.3123,4.3137,4.3137,4.3067,4.3051,4.3231,4.3251,4.3243,4.3387,4.3387,4.3332,4.3332,4.3332,4.3332,4.3332,4.3332,4.33,4.3305,4.3269,4.3305,4.3389,4.3114,4.2732,4.2315,4.1635,4.0972,4.0514,3.9735,3.9173,3.9173,3.8821,3.8506,3.848,3.8511,3.853,3.8566,3.8652,3.8707,3.8707,3.8707,3.8707,3.8707,3.8707,3.8707,3.8707,3.8707,3.8707,3.8707,3.8707,3.8707,3.8707,3.8707,3.8707,3.8707,3.8707,3.8707,3.1867,3.201,3.1828,3.1255,3.1121,3.0949,3.0338,3.0204,3.0204,3.0204,3.0204,3.0204,3.0204,3.0152,3.0118,3.0161,2.9977,2.9815,2.9834,3.1202,3.2127,3.192,3.4023,3.5777,3.6443,3.7301,3.7986,3.8455,3.8478,3.8446,3.8415,3.8433,3.8446,3.8478,3.8415,3.8382,3.8382,3.8382,3.8382,3.8401,3.9221,4.0024,4.0844,4.1734,4.2538,4.3214,4.3284,4.3301,4.3195,4.3208,4.3208,4.3159,4.3177,4.3137,4.3101,4.3065,4.3047,4.3047,4.3047,4.2992,4.2918,4.3101,4.3087,4.3084,4.3249,4.3249,4.3194,4.3194,4.3194,4.3194,4.3194,4.3176,4.3159,4.3176,4.3155,4.3194,4.3286,4.3228,4.3061,4.2575,4.223,4.1812,4.123,4.0477,3.9918,3.9937,3.9455,3.9101,3.9163,3.9129,3.9038,3.8852,3.8925,3.8884,3.8621,3.8634,3.8634,3.8652,3.8652,3.867,3.8707,3.8707,3.8689,3.8652,3.8652,3.8634,3.8634,3.8634,3.8652,3.8652,3.8689,3.8707,3.0251,3.0223,3.0223,3.0223,3.0204,3.0204,3.0204,3.0204,3.0204,3.0204,3.0204,3.0204,3.0204,3.0034,2.9886,2.9896,2.9731,2.9551,2.9414,3.0727,3.1635,3.1434,3.3532,3.5349,3.6211,3.7638,3.8491,3.851,3.8446,3.8382,3.8382,3.8354,3.8322,3.8382,3.8382,3.8382,3.8382,3.8382,3.8382,3.8401,3.9221,4.0024,4.0844,4.1628,4.243,4.3196,4.3195,4.3213,4.3196,4.3191,4.3177,4.3101,4.3101,4.3029,4.2882,4.2882,4.2882,4.2882,4.2882,4.2882,4.29,4.3065,4.301,4.2938,4.3065,4.3137,4.3211,4.3211,4.3211,4.3211,4.3211,4.3137,4.3101,4.3101,4.3101,4.3101,4.3101,4.3159,4.321,4.3176,4.25,4.1937,4.1973,4.1265,4.069,4.068,4.0729,4.0729,4.0675,4.0735,4.0473,3.9662,3.9592,3.9258,3.8462,3.8401,3.8438,3.8493,3.8493,3.8548,3.8689,3.8707,3.8652,3.8493,3.8493,3.8475,3.8401,3.8475,3.8493,3.8511,3.8652,3.8707,3.0218,3.0204,3.0204,3.0204,3.0204,3.0204,3.0204,3.0204,3.0204,3.0204,3.0204,3.0157,3.0019,2.9937,2.9872,2.9786,2.9662,2.9551,2.9433,3.0852,3.1768,3.1384,3.3918,3.5809,3.6124,3.7546,3.8415,3.8387,3.8354,3.8322,3.8274,3.8241,3.8274,3.8322,3.8307,3.8256,3.8256,3.8256,3.8256,3.8292,3.9583,4.0345,4.0635,4.2087,4.2832,4.3013,4.3105,4.3069,4.2995,4.2977,4.2976,4.2974,4.2974,4.2918,4.2882,4.2882,4.2882,4.2882,4.2882,4.2882,4.29,4.2936,4.2918,4.29,4.2936,4.2992,4.301,4.301,4.301,4.301,4.301,4.2992,4.2974,4.2974,4.2974,4.301,4.3083,4.3031,4.3014,4.3121,4.2828,4.2591,4.2609,4.1937,4.1394,4.1397,4.0908,4.0619,4.0673,4.0655,4.0528,4.0384,4.0253,3.9732,3.8518,3.8394,3.8394,3.8445,3.8423,3.8456,3.8493,3.8493,3.8475,3.8438,3.8433,3.8413,3.8394,3.8482,3.8542,3.8652,3.8689,3.8707,2.9598,2.9693,2.9756,3.0109,3.0204,3.0204,3.0204,3.0142,3.0098,3.0098,3.0034,2.9937,2.9822,2.9716,2.9644,2.957,2.9455,2.9353,2.9246,3.068,3.1829,3.2125,3.4436,3.6024,3.6054,3.7453,3.8336,3.8307,3.8274,3.8241,3.8192,3.8192,3.8225,3.8241,3.8207,3.8192,3.8192,3.8192,3.8192,3.821,3.9767,4.051,4.0564,4.2268,4.2994,4.2882,4.2976,4.2976,0.0,4.2882,4.2882,4.2882,4.2882,4.2882,4.2882,4.2882,4.2882,4.2882,4.2882,4.2882,4.2882,4.2882,4.2882,4.2882,4.2882,4.2882,4.2882,4.2882,4.2882,4.2882,4.2882,4.2882,4.2882,4.2882,4.2882,4.29,4.3029,4.2974,4.29,4.3029,4.2974,4.2882,4.2882,4.2482,4.2136,4.2136,4.1737,4.1447,4.1519,4.1465,4.1319,4.1083,4.1017,4.0363,3.8904,3.879,3.8658,3.837,3.8354,3.836,3.841,3.841,3.841,3.8342,3.8361,3.8352,3.8316,3.8431,3.8538,3.8634,3.8689,3.8707,0.0,2.8717,2.8917,2.9808,3.0013,3.0032,3.0075,2.9939,0.0,2.9872,2.9716,2.9589,2.9589,2.9435,2.9293,2.9272,2.9115,2.8952,2.8905,3.0277,3.1853,3.3405,3.5027,3.5994,3.5994,3.7376,3.8307,3.8307,3.8259,3.8192,3.8192,3.8192,3.8192,3.8192,3.8192,3.8192,3.8192,3.8192,3.8192,3.821,3.9767,4.051,4.0564,4.2158,4.2882,4.2882,4.2882,4.2882,4.2882,4.2882,4.2882,4.2882,4.2882,4.2882,4.2882,4.2882,4.2882,4.2882,4.2882,4.2882,4.2882,4.2864,4.2864,4.2864,4.2846,4.2864,4.2882,4.2882,4.2882,4.2882,4.2882,4.2882,4.2882,4.2882,4.2882,4.2882,4.2882,4.2882,4.2882,4.2882,4.2882,4.2882,4.2882,4.2882,4.2882,4.2882,4.2882,4.2882,4.2882,4.2882,4.2609,4.1863,4.1791,4.1193,3.9709,3.9462,3.9088,3.8334,3.8298,3.8316,3.837,3.8389,3.8352,3.8298,3.8298,3.828,3.8192,3.8323,3.8425,3.8493,3.8634,3.8689,2.6375,0.0,2.7932,2.8169,2.8207,2.8365,0.0,2.8871,2.8925,2.9549,2.9589,2.9476,2.9395,2.9334,2.9249,2.9112,2.8998,2.8929,2.8905,3.0195,3.1738,3.3338,3.4897,3.5864,3.5908,3.7297,3.8207,3.8207,3.8225,3.8192,3.8192,3.8192,3.8192,3.8192,3.8192,3.8192,3.8192,3.8192,3.8192,3.821,3.9767,4.0492,4.0563,4.2177,4.2882,4.2882,4.2882,4.2882,4.2882,4.2882,4.2882,4.2882,4.2882,4.2882,4.2882,4.2882,4.2882,4.2882,4.2882,4.2882,4.2864,4.2737,4.2645,4.2627,4.25,4.2645,4.2882,4.2882,4.2882,4.2882,4.2882,4.2882,4.2882,4.2882,4.2882,4.2882,4.2882,4.2882,4.2882,4.2882,4.2882,4.2882,4.2882,4.2882,4.2882,4.2882,4.2882,4.2882,4.2882,4.2882,4.2828,4.2627,4.2609,4.2228,4.1247,4.0092,3.907,3.828,3.821,3.821,3.8262,3.8262,3.8262,3.821,3.821,3.8262,3.8298,3.831,3.8364,3.842,3.8456,3.8634,2.4588,2.5808,2.6923,2.7327,2.7373,2.7422,2.7773,2.8032,2.8278,2.8725,2.9035,2.9191,2.9097,2.9052,2.9007,2.8929,2.8834,2.9022,2.9807,3.0883,3.2055,3.3306,3.4854,3.5815,3.5841,3.7297,3.8192,3.8192,3.8192,3.8192,3.8192,3.8192,3.8192,3.8192,3.8192,3.8192,3.8192,3.8192,3.8192,3.8192,3.9423,4.0183,4.0526,4.1796,4.2555,4.2882,4.2882,4.2882,4.2882,4.2882,4.2882,4.2882,4.2882,4.2846,4.2774,4.2774,4.2719,4.2609,4.2609,4.2609,4.2609,4.25,4.2469,4.244,4.2351,4.2458,4.2651,4.2732,4.2828,4.2882,4.2882,4.2882,4.2882,4.2882,4.2882,4.2882,4.2882,4.2882,4.2882,4.2882,4.2882,4.2882,4.2882,4.2882,4.2882,4.2882,4.2882,4.2882,4.2882,4.2882,4.2882,4.2882,4.2882,4.2573,4.1773,4.0582,3.9586,3.8785,3.8389,3.8192,3.8192,3.8192,3.8192,3.8192,3.8192,3.821,3.8262,3.8298,3.8219,3.8077,3.8469,3.8615,2.3398,2.4512,2.5774,2.6583,2.6699,2.6632,2.6746,2.725,2.7717,2.7827,2.8393,2.8858,2.8785,2.8737,2.8737,2.8761,2.876,2.9297,3.0836,3.1683,3.248,3.3302,3.4818,3.581,3.5786,3.7279,3.8192,3.8192,3.8192,3.8192,3.8192,3.8192,3.8192,3.8192,3.8156,3.8138,3.8138,3.8138,3.8138,3.8156,3.8916,3.9639,4.0326,4.1252,4.2027,4.2663,4.281,4.2846,4.2846,4.2846,4.2846,4.2846,4.2846,4.2737,4.2573,4.2549,4.2436,4.2309,4.2309,4.2309,4.2291,4.2273,4.2246,4.2247,4.2185,4.2229,4.2273,4.2458,4.2659,4.2846,4.2882,4.2882,4.2882,4.2846,4.2864,4.2882,4.2846,4.2864,4.2882,4.2882,4.2882,4.2882,4.2882,4.2882,4.2882,4.2882,4.2882,4.2882,4.2882,4.2882,4.2882,4.2882,4.2882,4.2591,4.1827,4.0957,4.0131,3.9397,3.8622,3.8192,3.8192,3.8192,3.8192,3.8192,3.8192,3.8192,3.8192,3.8174,3.8065,3.7851,3.8471,3.8672,2.3851,2.4266,2.4317,2.4724,2.4813,2.4964,2.5597,2.6254,2.6896,2.7529,2.8226,2.8694,2.8637,2.8712,2.8737,2.8637,2.9137,2.9835,3.0703,3.1483,3.2319,3.3266,3.4811,3.5818,3.5797,3.725,3.8192,3.8192,3.8192,3.8192,3.8192,3.8192,3.8192,3.8192,3.8047,3.7941,3.7941,3.7941,3.7941,3.7941,3.857,3.9037,3.9379,4.0781,4.1519,4.1683,4.2336,4.2627,4.2627,4.2627,4.2627,4.2627,4.2627,4.2519,4.2332,4.2359,4.2334,4.2298,4.2298,4.2298,4.2263,4.2043,4.1974,4.1912,4.1771,4.1842,4.1974,4.2,4.2315,4.2701,4.2846,4.2882,4.2846,4.2701,4.2792,4.2846,4.2663,4.2792,4.2882,4.2882,4.2882,4.2882,4.2882,4.2882,4.2882,4.2882,4.2882,4.2882,4.2882,4.2882,4.2882,4.2882,4.2882,4.2701,4.2192,4.0793,3.9769,3.927,3.8585,3.8192,3.8192,3.8192,3.8192,3.8192,3.8192,3.8192,3.8192,3.7814,3.7905,3.8461,3.8227,3.8612,2.3323,2.3823,2.3917,2.3999,2.3979,2.4099,2.4835,2.5584,2.6369,2.7212,2.8026,2.8569,2.851,2.8525,2.8605,2.8827,2.9574,3.0404,3.1174,3.1955,3.2596,3.3074,3.452,3.5483,3.5502,3.6939,3.7923,3.8047,3.8047,3.8101,3.8174,3.8101,3.8047,3.8047,3.7851,3.7727,3.7727,3.7614,3.7631,3.7738,3.8007,3.8451,3.8964,4.0091,4.0854,4.1301,4.2105,4.2299,4.2103,4.2109,4.1991,4.1789,4.1792,4.1683,4.1476,4.1341,4.1402,4.1604,4.1604,4.1754,4.1894,4.1789,4.1754,4.171,4.1622,4.1657,4.1771,4.1859,4.2157,4.2464,4.2555,4.2573,4.2555,4.2464,4.2354,4.2315,4.2551,4.25,4.2519,4.2846,4.2882,4.2864,4.2774,4.2828,4.2846,4.2755,4.2828,4.2882,4.2882,4.2663,4.2519,4.2519,4.2282,4.2063,4.1827,4.0387,3.9171,3.8339,3.7977,3.7923,3.8174,3.8192,3.8083,3.7832,3.7832,3.7905,3.8101,3.7887,3.8044,3.8541,3.8745,3.8986,2.2997,2.3541,2.3789,2.3678,2.3589,2.3682,2.423,2.5129,2.6029,2.6731,2.7705,2.8414,2.8353,2.8442,2.8666,2.908,3.0035,3.0912,3.1563,3.2322,3.2906,3.3117,3.4364,3.5271,3.5467,3.678,3.7665,3.7809,3.7821,3.7905,3.8065,3.7905,3.7801,3.7719,3.7522,3.7362,3.7272,3.7084,3.7182,3.752,3.7484,3.7774,3.8364,3.9118,3.9842,4.0556,4.1347,4.1604,4.1481,4.1492,4.1292,4.1032,4.1021,4.0903,4.0683,4.0481,4.0597,4.088,4.0961,4.12,4.1455,4.1587,4.1604,4.1604,4.1604,4.1604,4.1604,4.1657,4.1848,4.2009,4.2139,4.2157,4.2121,4.1974,4.176,4.1657,4.2086,4.1952,4.1937,4.2372,4.2555,4.2537,4.2282,4.2474,4.258,4.2354,4.2464,4.2573,4.2573,4.2264,4.2039,4.2024,4.1711,4.1332,4.0877,3.9595,3.838,3.7288,3.7324,3.7564,3.8029,3.7941,3.7708,3.7368,3.7524,3.7739,3.8007,3.8057,3.8327,3.8751,3.9223,3.9396,2.3547,2.3689,2.3539,2.3517,2.3589,2.3674,2.3611,2.4819,2.596,2.5897,2.7147,2.8228,2.8219,2.8775,2.9233,2.9287,3.043,3.1399,3.1502,3.2151,3.2947,3.3842,3.469,3.5492,3.6218,3.7069,3.7606,3.7606,3.7596,3.7636,3.7636,3.7636,3.7487,3.7179,3.696,3.6693,3.6299,3.6116,3.6453,3.7316,3.7136,3.7013,3.696,3.7768,3.8362,3.8747,3.9529,4.0271,4.0857,4.0848,4.0862,4.0793,4.0807,4.0671,4.045,4.0433,4.0433,4.049,4.0897,4.0998,4.1112,4.1455,4.1604,4.1604,4.1604,4.1604,4.1552,4.1165,4.1104,4.1183,4.1622,4.1728,4.1604,4.1016,4.1007,4.1122,4.0985,4.1041,4.1193,4.1229,4.1519,4.1683,4.1265,4.1629,4.1853,4.1441,4.1519,4.1591,4.1591,4.1555,4.1528,4.1533,4.1523,4.076,3.894,3.8193,3.7404,3.6471,3.6728,3.7136,3.7546,3.719,3.6976,3.694,3.7627,3.7991,3.8008,3.832,3.8839,3.9513,3.9177,3.9396,2.3494,2.3553,2.3336,2.3471,2.3827,2.426,2.469,2.5308,2.6053,2.7085,2.7709,2.8217,2.8693,2.8918,2.9382,3.0331,3.0939,3.1456,3.198,3.2313,3.2598,3.2949,3.4108,3.5014,3.5292,3.6488,3.7294,3.7382,3.7423,3.7484,3.7591,3.7287,3.7066,3.6917,3.65,3.6168,3.6004,3.5953,3.61,3.6444,3.6359,3.6291,3.6252,3.7085,3.7507,3.767,3.8468,3.9109,3.9581,3.959,3.9661,3.9814,3.9375,3.8834,3.8414,3.8851,3.9189,3.9498,4.0104,4.0603,4.1016,4.1182,4.1402,4.1569,4.1314,4.1218,4.1147,4.0726,4.0612,4.0656,4.0871,4.0884,4.0847,4.0627,4.0458,4.0426,4.0755,4.0646,4.0668,4.1009,4.1212,4.1238,4.0976,4.1204,4.1315,4.1013,4.1122,4.1255,4.1255,4.1,4.081,4.0797,4.0561,3.9885,3.8681,3.8072,3.7483,3.6921,3.6673,3.672,3.7126,3.7405,3.7498,3.7207,3.7923,3.8425,3.8614,3.874,3.9194,3.9935,3.9767,3.9817,2.3348,2.3371,2.3241,2.336,2.391,2.4647,2.5411,2.5773,2.6242,2.7423,2.8007,2.8472,2.8999,2.9431,3.003,3.1094,3.1447,3.1781,3.2317,3.2406,3.251,3.2721,3.3895,3.4777,3.5027,3.6129,3.69,3.7062,3.6917,3.6917,3.7062,3.672,3.6469,3.6385,3.5966,3.5702,3.5588,3.5571,3.5571,3.5571,3.5589,3.5666,3.5786,3.6332,3.6625,3.6776,3.7336,3.7847,3.8266,3.8269,3.8414,3.855,3.8044,3.7529,3.7145,3.7663,3.8041,3.8327,3.9003,3.9514,3.9984,4.012,4.0323,4.0542,4.049,4.0446,4.0444,4.0277,4.0239,4.0215,4.0107,4.0155,4.0204,4.0104,3.9847,3.9814,4.0221,4.0121,4.0017,4.0425,4.0612,4.0624,4.0388,4.0595,4.0668,4.0407,4.0544,4.0645,4.0645,4.0374,4.0171,4.0171,3.9833,3.9374,3.8685,3.7986,3.7394,3.699,3.6579,3.6536,3.7035,3.7404,3.7598,3.7572,3.8257,3.8775,3.9009,3.9228,3.9615,4.007,4.007,4.007,2.3193,2.3193,2.3193,2.3193,2.3845,2.47,2.5445,2.6118,2.6579,2.6521,2.7829,2.9042,2.9095,3.036,3.1402,3.1423,3.1969,3.2406,3.2406,3.2406,3.2685,3.3388,3.4197,3.496,3.5688,3.6182,3.6488,3.6488,3.6129,3.5915,3.5915,3.5915,3.5734,3.5421,3.5407,3.5243,3.4899,3.4899,3.4899,3.4899,3.4899,3.5063,3.5407,3.5407,3.5604,3.5966,3.5966,3.6427,3.7076,3.7077,3.7106,3.7077,3.7085,3.7057,3.7057,3.7074,3.7087,3.7155,3.7539,3.7691,3.7738,3.815,3.8328,3.8415,3.9067,3.9302,3.9375,3.9781,3.9847,3.9781,3.9392,3.9594,3.9781,3.9392,3.9272,3.9272,3.9272,3.9272,3.9272,3.9272,3.9611,3.9781,3.9375,3.9748,3.9967,3.9561,3.9611,3.9731,3.9731,3.9731,3.9731,3.9731,3.9578,3.9239,3.8649,3.7789,3.7067,3.6486,3.6412,3.674,3.7353,3.7024,3.7191,3.787,3.864,3.9009,3.9009,3.975,4.007,4.007,4.007,4.007,2.307,2.3003,2.3142,2.3743,2.4427,2.5137,2.6043,2.6507,2.7023,2.7993,2.8665,2.9359,3.032,3.0889,3.1373,3.1898,3.2143,3.2283,3.2388,3.2196,3.2143,3.2353,3.2756,3.316,3.3524,3.451,3.518,3.5374,3.5678,3.5921,3.5921,3.5661,3.5496,3.539,3.5193,3.5013,3.4899,3.4719,3.4719,3.4899,3.4719,3.4752,3.5046,3.5046,3.5096,3.5226,3.5226,3.5621,3.6346,3.6686,3.6638,3.629,3.6119,3.5866,3.5604,3.6131,3.6319,3.6406,3.7053,3.7452,3.7733,3.7848,3.8086,3.8286,3.8189,3.817,3.8262,3.8616,3.8681,3.8801,3.9206,3.9392,3.9441,3.9342,3.9272,3.9272,3.9272,3.9272,3.9272,3.9272,3.9392,3.9425,3.9342,3.9425,3.9528,3.9392,3.9392,3.9408,3.9408,3.9408,3.9408,3.9408,3.9392,3.9272,3.9086,3.8463,3.7998,3.7797,3.7394,3.7034,3.6695,3.7601,3.8202,3.8556,3.9244,3.9665,3.9783,4.0003,4.007,4.007,4.007,4.007,2.2944,2.2893,2.3067,2.3868,2.4604,2.5461,2.6627,2.6986,2.7391,2.8558,2.9136,2.9745,3.0898,3.1354,3.1655,3.2004,3.1935,3.1882,3.1882,3.1637,3.1446,3.1465,3.1863,3.2192,3.2303,3.3233,3.4024,3.4341,3.4719,3.5013,3.5193,3.5079,3.5013,3.4883,3.4769,3.4703,3.4572,3.4409,3.4414,3.4561,3.4414,3.4409,3.4572,3.4703,3.4686,3.4572,3.4572,3.4883,3.5407,3.5588,3.5495,3.5251,3.5083,3.4849,3.4669,3.5079,3.5243,3.5293,3.5752,3.6131,3.6444,3.6444,3.6609,3.6807,3.6841,3.6803,3.6799,3.7316,3.7741,3.8109,3.843,3.8801,3.9156,3.9255,3.9272,3.9272,3.9272,3.9272,3.9272,3.9272,3.9272,3.9272,3.9272,3.9272,3.9272,3.9272,3.9272,3.9272,3.9272,3.9272,3.9272,3.9272,3.9272,3.9272,3.9272,3.8681,3.8308,3.8338,3.8003,3.7569,3.7114,3.807,3.8803,3.9224,3.9682,3.9986,4.007,4.007,4.007,4.007,4.007,4.007,2.2816,2.2816,2.2981,2.3794,2.4689,2.5742,2.7157,2.7417,2.7654,2.8617,2.9403,3.0179,3.1011,3.1688,3.2063,3.1783,3.1495,3.1254,3.1096,3.0835,3.0697,3.0759,3.1299,3.1686,3.1713,3.2276,3.2861,3.3329,3.3304,3.3469,3.3956,3.4233,3.4297,3.41,3.4314,3.4363,3.4086,3.407,3.4071,3.408,3.4054,3.407,3.407,3.4363,3.4347,3.4086,3.4116,3.4215,3.4429,3.4184,3.4086,3.4069,3.4088,3.407,3.4086,3.4086,3.4086,3.4086,3.4086,3.4249,3.4477,3.4459,3.4442,3.4589,3.5278,3.528,3.5247,3.5971,3.6886,3.7507,3.7253,3.792,3.8722,3.9044,3.9202,3.9239,3.9272,3.9272,3.9272,3.9272,3.9272,3.9272,3.9272,3.9272,3.9272,3.9272,3.9272,3.9272,3.9272,3.9272,3.9272,3.9272,3.9272,3.9272,3.9272,3.8681,3.8294,3.8294,3.8294,3.8294,3.8294,3.8513,3.9036,3.9831,3.9849,3.9952,4.0054,4.0054,4.0054,4.0054,4.0054,4.0054,2.2816,2.2816,2.3119,2.443,2.5799,2.6919,2.7276,2.7341,2.7757,2.9243,3.0229,3.1011,3.1637,3.1618,3.1468,3.1433,3.1048,3.0799,3.0882,3.0577,3.0396,3.04,3.018,3.0073,3.0238,3.0755,3.1197,3.1444,3.1983,3.2598,3.33,3.3364,3.3625,3.41,3.4149,3.415,3.4118,3.387,3.3898,3.4096,3.3898,3.3806,3.3806,3.4085,3.415,3.4085,3.4105,3.4154,3.4166,3.3922,3.393,3.4064,3.3866,3.3938,3.4118,3.4118,3.4118,3.4118,3.4118,3.4134,3.4188,3.4186,3.4197,3.4233,3.4374,3.4398,3.4478,3.5237,3.5574,3.5877,3.6405,3.7046,3.7642,3.769,3.8349,3.8987,3.9239,3.9272,3.9272,3.9272,3.9272,3.9272,3.9272,3.9272,3.9272,3.9272,3.9272,3.9272,3.9272,3.9272,3.9272,3.9272,3.9272,3.9272,3.9272,3.9172,3.9053,3.9053,3.9053,3.9053,3.9053,3.9139,3.9272,3.9578,3.9596,3.9632,3.98,3.98,3.98,3.98,3.98,3.98,2.2764,2.2997,2.3636,2.5143,2.6419,2.7299,2.7299,2.7587,2.8108,2.8961,2.9828,3.0679,3.1479,3.144,3.1172,3.084,3.0471,3.0198,3.0158,2.9892,2.9734,2.9734,2.9467,2.9342,2.9451,2.9844,3.0231,3.0565,3.1038,3.1575,3.2171,3.2305,3.2478,3.2684,3.3165,3.3356,3.3261,3.3441,3.3588,3.3736,3.3588,3.3488,3.3488,3.3636,3.3784,3.3884,3.3767,3.3781,3.39,3.362,3.3604,3.372,3.3572,3.3604,3.3736,3.3736,3.3736,3.3736,3.3736,3.3784,3.3905,3.3917,3.3889,3.3919,3.391,3.38,3.3784,3.4197,3.4622,3.5069,3.5262,3.5957,3.666,3.6995,3.7955,3.8817,3.8851,3.8987,3.902,3.8867,3.8851,3.8851,3.8851,3.8987,3.9139,3.9255,3.9272,3.9272,3.9272,3.9272,3.9272,3.9272,3.9272,3.9272,3.9272,3.9272,3.9272,3.9272,3.9272,3.9272,3.9272,3.9272,3.9375,3.9528,3.9523,3.956,3.9713,3.9713,3.9713,3.9713,3.9713,3.9713,2.2712,2.335,2.4322,2.5764,2.6695,2.7299,2.7299,2.7823,2.83,2.83,2.9076,3.004,3.0928,3.1069,3.0828,3.0245,2.9876,2.9609,2.9451,2.9216,2.9075,2.9075,2.9075,2.9075,2.9075,2.931,2.9593,2.9986,3.016,3.0461,3.0999,3.1236,3.1301,3.1171,3.2013,3.2348,3.2117,3.2819,3.3145,3.3145,3.3261,3.3309,3.3309,3.3309,3.3441,3.362,3.3425,3.3441,3.3604,3.3409,3.3309,3.3309,3.3309,3.3309,3.3309,3.3309,3.3309,3.3309,3.3309,3.3456,3.362,3.362,3.362,3.362,3.362,3.3472,3.3309,3.3309,3.3916,3.4457,3.4213,3.484,3.568,3.6321,3.7504,3.8466,3.841,3.8537,3.8663,3.8444,3.8412,3.8412,3.8412,3.8607,3.8867,3.9086,3.9189,3.9206,3.9172,3.9156,3.9172,3.9206,3.9206,3.9239,3.9272,3.9272,3.9272,3.9272,3.9272,3.9272,3.9272,3.9272,3.9358,3.9441,3.9458,3.9545,3.9611,3.9611,3.9611,3.9611,3.9611,3.9611,2.2712,2.3764,2.504,2.5902,2.6695,2.7299,2.7299,2.7382,2.7552,2.7823,2.9042,3.0057,3.0162,3.0063,2.9945,2.989,2.9467,2.9185,2.9169,2.9137,2.9075,2.9075,2.9075,2.9075,2.9075,2.9153,2.9185,2.9216,2.9278,2.9593,3.0286,3.0369,3.0655,3.1165,3.1308,3.1355,3.1356,3.2086,3.2426,3.2426,3.3014,3.3309,3.3309,3.3309,3.3309,3.334,3.3309,3.3309,3.334,3.3309,3.3309,3.3309,3.3309,3.3309,3.3309,3.3309,3.3309,3.3309,3.3309,3.3309,3.334,3.334,3.334,3.334,3.334,3.3324,3.3309,3.3309,3.3425,3.3488,3.3456,3.3948,3.4521,3.4606,3.5927,3.7371,3.8231,3.8455,3.8456,3.8382,3.8382,3.8382,3.8382,3.8616,3.8768,3.8529,3.8698,3.8801,3.8529,3.8496,3.8616,3.8834,3.8851,3.8987,3.9255,3.9272,3.9272,3.9272,3.9272,3.9272,3.9272,3.9272,3.9342,3.9342,3.9342,3.9358,3.9358,3.9358,3.9358,3.9358,3.9358,3.9358,2.4505,2.5109,2.5738,2.629,2.6702,2.6957,2.6943,2.6785,2.6725,2.7112,2.7687,2.8273,2.8656,2.8666,2.8544,2.8295,2.8419,2.8528,2.8528,2.8871,2.9075,2.9075,2.9075,2.9075,2.9075,2.9075,2.9075,2.9075,2.9075,2.9216,2.9577,2.9577,2.9718,3.0002,3.0412,3.0624,3.0667,3.1306,3.1905,3.2279,3.2588,3.2966,3.3309,3.3309,3.3309,3.3309,3.3309,3.3309,3.3309,3.3309,3.3309,3.3309,3.3309,3.3309,3.3309,3.3309,3.3309,3.3309,3.3309,3.3309,3.3309,3.3309,3.3309,3.3309,3.3309,3.3309,3.3309,3.3309,3.3309,3.3309,3.3309,3.3504,3.3816,3.4213,3.5202,3.627,3.7086,3.7706,3.8098,3.7927,3.7912,3.7943,3.8098,3.8226,3.8302,3.8372,3.8492,3.8537,3.84,3.84,3.8432,3.8553,3.869,3.8851,3.902,3.9189,3.9272,3.9272,3.9272,3.9272,3.9272,3.9272,3.9272,3.9272,3.9272,3.9272,3.9272,3.9272,3.9272,3.9272,3.9272,3.9272,2.5902,2.6109,2.6189,2.6605,2.6691,2.6674,2.6554,2.6335,2.6175,2.6353,2.6352,2.6478,2.6933,2.7324,2.7447,2.717,2.7538,2.7852,2.7829,2.8279,2.8653,2.8809,2.8871,2.8919,2.9075,2.9075,2.9075,2.9075,2.9075,2.9075,2.9075,2.9075,2.9075,2.9075,2.9609,2.9892,2.9892,3.0587,3.1326,3.2006,3.205,3.2279,3.2751,3.2982,3.3029,3.3045,3.3208,3.3309,3.3309,3.3309,3.3309,3.3309,3.3309,3.3309,3.3309,3.3309,3.3309,3.3309,3.3309,3.3309,3.3309,3.3309,3.3309,3.3309,3.3309,3.3309,3.3309,3.3309,3.3309,3.3309,3.3309,3.3309,3.3441,3.3932,3.4739,3.5658,3.6495,3.7263,3.7757,3.7571,3.748,3.7571,3.7773,3.7821,3.7972,3.8154,3.8203,3.8269,3.8162,3.8162,3.8177,3.8285,3.8472,3.863,3.8698,3.8954,3.9053,3.9053,3.9053,3.9069,3.9172,3.9172,3.9206,3.9272,3.9272,3.9272,3.9272,3.9272,3.9272,3.9272,3.9272,3.9272,2.5902,2.6109,2.6189,2.6605,2.6691,2.6624,2.621,2.6101,2.5999,2.5637,2.5575,2.5457,2.5195,2.6214,2.7106,2.7089,2.7106,2.716,2.7148,2.7165,2.7412,2.8093,2.8139,2.8404,2.9044,2.9075,2.9075,2.9075,2.9075,2.9075,2.9075,2.9075,2.9075,2.9075,2.9153,2.9169,2.9169,2.9876,3.0603,3.1257,3.1236,3.1272,3.1356,3.2002,3.2363,3.2394,3.3014,3.3309,3.3309,3.3309,3.3309,3.3309,3.3309,3.3309,3.3309,3.3309,3.3309,3.3309,3.3309,3.3309,3.3309,3.3309,3.3309,3.3309,3.3309,3.3309,3.3309,3.3309,3.3309,3.3309,3.3309,3.3309,3.3309,3.3324,3.4393,3.5808,3.7155,3.7464,3.7496,3.748,3.748,3.748,3.7496,3.7741,3.7789,3.7583,3.7741,3.7821,3.7587,3.7571,3.7634,3.7912,3.7971,3.8049,3.8372,3.8447,3.8447,3.8447,3.8447,3.8583,3.8817,3.8834,3.8987,3.9272,3.9272,3.9272,3.9272,3.9272,3.9272,3.9272,3.9272,3.9272,2.6463,2.6499,2.6386,2.6021,2.5908,2.5885,2.5767,2.554,2.541,2.5479,2.5346,2.514,2.5021,2.5393,2.5751,2.5751,2.611,2.6375,2.6398,2.6798,2.7195,2.7438,2.7447,2.7535,2.7783,2.8232,2.8481,2.8481,2.8871,2.9075,2.9075,2.9075,2.9059,2.895,2.9059,2.9075,2.9075,2.9342,2.986,3.0571,3.0577,3.0782,3.1213,3.1373,3.1505,3.1647,3.2263,3.2835,3.3309,3.3309,3.3309,3.3309,3.3309,3.3309,3.3309,3.3309,3.3309,3.3309,3.3309,3.3309,3.3309,3.3309,3.3309,3.3309,3.3309,3.3309,3.3309,3.3309,3.3309,3.3309,3.3309,3.3309,3.3504,3.4425,3.5015,3.5776,3.7212,3.748,3.748,3.748,3.748,3.748,3.748,3.7587,3.7603,3.748,3.7587,3.7603,3.748,3.748,3.7571,3.7619,3.7789,3.795,3.8075,3.8302,3.8382,3.8382,3.8382,3.8472,3.8536,3.8707,3.8851,3.8987,3.9189,3.9272,3.9272,3.9272,3.9272,3.9272,3.9272,3.9272,2.6573,2.6505,2.635,2.5689,2.5503,2.5476,2.5376,2.5156,2.5053,2.5274,2.5156,2.5005,2.5005,2.5005,2.5005,2.5005,2.5377,2.5648,2.5648,2.6094,2.6469,2.671,2.673,2.6842,2.7102,2.7501,2.7756,2.7782,2.8171,2.8513,2.8669,2.8684,2.8763,2.8858,2.8951,2.9028,2.9028,2.9028,2.9278,2.975,2.9734,2.997,3.0412,3.0539,3.064,3.0778,3.1365,3.2163,3.2982,3.3193,3.3277,3.3261,3.3293,3.3277,3.3261,3.3293,3.3277,3.3261,3.3293,3.3277,3.3261,3.3293,3.3309,3.3309,3.3309,3.3309,3.3309,3.3309,3.3309,3.3309,3.3309,3.3309,3.3636,3.5069,3.541,3.5789,3.7216,3.748,3.748,3.748,3.748,3.748,3.748,3.748,3.748,3.748,3.748,3.748,3.748,3.748,3.748,3.748,3.765,3.7773,3.7773,3.7959,3.8114,3.8114,3.8114,3.813,3.8253,3.8416,3.8625,3.8817,3.902,3.9189,3.9272,3.9272,3.9272,3.9342,3.9561,3.9781,0.0,0.0,0.0,2.5545,2.5433,2.5373,2.5052,2.4989,2.4989,2.5005,2.5005,2.5005,2.5005,2.5005,2.5005,2.5005,2.5005,2.5005,2.5005,2.5005,2.5243,2.587,2.5974,2.6246,2.6967,2.7055,2.707,2.7056,2.7057,2.7303,2.7859,2.7876,2.8171,2.8773,2.8779,2.8825,2.8919,2.8825,2.8825,2.8919,2.8825,2.8809,2.8825,2.9483,2.9753,2.9814,3.0464,3.1324,3.2316,3.2982,3.3177,3.313,3.3224,3.3208,3.313,3.3277,3.3193,3.313,3.3224,3.3208,3.313,3.3277,3.3293,3.3293,3.3309,3.3309,3.3309,3.3309,3.3309,3.3309,3.3309,3.3309,3.3652,3.5053,3.541,3.5789,3.7216,3.7464,3.7464,3.748,3.748,3.748,3.748,3.748,3.748,3.748,3.748,3.748,3.748,3.748,3.748,3.748,3.748,3.748,3.748,3.748,3.748,3.748,3.748,3.7619,3.7912,3.7912,3.8187,3.878,3.8747,3.897,3.9272,3.9342,3.9342,3.9358,4.0084,4.0762,2.5762,0.0,0.0,0.0,0.0,0.0,2.4218,2.421,2.4359,2.4902,2.4918,2.4887,2.4989,2.4918,2.4902,2.4989,2.5005,2.5005,2.5005,2.5005,2.5053,2.5259,2.5274,2.5346,2.5409,2.5958,2.6278,2.6161,2.6675,2.7038,2.7176,2.7517,2.804,2.8788,2.8713,2.8698,2.8824,2.8826,2.8826,2.8824,2.8808,2.8808,2.8808,2.8871,2.8979,2.9086,2.9705,3.0432,3.1268,3.1909,3.2525,3.2945,3.3013,3.3052,3.3114,3.3145,3.3145,3.3108,3.3123,3.3052,3.2982,3.313,3.3161,3.3161,3.3277,3.3309,3.3293,3.3177,3.3208,3.3309,3.3309,3.3652,3.4229,3.5021,3.5593,3.6216,3.6955,3.7231,3.731,3.7464,3.748,3.748,3.748,3.748,3.748,3.748,3.748,3.748,3.748,3.748,3.748,3.748,3.748,3.748,3.748,3.748,3.748,3.748,3.748,3.7555,3.7603,3.7789,3.7982,3.8146,3.8384,3.8801,3.9375,3.9847,4.0121,4.0084,4.0809,4.1486,2.4976,2.482,2.4623,2.3729,0.0,0.0,2.3503,2.3499,2.3685,2.4374,2.4477,2.4548,2.4918,2.4878,2.4829,2.4894,2.4926,2.4934,2.5005,2.5005,2.4989,2.4918,2.4918,2.48,2.4461,2.4862,2.5028,2.4729,2.5124,2.5568,2.6094,2.704,2.7552,2.7552,2.8176,2.8317,2.7941,2.8168,2.8293,2.8317,2.8051,2.7911,2.7926,2.8051,2.8051,2.7941,2.8506,2.9166,2.9906,3.0287,3.139,3.2772,3.2874,3.2913,3.2926,3.2992,3.2982,3.2876,3.2975,3.2913,3.2826,3.2989,3.3033,3.3014,3.313,3.3145,3.313,3.3029,3.3045,3.3177,3.3472,3.3604,3.3905,3.4778,3.5315,3.5797,3.6442,3.6611,3.681,3.731,3.7433,3.748,3.748,3.748,3.748,3.748,3.748,3.748,3.748,3.748,3.7417,3.7216,3.7401,3.7417,3.7216,3.7401,3.748,3.748,3.748,3.748,3.748,3.7634,3.7789,3.7912,3.8116,3.8821,3.9972,3.999,4.038,4.1094,4.1625,4.2239,2.4112,2.3923,2.3733,2.2975,2.2769,0.0,2.2769,2.2789,2.2979,2.3663,2.385,2.4108,2.4768,2.4836,2.4782,2.4826,2.4822,2.4823,2.4934,2.4966,2.4902,2.4701,2.4688,2.4469,2.384,2.3784,2.3633,2.3198,2.3239,2.3784,2.4912,2.6393,2.6782,2.5804,2.7258,2.7567,2.6699,2.7085,2.7376,2.7569,2.6961,2.6698,2.6713,2.7195,2.7139,2.6729,2.7184,2.7883,2.8614,2.8626,3.0086,3.2382,3.2545,3.253,3.2422,3.2585,3.2551,3.2429,3.2679,3.2561,3.2413,3.2779,3.2827,3.2761,3.2876,3.2892,3.2876,3.2829,3.2745,3.2892,3.3498,3.3275,3.3193,3.4438,3.4725,3.4946,3.5597,3.5705,3.5983,3.6768,3.7163,3.7401,3.7449,3.7464,3.748,3.748,3.7449,3.7417,3.7417,3.7385,3.7125,3.6632,3.7053,3.7147,3.6632,3.7093,3.7417,3.7417,3.7464,3.7464,3.7417,3.7417,3.7555,3.7789,3.8036,3.8984,4.0504,3.9914,4.0449,4.2064,4.2413,4.2861,2.4074,2.3923,2.3623,2.239,2.2058,0.0,2.2074,2.2099,2.2296,2.2961,2.3472,2.3888,2.4092,2.4484,2.4822,2.4954,2.4864,2.477,2.4689,2.4775,2.4625,2.4141,2.4098,2.3851,2.3238,2.3259,2.3263,2.3059,2.3475,2.4061,2.4785,2.5162,2.5463,2.5804,2.5653,2.5745,2.599,2.6098,2.6367,2.6885,2.6759,2.6676,2.6676,2.6787,2.6779,2.6711,2.6789,2.7504,2.8572,2.8615,2.95,3.093,3.0961,3.0991,3.1076,3.1086,3.111,3.1156,3.1732,3.15,3.1107,3.2266,3.236,3.2074,3.2695,3.2874,3.2811,3.2252,3.1974,3.1927,3.2136,3.2886,3.36,3.3779,3.4242,3.4658,3.4622,3.474,3.4861,3.5096,3.5763,3.657,3.714,3.7401,3.748,3.748,3.7125,3.6877,3.6877,3.6463,3.6141,3.6079,3.6161,3.6167,3.6038,3.657,3.6877,3.6877,3.7263,3.7294,3.6892,3.6877,3.6924,3.7093,3.8167,3.8896,3.9268,4.0349,4.1415,4.2479,4.2828,4.267,2.3648,2.3401,2.307,2.1679,2.1331,0.0,0.0,2.1353,2.1532,2.2273,2.2627,2.3033,2.3746,2.4115,2.443,2.4813,2.4606,2.4326,2.4234,2.4277,2.422,2.39,2.3624,2.3214,2.2669,2.2649,2.2686,2.2672,2.3195,2.3803,2.4442,2.477,2.4776,2.452,2.4767,2.4767,2.4525,2.5112,2.5542,2.5881,2.5881,2.5881,2.5881,2.6146,2.6132,2.5869,2.6161,2.6821,2.7712,2.7713,2.84,2.9645,3.023,3.051,3.0598,3.0598,3.0598,3.0628,3.0997,3.0863,3.0608,3.1323,3.1377,3.1207,3.1561,3.1692,3.1617,3.1279,3.1322,3.1601,3.2014,3.2557,3.3093,3.332,3.3609,3.3872,3.3776,3.385,3.3977,3.4353,3.4658,3.5111,3.6102,3.6401,3.6538,3.6707,3.6448,3.6333,3.6333,3.6082,3.5804,3.5589,3.5747,3.5829,3.557,3.5973,3.6337,3.6326,3.657,3.6585,3.6294,3.6585,3.6968,3.7458,3.8133,3.866,3.9029,3.9968,4.0763,4.1493,4.1873,4.1786,2.3733,2.3364,2.2972,2.1702,2.1304,2.1158,0.0,0.0,0.0,2.1599,2.176,2.2157,2.329,2.3597,2.3831,2.4532,2.4128,2.383,2.3947,2.3822,2.3672,2.3506,2.3112,2.2636,2.209,2.2028,2.211,2.2267,2.2865,2.3396,2.392,2.4383,2.4136,2.3069,2.3812,2.3826,2.3013,2.398,2.4584,2.4811,2.4811,2.4894,2.5018,2.5476,2.5449,2.5018,2.5547,2.6133,2.6791,2.6783,2.7495,2.8706,2.973,3.0132,3.0132,3.0132,3.0132,3.0132,3.0266,3.023,3.0191,3.0403,3.0481,3.0478,3.0478,3.0434,3.0323,3.034,3.0763,3.1354,3.1837,3.2128,3.2323,3.2873,3.3014,3.3014,3.3014,3.3014,3.317,3.3765,3.3567,3.3677,3.4991,3.5248,3.5401,3.563,3.56,3.555,3.5518,3.5486,3.5316,3.4923,3.5234,3.536,3.5063,3.5501,3.5753,3.5769,3.5875,3.5875,3.5768,3.6445,3.7107,3.7835,3.8011,3.835,3.8911,3.9207,3.9672,4.0292,4.0676,4.0733,2.5473,2.5026,2.4429,2.3732,2.3119,2.2501,2.19,0.0,2.16,2.1033,0.0,2.1935,2.2109,0.0,0.0,2.3885,2.3647,2.3665,2.4542,2.3726,2.2867,2.2407,2.2325,2.2063,2.1561,2.1512,2.1704,2.227,2.2882,2.3244,2.3302,2.3341,2.3097,2.2394,2.2014,2.2,2.2401,2.256,2.3128,2.4176,2.4176,2.448,2.5005,2.5102,2.5032,2.5005,2.5102,2.577,2.6791,2.6783,2.7495,2.86,2.8733,2.8825,2.8825,2.8825,2.8825,2.8866,2.9449,2.9256,2.9022,3.0141,3.0524,3.0524,3.0524,3.0108,2.9581,2.9619,3.0026,3.0554,3.0601,3.1441,3.2182,3.2296,3.2309,3.2309,3.2309,3.2309,3.2323,3.2436,3.2409,3.2849,3.4427,3.4795,3.4875,3.489,3.4537,3.422,3.423,3.384,3.3686,3.3951,3.3994,3.4148,3.4457,3.5005,3.5257,3.5311,3.5652,3.5681,3.5311,3.5956,3.6653,3.7365,3.7893,3.8217,3.8335,3.835,3.8913,3.9993,4.0307,4.0055,2.5742,2.5269,2.4752,2.4487,2.3931,2.3522,2.366,2.3692,2.3403,2.2236,0.0,0.0,0.0,0.0,0.0,0.0,2.2863,2.2646,2.2913,2.2194,2.2004,2.3068,2.2601,2.2175,2.2144,2.171,2.1934,2.3231,2.2946,2.3002,2.3655,2.3071,2.2573,2.2325,2.1718,2.1526,2.1794,2.2118,2.2537,2.3062,2.3795,2.4176,2.4369,2.4797,2.4991,2.4894,2.4991,2.5672,2.6791,2.6783,2.7495,2.8587,2.8587,2.8587,2.8587,2.8587,2.8587,2.8614,2.8866,2.8825,2.8706,2.9224,2.9371,2.9371,2.9371,2.921,2.8971,2.8971,2.9624,3.0419,3.0423,3.1315,3.2182,3.2182,3.2182,3.2182,3.2182,3.2182,3.2182,3.2182,3.2182,3.2423,3.3128,3.3449,3.3649,3.3903,3.3762,3.3607,3.3607,3.3452,3.3452,3.3762,3.3811,3.3965,3.4399,3.4598,3.4738,3.4738,3.5316,3.5672,3.5828,3.6519,3.7189,3.7835,3.8055,3.8202,3.8202,3.8202,3.8423,3.8911,3.9059,3.8911,2.6029,2.5515,2.5131,2.5387,2.4942,2.4617,2.5163,2.5179,2.4773,2.3579,2.3208,0.0,0.0,0.0,2.2123,2.278,0.0,2.1628,2.1684,2.1178,2.138,2.2962,2.2593,2.2306,2.2561,2.2062,2.2295,2.3649,2.2991,2.286,2.3575,2.2774,2.2208,2.2076,2.1629,2.1423,2.1423,2.1821,2.2118,2.2311,2.3307,2.3836,2.393,2.4614,2.4835,2.477,2.4894,2.5658,2.6763,2.6756,2.7468,2.8587,2.856,2.8495,2.8495,2.8587,2.8573,2.856,2.8587,2.8587,2.8587,2.8587,2.8587,2.8587,2.8587,2.8587,2.8587,2.8587,2.9476,3.0419,3.0423,3.1315,3.2182,3.2182,3.2182,3.2182,3.2182,3.2182,3.2182,3.2182,3.2182,3.2182,3.2182,3.2423,3.2691,3.2987,3.3001,3.3001,3.3001,3.3001,3.3142,3.3453,3.3493,3.3686,3.4163,3.4259,3.4385,3.4695,3.5316,3.5952,3.6546,3.7055,3.7555,3.8202,3.8202,3.8202,3.8202,3.8202,3.8202,3.8202,3.8202,3.8202,2.6638,2.6348,2.5986,2.6811,2.6499,2.5923,2.5973,2.5696,2.5184,2.4519,2.4032,2.3764,2.3734,2.2733,2.2122,2.2798,2.1579,0.0,0.0,2.1421,2.1067,2.126,2.1819,2.2184,2.2212,2.2491,2.2691,2.2732,2.3004,2.2954,2.2392,2.2324,2.2014,2.145,2.1423,2.1423,2.1423,2.1423,2.1718,2.2297,2.2783,2.3362,2.3944,2.439,2.4585,2.459,2.477,2.5476,2.658,2.6538,2.7351,2.8587,2.8363,2.8322,2.8336,2.856,2.8468,2.8336,2.856,2.8587,2.8587,2.8587,2.8587,2.8587,2.8587,2.8587,2.8587,2.8587,2.9476,3.0419,3.0423,3.1315,3.2182,3.2182,3.2182,3.2182,3.2182,3.2182,3.2182,3.2182,3.2182,3.2182,3.2182,3.2182,3.2182,3.2268,3.2268,3.2268,3.2268,3.2268,3.2323,3.2718,3.2751,3.3058,3.3797,3.3825,3.4274,3.5316,3.5955,3.6604,3.7207,3.7307,3.7555,3.8202,3.8202,3.8202,3.8202,3.8202,3.8202,3.8202,3.8202,3.8202,2.5507,2.5418,2.5474,2.6212,2.6353,2.6464,2.6874,2.7031,2.673,2.562,2.5288,2.4926,2.3947,2.3462,2.3085,2.2884,2.238,2.1939,0.0,2.1671,2.17,2.1729,2.1974,2.2286,2.2704,2.2366,2.2509,2.3576,2.2624,2.2101,2.2293,2.1925,2.1615,2.1423,2.1423,2.1423,2.1423,2.1334,2.1361,2.1601,2.2478,2.2916,2.3052,2.4144,2.4548,2.4403,2.4945,2.5679,2.6425,2.6783,2.7485,2.8278,2.822,2.819,2.8204,2.8336,2.8322,2.8204,2.8349,2.8427,2.8441,2.8573,2.8587,2.8587,2.8587,2.8481,2.8481,2.9063,2.9702,3.0311,3.0864,3.1594,3.2182,3.2182,3.2182,3.2182,3.2182,3.2182,3.2182,3.2182,3.2182,3.2182,3.2182,3.2182,3.2182,3.2182,3.2182,3.2182,3.2182,3.2182,3.2464,3.3183,3.3278,3.3677,3.4569,3.4911,3.531,3.5985,3.6606,3.7025,3.7322,3.7688,3.8011,3.8202,3.8202,3.8202,3.8202,3.8202,3.8202,3.8202,3.8202,3.8202,2.4277,2.4352,2.4555,2.5236,2.556,2.5928,2.6855,2.7069,2.6911,2.6277,2.5982,2.5634,2.4699,2.4248,2.3896,2.3452,2.2901,2.2233,0.0,2.1505,2.1641,2.1641,2.2033,2.2536,2.311,2.2714,2.2853,2.3823,2.2726,2.2115,2.2287,2.1722,2.1423,2.1423,2.1348,2.1334,2.1334,2.1183,2.1135,2.1131,2.2234,2.2669,2.2665,2.3904,2.4347,2.4249,2.5002,2.5692,2.6284,2.6852,2.7459,2.8106,2.7987,2.7959,2.8038,2.8183,2.8183,2.8078,2.8091,2.8168,2.8231,2.8363,2.8454,2.8495,2.8692,2.8692,2.876,2.9392,2.9925,3.046,3.1052,3.1621,3.2128,3.2169,3.2182,3.2182,3.2182,3.2182,3.2182,3.2182,3.2182,3.2182,3.2182,3.2182,3.2182,3.2182,3.2409,3.255,3.255,3.2704,3.3028,3.3623,3.3683,3.4019,3.4796,3.5424,3.5956,3.6169,3.6925,3.7394,3.7394,3.7893,3.8202,3.8202,3.8202,3.8202,3.8202,3.8202,3.8202,3.8202,3.8202,3.8202]},{"header":{"parameterUnit":"m.s-1","parameterCategory":1,"la1":30.6,"la2":29.2853,"lo1":-89.7004,"lo2":-87.6739,"dy":0.0162,"dx":0.0183,"nx":112,"ny":82,"refTime":"2023-10-02T06:00:00:Z","depth":0,"parameterNumber":3,"parameterNumberName":"V-component_of_WINDS"},"data":[0.0,0.0,0.0,0.0,0.0,0.0,0.0,0.0,0.0,0.0,0.0,0.0,0.0,0.0,0.0,0.0,0.0,0.0,0.0,0.0,0.0,0.0,0.0,0.0,0.0,0.0,0.0,0.0,0.0,0.0,0.0,0.0,0.0,0.0,0.0,0.0,0.0,0.0,0.0,0.0,0.0,0.0,0.0,0.0,0.0,0.0,0.0,0.0,0.0,0.0,0.0,0.0,0.0,0.0,0.0,0.0,0.0,0.0,0.0,0.0,0.0,0.0,0.0,0.0,0.0,0.0,0.0,0.0,0.0,0.0,0.0,0.0,0.0,0.0,0.0,0.0,0.0,0.0,0.0,0.0,0.0,0.0,0.0,0.0,0.0,0.0,0.0,0.0,0.0,0.0,-0.0168,0.1061,0.2627,0.3542,0.3382,0.3484,0.3439,0.3024,0.0,0.0,0.0,0.0,0.0,0.0,0.0,0.0,0.0,0.0,0.0,0.0,0.0,0.0,0.0,0.0,0.0,0.0,0.0,0.0,0.0,0.0,0.0,0.0,0.0,0.0,0.0,0.0,0.0,0.0,0.0,0.0,0.0,0.0,0.0,0.0,0.0,0.0,0.0,0.0,0.0,0.0,0.0,0.0,0.0,0.0,0.0,0.0,0.0,0.0,0.0,0.0,0.0,0.0,0.0,0.0,0.0,0.0,0.0,0.0,0.0,0.0,0.0,0.0,0.0,0.0,0.0,0.0,0.0,0.0,0.0,0.0,0.0,0.0,0.0,0.0,0.0,0.0,0.0,0.0,0.0,0.0,0.0,0.0,0.0,0.0,0.0,0.0,0.0,0.0,0.0,0.0,0.0,0.0,0.0,0.0,0.0,0.0,0.0,0.0,0.0,0.0,0.0,0.0,0.1117,0.2289,0.3132,0.3577,0.3558,0.3555,0.355,0.3473,0.0,0.0,0.0,0.0,0.0,0.0,0.0,0.0,0.0,0.0,0.0,0.0,0.0,0.0,0.0,0.0,0.0,0.0,0.0,0.0,0.0,0.0,0.0,0.0,0.0,0.0,0.0,0.0,0.0,0.0,0.0,0.0,0.0,0.0,0.0,0.0,0.0,0.0,0.0,0.0,0.0,0.0,0.0,0.0,0.0,0.0,0.0,0.0,0.0,0.0,0.0,0.0,0.0,0.0,0.0,0.0,0.0,0.0,0.0,0.0,0.0,0.0,0.0,0.0,0.0,0.0,0.0,0.0,0.0,0.0,0.0,0.0,0.0,0.0,0.0,0.0,0.0,0.0,0.0,0.0,0.0,0.0,0.0,0.0,0.0,0.0,0.0,0.0,0.0,0.0,0.0,0.0,0.0,0.0,0.0,0.0,0.0,0.0,0.0,0.0,0.0,0.0,0.0,0.1903,0.1733,0.1283,0.2629,0.3591,0.3585,0.3585,0.3585,0.3585,0.3423,0.0,0.0,0.0,0.0,0.0,0.0,0.0,0.0,0.0,0.0,0.0,0.0,0.0,0.0,0.0,0.0,0.0,0.0,0.0,0.0,0.0,0.0,0.0,0.0,0.0,0.0,0.0,0.0,0.0,0.0,0.0,0.0,0.0,0.0,0.0,0.0,0.0,0.0,0.0,0.0,0.0,0.0,0.0,0.0,0.0,0.0,0.0,0.0,0.0,0.0,0.0,0.0,0.0,0.0,0.0,0.0,0.0,0.0,0.0,0.0,0.0,0.0,0.0,0.0,0.0,0.0,0.0,0.0,0.0,0.0,0.0,0.0,0.0,0.0,0.0,0.0,0.0,0.0,0.0,0.0,0.0,0.0,0.0,0.0,0.0,0.0,0.0,0.0,0.0,0.0,0.0,0.0,0.0,0.0,0.0,0.0,0.0,0.0,0.0,0.0,0.0,0.0,0.2477,0.2408,0.1006,0.2014,0.2742,0.2736,0.3299,0.3585,0.3585,0.3585,0.0,0.0,0.0,0.0,0.0,0.0,0.0,0.0,0.0,0.0,0.0,0.0,0.0,0.0,0.0,0.0,0.0,0.0,0.0,0.0,0.0,0.0,0.0,0.0,0.0,0.0,0.0,0.0,0.0,0.0,0.0,0.0,0.0,0.0,0.0,0.0,0.0,0.0,0.0,0.0,0.0,0.0,0.0,0.0,0.0,0.0,0.0,0.0,0.0,0.0,0.0,0.0,0.0,0.0,0.0,0.0,0.0,0.0,0.0,0.0,0.0,0.0,0.0,0.0,0.0,0.0,0.0,0.0,0.0,0.0,0.0,0.0,0.0,0.0,0.0,0.0,0.0,0.0,0.0,0.0,0.0,0.0,0.0,0.0,0.0,0.0,0.0,0.0,0.0,0.0,0.0,0.0,0.0,0.0,0.0,0.0,0.0,0.0,0.0,0.0,0.0,0.0,0.1826,0.3485,0.337,0.1506,0.0278,0.0278,0.2287,0.3585,0.3585,0.3585,0.0,0.0,0.0,0.0,0.0,0.0,0.0,0.0,0.0,0.0,0.0,0.0,0.0,0.0,0.0,0.0,0.0,0.0,0.0,0.0,0.0,0.0,0.0,0.0,0.0,0.0,0.0,0.0,0.0,0.0,0.0,0.0,0.0,0.0,0.0,0.0,0.0,0.0,0.0,0.0,0.0,0.0,0.0,0.0,0.0,0.0,0.0,0.0,0.0,0.0,0.0,0.0,0.0,0.0,0.0,0.0,0.0,0.0,0.0,0.0,0.0,0.0,0.0,0.0,0.0,0.0,0.0,0.0,0.0,0.0,0.0,0.0,0.0,0.0,0.0,0.0,0.0,0.0,0.0,0.0,0.0,0.0,0.0,0.0,0.0,0.0,0.0,0.0,0.0,0.0,0.0,0.0,0.0,0.0,0.0,0.0,0.0,0.0,0.0,0.0,0.0,0.0,0.2877,0.3577,0.3577,0.1423,0.0592,0.2135,0.3092,0.3579,0.3574,0.0,0.0,0.0,0.0,0.0,0.0,0.0,0.0,0.0,0.0,0.0,0.0,0.0,0.0,0.0,0.0,0.0,0.0,0.0,0.0,0.0,0.0,0.0,0.0,0.0,0.0,0.0,0.0,0.0,0.0,0.0,0.0,0.0,0.0,0.0,0.0,0.0,0.0,0.0,0.0,0.0,0.0,0.0,0.0,0.0,0.0,0.0,0.0,0.0,0.0,0.0,0.0,0.0,0.0,0.0,0.0,0.0,0.0,0.0,0.0,0.0,0.0,0.0,0.0,0.0,0.0,0.0,0.0,0.0,0.0,0.0,0.0,0.0,0.0,0.0,0.0,0.0,0.0,0.0,0.0,0.0,0.0,0.0,0.0,0.0,0.0,0.0,0.0,0.0,0.0,0.0,0.0,0.0,0.0,0.0,0.0,0.0,0.0,0.0,0.0,0.0,0.0,0.3497,0.3845,0.3822,0.3824,0.2334,0.2025,0.3699,0.3811,0.3757,0.3631,0.0,0.0,0.0,0.0,0.0,0.0,0.0,0.0,0.0,0.0,0.0,0.0,0.0,0.0,0.0,0.0,0.0,0.0,0.0,0.0,0.0,0.0,0.0,0.0,0.0,0.0,0.0,0.0,0.0,0.0,0.0,0.0,0.0,0.0,0.0,0.0,0.0,0.0,0.0,0.0,0.0,0.0,0.0,0.0,0.0,0.0,0.0,0.0,0.0,0.0,0.0,0.0,0.0,0.0,0.0,0.0,0.0,0.0,0.0,0.0,0.0,0.0,0.0,0.0,0.0,0.0,0.0,0.0,0.0,0.0,0.0,0.0,0.0,0.0,0.0,0.0,0.0,0.0,0.0,0.0,0.0,0.0,0.0,0.0,0.0,0.0,0.0,0.0,0.0,0.0,0.0,0.0,0.0,0.0,0.0,0.0,0.0,0.0,0.0,0.0,0.0,0.0,0.4185,0.4275,0.4317,0.4326,0.432,0.4317,0.4326,0.4317,0.4122,0.0,0.0,0.0,0.0,0.0,0.0,0.0,0.0,0.0,0.0,0.0,0.0,0.0,0.0,0.0,0.0,0.0,0.0,0.0,0.0,0.0,0.0,0.0,0.0,0.0,0.0,0.0,0.0,0.0,0.0,0.0,0.0,0.0,0.0,0.0,0.0,0.0,0.0,0.0,0.0,0.0,0.0,0.0,0.0,0.0,0.0,0.0,0.0,0.0,0.0,0.0,0.0,0.0,0.0,0.0,0.0,0.0,0.0,0.0,0.0,0.0,0.0,0.0,0.0,0.0,0.0,0.0,0.0,0.0,0.0,0.0,0.0,0.0,0.0,0.0,0.0,0.0,0.0,0.0,0.0,0.0,0.0,0.0,0.0,0.0,0.0,0.0,0.0,0.0,0.0,0.0,0.0,0.0,0.0,0.0,0.0,0.0,0.0,0.0,0.0,0.0,0.0,0.0,0.3919,0.4287,0.4327,0.433,0.4327,0.4327,0.433,0.431,0.4259,0.413,0.0,0.0,0.0,0.0,0.0,0.0,0.0,0.0,0.0,0.0,0.0,0.0,0.0,0.0,0.0,0.0,0.0,0.0,0.0,0.0,0.0,0.0,0.0,0.0,0.0,0.0,0.0,0.0,0.0,0.0,0.0,0.0,0.0,0.0,0.0,0.0,0.0,0.0,0.0,0.0,0.0,0.0,0.0,0.0,0.0,0.0,0.0,0.0,0.0,0.0,0.0,0.0,0.0,0.0,0.0,0.0,0.0,0.0,0.0,0.0,0.0,0.0,0.0,0.0,0.0,0.0,0.0,0.0,0.0,0.0,0.0,0.0,0.0,0.0,0.0,0.0,0.0,0.0,0.0,0.0,0.0,0.0,0.0,0.0,0.0,0.0,0.0,0.0,0.0,0.0,0.0,0.0,0.0,0.0,0.0,0.0,0.0,0.0,0.0,0.0,0.0,0.0,0.3907,0.4306,0.43,0.43,0.43,0.43,0.4295,0.4295,0.4449,0.4717,0.0,0.0,0.0,0.0,0.0,0.0,0.0,0.0,0.0,0.0,0.0,0.0,0.0,0.0,0.0,0.0,0.0,0.0,0.0,0.0,0.0,0.0,0.0,0.0,0.0,0.0,0.0,0.0,0.0,0.0,0.0,0.0,0.0,0.0,0.0,0.0,0.0,0.0,0.0,0.0,0.0,0.0,0.0,0.0,0.0,0.0,0.0,0.0,0.0,0.0,0.0,0.0,0.0,0.0,0.0,0.0,0.0,0.0,0.0,0.0,0.0,0.0,0.0,0.0,0.0,0.0,0.0,0.0,0.0,0.0,0.0,0.0,0.0,0.0,0.0,0.0,0.0,0.0,0.0,0.0,0.0,0.0,0.0,0.0,0.0,0.0,0.0,0.0,0.0,0.0,0.0,0.0,0.0,0.0,0.0,0.0,0.0,0.0,0.0,0.0,0.0,0.0,0.4043,0.4306,0.43,0.43,0.43,0.4298,0.4289,0.4353,0.4694,0.5379,0.0,0.0,0.0,0.0,0.0,0.0,0.0,0.0,0.0,0.0,0.0,0.0,0.0,0.0,0.0,0.0,0.0,0.0,0.0,0.0,0.0,0.0,0.0,0.0,0.0,0.0,0.0,0.0,0.0,0.0,0.0,0.0,0.0,0.0,0.0,0.0,0.0,0.0,0.0,0.0,0.0,0.0,0.0,0.0,0.0,0.0,0.0,0.0,0.0,0.0,0.0,0.0,0.0,0.0,0.0,0.0,0.0,0.0,0.0,0.0,0.2913,0.3029,0.0,0.0,0.0,0.0,0.0,0.0,0.0,0.0,0.0,0.0,0.0,0.0,0.0,0.0,0.0,0.0,0.0,0.0,0.0,0.0,0.0,0.0,0.0,0.0,0.0,0.0,0.0,0.0,0.0,0.0,0.0,0.0,0.0,0.0,0.0,0.0,0.0,0.0,0.0,0.0,0.4043,0.4306,0.43,0.43,0.43,0.4298,0.4289,0.4831,0.5239,0.5379,0.5272,0.0,0.0,0.0,0.0,0.0,0.0,0.0,0.0,0.0,0.0,0.0,0.0,0.0,0.0,0.0,0.0,0.0,0.0,0.0,0.0,0.0,0.0,0.0,0.0,0.0,0.0,0.0,0.0,0.0,0.0,0.0,0.0,0.0,0.0,0.0,0.0,0.0,0.0,0.0,0.0,0.0,0.0,0.0,0.0,0.0,0.0,0.0,0.0,0.0,0.0,0.0,0.0,0.0,0.0,0.0,0.0,0.0,0.0,0.0,0.3564,0.3405,0.0,0.0,0.0,0.0,0.0,0.0,0.0,0.0,0.0,0.0,0.0,0.0,0.0,0.0,0.0,0.0,0.0,0.0,0.0,0.0,0.0,0.0,0.0,0.0,0.0,0.0,0.0,0.0,0.0,0.0,0.0,0.0,0.0,0.0,0.0,0.0,0.0,0.0,0.0,0.0,0.3228,0.3966,0.4367,0.4498,0.4361,0.4289,0.4281,0.4619,0.5027,0.5369,0.5432,0.0,0.0,0.0,0.0,0.0,0.0,0.0,0.0,0.0,0.0,0.0,0.0,0.0,0.0,0.0,0.0,0.0,0.0,0.0,0.0,0.0,0.0,0.0,0.0,0.0,0.0,0.0,0.0,0.0,0.0,0.0,0.0,0.0,0.0,0.0,0.0,0.0,0.0,0.0,0.0,0.0,0.0,0.0,0.0,0.0,0.0,0.0,0.0,0.0,0.0,0.0,0.0,0.0,0.4094,0.4307,0.433,0.4319,0.4316,0.4253,0.3877,0.3703,0.3747,0.3747,0.0,0.0,0.0,0.0,0.0,0.0,0.0,0.0,0.0,0.0,0.0,0.0,0.0,0.0,0.0,0.0,0.0,0.0,0.0,0.0,0.0,0.0,0.428,0.3893,0.3962,0.4002,0.3783,0.0,0.0,0.0,0.0,0.0,0.0,0.0,0.0,0.0,0.0,0.0,0.2415,0.3625,0.4431,0.4628,0.4492,0.4417,0.4408,0.4475,0.4746,0.5362,0.5428,0.5425,0.0,0.0,0.0,0.0,0.0,0.0,0.0,0.0,0.0,0.0,0.0,0.0,0.0,0.0,0.0,0.0,0.0,0.0,0.0,0.0,0.0,0.0,0.0,0.0,0.0,0.0,0.0,0.0,0.0,0.0,0.0,0.0,0.0449,-0.0673,0.0,0.0,0.0,0.0,0.0,0.0,0.0,0.0,0.0,0.0,0.0,0.0,0.0,0.4393,0.3712,0.3738,0.3895,0.4188,0.4284,0.4314,0.427,0.427,0.427,0.427,0.427,0.0,0.4186,0.4186,0.0,0.0,0.0,0.0,0.0,0.0,0.0,0.0,0.0,0.0,0.0,0.0,0.0,0.0,0.0,0.0,0.0,0.0,0.0,0.0,0.0,0.0,0.4671,0.4535,0.448,0.4489,0.4278,0.3482,0.2618,0.2012,0.1676,0.1408,0.0,0.0,0.0,0.0,0.0,0.0,0.2746,0.3887,0.4561,0.4625,0.4694,0.4758,0.4749,0.5087,0.5292,0.5362,0.5428,0.5415,0.5384,0.538,0.0,0.0,0.0,0.0,0.0,0.0,0.0,0.0,0.0,0.0,0.0,0.0,0.0,0.0,0.0,0.0,0.0,0.0,0.0,0.0,0.0,0.0,0.0,0.0,0.0,0.0,0.0,0.0,0.0,0.0909,0.0739,0.0295,-0.0873,-0.1623,0.0,0.0,0.0,0.0,0.0,0.0,0.0,0.0,0.0,0.0646,0.1747,0.2233,0.1896,0.35,0.445,0.4711,0.4692,0.4673,0.4726,0.4726,0.4726,0.4726,0.4726,0.4678,0.4684,0.4684,0.4706,0.4641,0.0,0.0,0.0,0.0,0.4528,0.4589,0.4781,0.5172,0.5631,0.5631,0.0,0.0,0.0,0.0,0.0,0.0,0.0,0.48,0.4922,0.4996,0.5054,0.4984,0.4984,0.4981,0.4914,0.4493,0.3966,0.324,0.2748,0.248,0.2688,0.1745,0.0,0.0,0.0,0.3434,0.3986,0.4593,0.5054,0.5126,0.4915,0.4866,0.5138,0.5272,0.5428,0.5428,0.5428,0.5411,0.5377,0.6881,0.769,0.0,0.0,0.0,0.0,0.0,0.0,0.0,0.0,0.0,0.0,0.0,0.0,0.0,0.0,0.0,0.0,0.0,0.0,0.0,0.0,0.0,0.0,0.0,0.0,0.0,0.0,0.0,0.0,0.0759,0.082,0.0922,-0.0121,-0.054,0.0,0.0,0.0,0.0,0.0,0.0,0.0323,0.084,0.1316,0.1779,0.1231,0.1114,0.1447,0.3433,0.4624,0.4997,0.5061,0.5092,0.5092,0.5124,0.5066,0.5066,0.5066,0.5066,0.513,0.5,0.5036,0.5017,0.4804,0.5029,0.543,0.577,0.597,0.6237,0.6439,0.6435,0.6229,0.6229,0.5819,0.5338,0.5348,0.0,0.0,0.0,0.0,0.5218,0.5285,0.5364,0.5444,0.5375,0.5375,0.5375,0.53,0.53,0.517,0.4631,0.4039,0.3766,0.433,0.3152,0.0,0.2877,0.4189,0.5029,0.5023,0.5173,0.5375,0.5522,0.5277,0.5212,0.5358,0.5433,0.5416,0.5416,0.5382,0.5411,0.5377,0.8058,0.9509,0.9503,0.0,0.0,0.0,0.0,0.0,0.0,0.0,0.0,0.0,0.0,0.0,0.0,0.0,0.0,0.0,0.0,0.0,0.0,0.0,0.0,0.0,0.0,0.0,0.0,0.0,0.0,0.0,0.0,0.0,0.0864,0.074,0.0,0.0,0.0,0.0,0.1005,0.1099,0.1127,0.1156,0.1157,0.1955,0.3487,0.3559,0.4145,0.5318,0.5069,0.4977,0.498,0.5291,0.5405,0.5408,0.5363,0.5416,0.5416,0.5416,0.5416,0.538,0.5072,0.5015,0.5009,0.5009,0.5953,0.7343,0.7414,0.7904,0.8528,0.8533,0.8089,0.75,0.75,0.6572,0.5499,0.5499,0.5353,0.0,0.0,0.5506,0.5509,0.5721,0.5796,0.5731,0.5519,0.5522,0.545,0.53,0.53,0.5297,0.5284,0.5206,0.5138,0.4928,0.0,0.4856,0.5372,0.5522,0.5525,0.5294,0.5372,0.5522,0.5522,0.5728,0.5789,0.5421,0.5374,0.5434,0.5434,0.5373,0.5411,0.5377,0.8032,0.9498,0.9498,0.9373,0.0,0.0,0.0,0.0,0.0,0.0,0.0,0.0,0.0,0.0,0.0,0.0,0.0,0.0,0.0,0.0,0.0,0.0,0.0,0.0,0.0,0.0,0.0,0.0,0.0,0.0,0.0,0.0,0.1067,0.0859,0.0,0.1099,0.1043,0.1053,0.1206,0.1216,0.1227,0.1166,0.1239,0.2057,0.3736,0.5017,0.5714,0.5876,0.5439,0.5253,0.5261,0.5347,0.5471,0.5559,0.5604,0.5624,0.5624,0.5538,0.5455,0.5524,0.5984,0.6165,0.6157,0.5901,0.6543,0.7671,0.7829,0.8123,0.8491,0.8644,0.8496,0.8314,0.818,0.7479,0.658,0.6471,0.6083,0.5659,0.5659,0.5729,0.5805,0.5875,0.602,0.6098,0.6023,0.6026,0.6023,0.5947,0.5947,0.5947,0.5947,0.5571,0.5303,0.5159,0.5159,0.5234,0.5381,0.5603,0.5731,0.5651,0.5888,0.6026,0.6026,0.6088,0.6103,0.6026,0.596,0.5832,0.5451,0.5398,0.5373,0.5425,0.6359,0.7702,0.945,0.9472,0.974,0.0,0.0,0.0,0.0,0.0,0.0,0.0,0.0,0.0,0.0,0.0,0.0,0.0,0.0,0.0,0.0,0.0,0.0,0.0,0.0,0.0,0.0,0.0,0.0,0.0,0.104,0.1055,0.1183,0.0975,0.0983,0.1163,0.1166,0.117,0.1181,0.1256,0.1265,0.1211,0.159,0.2448,0.3843,0.5422,0.6237,0.6003,0.5744,0.5529,0.5368,0.5412,0.5515,0.5605,0.5647,0.5667,0.5667,0.5579,0.5579,0.5573,0.6117,0.6629,0.6941,0.7009,0.7564,0.8498,0.8659,0.9053,0.9446,0.9058,0.8902,0.8801,0.8128,0.7476,0.6988,0.6891,0.647,0.6017,0.5969,0.603,0.6108,0.6108,0.6183,0.6338,0.6338,0.6338,0.6338,0.6338,0.6338,0.6338,0.6338,0.5944,0.5661,0.5661,0.5661,0.5587,0.551,0.5741,0.595,0.5875,0.6116,0.6338,0.6338,0.6325,0.6266,0.6266,0.6271,0.6136,0.5745,0.5534,0.5365,0.5369,0.6273,0.7654,0.9468,0.9713,1.0002,1.0213,0.0,0.0,0.0,0.0,0.0,0.0,0.0,0.0,0.0,0.0,0.0,0.0,0.0,0.0,0.0,0.0,0.0,0.0,0.0,0.0,0.0,0.0,0.0,0.1084,0.1104,0.1123,0.1194,0.1222,0.1168,0.117,0.117,0.1183,0.1214,0.1216,0.1242,0.1382,0.2195,0.3115,0.4022,0.5027,0.5699,0.604,0.6043,0.5797,0.5382,0.5499,0.5556,0.5475,0.5684,0.5738,0.5738,0.5741,0.5744,0.5735,0.5616,0.6251,0.7257,0.8156,0.8973,0.9705,1.0034,1.0772,1.1433,0.9872,0.938,0.9059,0.7353,0.6781,0.6671,0.6606,0.6561,0.6451,0.6315,0.6274,0.6274,0.6274,0.6274,0.6274,0.6274,0.6274,0.6274,0.6274,0.6274,0.6274,0.6345,0.6268,0.6345,0.6338,0.6338,0.618,0.5941,0.6103,0.0,0.5941,0.6103,0.6338,0.6338,0.6338,0.6338,0.6338,0.628,0.6268,0.6336,0.5781,0.5458,0.5596,0.8112,0.9558,0.9501,1.0192,1.0276,0.9539,0.0,0.0,0.0,0.0,0.0,0.0,0.0,0.0,0.0,0.0,0.0,0.0,0.0,0.0,0.0,0.0,0.0,0.0,0.0,0.0,0.0,0.1116,0.1118,0.111,0.1135,0.1162,0.1184,0.1194,0.1217,0.1261,0.1265,0.1278,0.1308,0.1311,0.1563,0.2329,0.2661,0.3499,0.5022,0.5445,0.592,0.6433,0.6538,0.6328,0.5891,0.5928,0.5857,0.5687,0.5803,0.5855,0.586,0.6132,0.6264,0.6354,0.7145,0.8061,0.8709,0.7758,0.8086,0.915,0.9877,1.0858,1.176,1.1347,1.0772,1.0115,0.9629,0.8574,0.7593,0.7542,0.7126,0.663,0.659,0.658,0.658,0.658,0.658,0.658,0.658,0.658,0.658,0.658,0.658,0.6549,0.6434,0.6413,0.638,0.6278,0.6338,0.6261,0.618,0.6261,0.6261,0.618,0.6261,0.6338,0.6338,0.6338,0.6338,0.6338,0.63,0.6294,0.6307,0.6169,0.7118,0.946,1.023,1.029,0.9519,1.0233,1.0524,0.0,0.0,0.0,0.0,0.0,0.0,0.0,0.0,0.0,0.0,0.0,0.0,0.0,0.0,0.0,0.0,0.0,0.0,0.0,0.0,0.0,0.0,0.1142,0.1164,0.1176,0.1183,0.1197,0.1227,0.1242,0.1269,0.1317,0.1322,0.1328,0.1262,0.1263,0.1774,0.2722,0.3147,0.4095,0.5507,0.601,0.6402,0.6666,0.6811,0.6703,0.6343,0.64,0.6335,0.625,0.6319,0.6351,0.6357,0.6523,0.6929,0.7392,0.8052,0.9011,0.9786,0.0,0.0,0.0,0.0,1.1657,1.2164,1.1752,1.1327,1.0736,1.0398,0.9312,0.8135,0.8058,0.7457,0.6783,0.6719,0.6702,0.6702,0.6702,0.6702,0.6702,0.6702,0.6702,0.6702,0.6702,0.6702,0.6675,0.6583,0.6566,0.0,0.6461,0.6342,0.6261,0.618,0.6257,0.6261,0.618,0.6257,0.6338,0.6338,0.6338,0.6338,0.6338,0.6338,0.0,0.0,0.0,0.9321,1.1508,1.1275,0.0,0.0,0.0,1.1301,1.1343,1.0834,0.0,0.0,0.9978,0.9931,0.0,0.0,0.0,0.0,0.0,0.0,0.0,0.0,0.0,0.0,0.0,0.0,0.0,0.0,0.0,0.0,0.1179,0.1228,0.1258,0.1242,0.1237,0.1264,0.1292,0.132,0.135,0.1437,0.1438,0.1442,0.1611,0.2051,0.3044,0.3911,0.0,0.0,0.0,0.7081,0.6907,0.6963,0.6942,0.6752,0.6876,0.6938,0.6938,0.6954,0.696,0.696,0.6979,0.7543,0.8569,0.8569,0.9393,1.0648,1.1,1.1684,1.2365,1.2531,1.2703,1.2709,1.1841,0.0,0.0,1.04,0.9441,0.8715,0.8524,0.7881,0.7179,0.6954,0.6916,0.6916,0.6749,0.6749,0.6749,0.6749,0.6739,0.6725,0.6725,0.6712,0.6695,0.6678,0.6675,0.6668,0.6654,0.6461,0.6224,0.6045,0.6203,0.6197,0.5944,0.618,0.6338,0.6338,0.6338,0.0,0.6338,0.6338,0.6335,0.6331,0.8947,1.1011,1.2104,1.1446,1.1508,1.2263,1.2318,1.2317,1.2268,1.125,1.0786,1.0779,1.0766,1.0792,0.0,0.0,0.0,0.0,0.0,0.0,0.0,0.0,0.0,0.0,0.0,0.0,0.0,0.0,0.0,0.1264,0.1301,0.1259,0.129,0.131,0.1324,0.133,0.1336,0.135,0.1379,0.2071,0.252,0.2565,0.3271,0.4158,0.5063,0.5328,0.5871,0.6786,0.7171,0.7326,0.7329,0.7386,0.7366,0.7079,0.7108,0.0,0.6941,0.7047,0.7093,0.7099,0.7315,0.8048,0.9116,0.9311,1.0377,1.1817,1.1129,1.1384,1.2158,1.2158,1.271,1.3357,1.3177,1.262,1.1855,1.1483,1.0716,0.9883,0.9666,0.9434,0.0,0.836,0.8182,0.8009,0.7229,0.7054,0.7054,0.7054,0.6966,0.6885,0.6885,0.6787,0.6664,0.6539,0.6515,0.6481,0.6366,0.6495,0.6573,0.6447,0.643,0.639,0.6274,0.6261,0.6338,0.6338,0.6338,0.6338,0.6338,0.6338,0.6325,0.6297,0.6912,0.8477,1.1218,1.1212,1.1481,1.2278,1.2324,1.2274,1.2269,1.21,1.1945,1.1938,1.1964,1.1936,0.0,0.0,0.0,0.0,0.0,0.0,0.0,0.0,0.0,0.0,0.0,0.2882,0.1921,0.0,0.1873,0.1383,0.1338,0.1457,0.2009,0.2037,0.1881,0.1369,0.1369,0.1553,0.2113,0.2557,0.3099,0.3575,0.4022,0.4734,0.563,0.5773,0.6256,0.7255,0.7407,0.7485,0.7485,0.7631,0.7607,0.7512,0.7584,0.7524,0.7434,0.7501,0.7821,0.8405,0.8492,0.9509,1.0974,1.1658,1.2469,1.3222,1.2714,1.2614,1.2768,1.2768,1.3138,1.3513,1.3513,1.3235,1.2746,1.262,1.1945,1.1196,1.1074,1.0329,0.9435,0.8989,0.8387,0.7878,0.7344,0.72,0.7139,0.7139,0.7085,0.7034,0.7034,0.6919,0.6793,0.6715,0.6637,0.6586,0.6593,0.6719,0.6712,0.6413,0.6427,0.6447,0.6376,0.6434,0.6451,0.6376,0.6366,0.6335,0.6268,0.6321,0.6297,0.6263,0.7836,0.9611,1.164,1.1706,1.1909,1.2257,1.2311,1.2311,1.2328,1.2328,1.2328,1.2322,1.2264,1.2281,0.0,0.0,0.0,0.0,0.0,0.0,0.0,0.499,0.4691,0.4069,0.4678,0.4947,0.3507,0.3008,0.2626,0.1969,0.17,0.1919,0.2934,0.3045,0.2792,0.2095,0.1921,0.2285,0.3129,0.3314,0.3758,0.4556,0.4734,0.5188,0.6022,0.6113,0.6548,0.7414,0.7563,0.7641,0.7641,0.7784,0.7855,0.7858,0.798,0.8038,0.8038,0.8237,0.8825,0.9608,0.9998,1.117,1.2829,1.3902,1.4298,1.4298,1.4298,1.4039,1.367,1.367,1.367,1.367,1.367,1.367,1.3658,1.3604,1.3026,1.2453,1.2409,1.1293,0.9912,0.9545,0.879,0.7956,0.7506,0.7322,0.7231,0.7231,0.7207,0.7183,0.7183,0.7071,0.6963,0.6932,0.6827,0.6773,0.6868,0.6885,0.6773,0.6441,0.6488,0.6549,0.6519,0.6624,0.6654,0.6532,0.6431,0.6371,0.6305,0.6311,0.6572,0.7167,0.9669,1.1433,1.226,1.2311,1.2325,1.2325,1.2311,1.2305,1.2305,1.2305,1.2305,1.2305,1.2305,1.2311,0.4131,0.2701,0.155,0.2555,0.1986,0.1603,0.0,0.3405,0.3467,0.4403,0.4267,0.404,0.45,0.3509,0.2899,0.3551,0.3099,0.2932,0.3892,0.4134,0.4096,0.4007,0.4007,0.4011,0.4109,0.4914,0.5453,0.5542,0.634,0.693,0.7158,0.7269,0.7339,0.757,0.7712,0.7787,0.7787,0.7936,0.8014,0.8014,0.8031,0.8038,0.8038,0.9019,0.9509,0.9702,1.156,1.2533,1.2829,1.3902,1.4298,1.4298,1.4298,1.4262,1.4208,1.4208,1.4208,1.4208,1.4208,1.4208,1.4171,1.3936,1.3764,1.363,1.3397,1.3144,1.2683,1.092,1.0352,0.9872,0.8034,0.756,0.755,0.755,0.7444,0.7346,0.7346,0.7224,0.7078,0.6953,0.6915,0.6865,0.6746,0.6725,0.6756,0.6841,0.6868,0.6827,0.6605,0.6688,0.6695,0.6761,0.6675,0.66,0.6334,0.6321,0.7546,1.0402,1.0911,1.1428,1.2277,1.2325,1.2305,1.2305,1.2305,1.2305,1.2305,1.2305,1.2305,1.2305,1.2305,1.2305,0.2765,0.2385,0.2204,0.4423,0.4297,0.387,0.4722,0.4833,0.4818,0.5325,0.5235,0.5017,0.5007,0.4557,0.4087,0.411,0.385,0.3913,0.493,0.5063,0.5359,0.5891,0.5891,0.5714,0.5181,0.5453,0.5897,0.6428,0.6874,0.717,0.7234,0.7322,0.74,0.7465,0.7611,0.7689,0.7689,0.775,0.7784,0.7784,0.835,0.8538,0.8634,0.9581,1.0342,1.1005,1.2516,1.3176,1.3176,1.3653,1.3839,1.3839,1.3839,1.3839,1.3882,1.4183,1.4298,1.4298,1.4298,1.4298,1.428,1.4171,1.4135,1.4117,1.4002,1.3491,1.2819,1.2057,1.1293,1.0632,0.9793,0.9063,0.8528,0.8528,0.8013,0.7506,0.7506,0.7383,0.7258,0.7197,0.7115,0.7058,0.7088,0.7264,0.7316,0.7202,0.7007,0.682,0.6753,0.682,0.7093,0.759,0.7062,0.6955,0.7645,0.8541,0.9875,1.1678,1.1809,1.1945,1.2267,1.2318,1.2312,1.2312,1.2312,1.2312,1.2312,1.2312,1.2312,1.2312,1.2312,1.2312,0.2248,0.2638,0.2901,0.5124,0.5437,0.5307,0.5659,0.5689,0.5821,0.5996,0.6095,0.593,0.5583,0.5325,0.5075,0.49,0.472,0.4872,0.5923,0.6054,0.634,0.7051,0.7139,0.6874,0.6163,0.6074,0.634,0.7051,0.7139,0.7156,0.7204,0.7312,0.739,0.7434,0.7543,0.76,0.76,0.76,0.76,0.76,0.852,0.8979,0.9072,1.0283,1.139,1.2403,1.3144,1.3513,1.3513,1.3513,1.3513,1.3513,1.3513,1.3513,1.3562,1.4042,1.4129,1.4195,1.4268,1.4298,1.4298,1.4298,1.4298,1.4298,1.4298,1.3806,1.3125,1.3244,1.2427,1.1512,1.1326,1.0645,0.9978,0.9883,0.9321,0.8744,0.8604,0.8586,0.8467,0.8378,0.8255,0.8209,0.8426,0.8344,0.8215,0.8109,0.7555,0.7243,0.7578,0.7983,0.8138,0.7979,0.7712,0.7745,0.8256,1.0503,1.2185,1.2743,1.2803,1.279,1.279,1.2778,1.2771,1.2771,1.2771,1.2771,1.2771,1.2771,1.2771,1.2771,1.2771,1.281,0.3795,0.4008,0.3274,0.4,0.3997,0.3991,0.4819,0.5061,0.5306,0.6096,0.6254,0.6257,0.6264,0.5586,0.5345,0.6241,0.5889,0.5798,0.6761,0.6964,0.7051,0.7139,0.7139,0.7051,0.7051,0.7051,0.7051,0.7139,0.7139,0.7207,0.7356,0.737,0.7441,0.7587,0.7597,0.76,0.76,0.76,0.76,0.76,0.852,0.8979,0.9072,1.1017,1.2403,1.3423,1.3513,1.3513,1.3513,1.3513,1.3513,1.3513,1.3513,1.3513,1.3519,1.3738,1.3805,1.3854,1.4208,1.4298,1.4298,1.4298,1.4298,1.4298,1.4298,1.4298,1.4316,1.4594,1.396,1.2818,1.2037,1.1833,1.1736,1.1541,1.1638,1.1676,1.1086,1.1213,1.1263,1.076,1.0677,1.0761,1.0944,1.0089,0.9593,0.9911,0.8578,0.8147,0.9651,1.0367,0.9826,0.7357,0.8759,0.905,0.7296,1.1399,1.3985,1.4064,1.4043,1.4029,1.4029,1.4029,1.4029,1.4029,1.4029,1.4029,1.4029,1.4029,1.4029,1.4029,1.4029,1.409,0.2807,0.4042,0.4872,0.5455,0.5475,0.5493,0.5797,0.5832,0.5944,0.6257,0.6338,0.6288,0.6383,0.6198,0.6099,0.6525,0.6536,0.6548,0.683,0.7052,0.7118,0.7129,0.7139,0.7139,0.7139,0.7139,0.7139,0.7139,0.7139,0.7163,0.7214,0.7217,0.7241,0.7295,0.7295,0.7295,0.7295,0.7295,0.7562,0.8188,0.9789,1.0848,1.1465,1.2085,1.2621,1.2976,1.2976,1.2976,1.2976,1.2976,1.2976,1.2976,1.2976,1.2976,1.3,1.3087,1.3112,1.3158,1.3993,1.4346,1.4276,1.4345,1.4298,1.4298,1.4298,1.4298,1.44,1.4731,1.4291,1.3838,1.3744,1.3034,1.2341,1.2248,1.1781,1.1288,1.112,1.1198,1.1149,1.1005,1.098,1.098,1.1071,1.0582,1.0081,0.9822,0.8314,0.7869,0.9692,1.1196,1.1247,0.9212,0.8402,0.878,1.069,1.2868,1.4103,1.409,1.4076,1.4076,1.4076,1.4076,1.4076,1.4076,1.4076,1.4076,1.4076,1.4076,1.4076,1.4076,1.4076,1.4124,0.214,0.3841,0.5304,0.5667,0.6043,0.6271,0.6264,0.6338,0.6244,0.619,0.6179,0.619,0.6224,0.6278,0.6346,0.6444,0.6627,0.6815,0.684,0.7027,0.7128,0.7138,0.7109,0.7139,0.7139,0.7139,0.7139,0.7139,0.7139,0.7139,0.7139,0.7139,0.7139,0.7139,0.7139,0.7228,0.7577,0.7577,0.8277,0.9501,1.0712,1.1757,1.2705,1.2705,1.2705,1.2705,1.279,1.2875,1.2875,1.2875,1.296,1.296,1.2875,1.2869,1.2887,1.2701,1.2667,1.2832,1.3471,1.3964,1.4297,1.4259,1.4309,1.4309,1.4309,1.4309,1.4303,1.4578,1.4545,1.4412,1.459,1.4079,1.3387,1.3296,1.2922,1.2439,1.2265,1.2243,1.231,1.2221,1.2204,1.2232,1.2322,1.2411,1.2128,1.1284,1.0334,1.0153,1.1794,1.2562,1.2569,1.1525,1.0005,1.0177,1.2983,1.373,1.4102,1.4088,1.4088,1.4088,1.4088,1.4088,1.4088,1.4088,1.4088,1.4088,1.4088,1.4088,1.4088,1.4088,1.4088,1.4088,0.2271,0.3619,0.4618,0.4766,0.555,0.6257,0.6251,0.6247,0.6207,0.6051,0.6017,0.5973,0.5827,0.5922,0.6017,0.6017,0.6261,0.6614,0.6788,0.6895,0.7004,0.7175,0.7138,0.7139,0.7139,0.7139,0.7139,0.7139,0.7139,0.7139,0.7139,0.7139,0.7139,0.7228,0.7228,0.7665,0.8627,0.8627,0.9584,1.1327,1.1413,1.1843,1.2705,1.2705,1.2705,1.279,1.2985,1.3162,1.3162,1.3345,1.3436,1.3436,1.3247,1.3241,1.3149,1.2863,1.2766,1.2759,1.2796,1.3471,1.4269,1.4263,1.4256,1.4256,1.4256,1.4256,1.425,1.4302,1.4475,1.4661,1.4738,1.4827,1.4917,1.4641,1.4731,1.4843,1.4193,1.4315,1.4416,1.4142,1.4088,1.4182,1.4556,1.5253,1.5356,1.4244,1.4135,1.4497,1.5555,1.4382,1.3597,1.4155,1.3311,1.3151,1.4017,1.4088,1.4088,1.4088,1.4088,1.4088,1.4088,1.4088,1.4088,1.4088,1.4088,1.4088,1.4088,1.4088,1.4088,1.4088,1.4088,1.4088,0.4635,0.5143,0.5085,0.5709,0.6103,0.623,0.6115,0.6088,0.6044,0.5891,0.5861,0.5847,0.581,0.5981,0.6085,0.6085,0.6466,0.679,0.6765,0.7219,0.7385,0.725,0.7316,0.7323,0.7139,0.7139,0.7143,0.7415,0.7415,0.7415,0.7415,0.7415,0.776,0.8623,0.854,0.8973,1.0009,1.0794,1.1322,1.1843,1.2534,1.2966,1.3222,1.3222,1.3222,1.3234,1.3528,1.3616,1.3629,1.3932,1.3913,1.3711,1.3622,1.3319,1.2827,1.2732,1.3123,1.3729,1.3764,1.3893,1.416,1.418,1.4153,1.4153,1.4153,1.4153,1.4147,1.4193,1.4237,1.446,1.4838,1.4663,1.4309,1.4223,1.4309,1.4289,1.4123,1.411,1.4175,1.4102,1.4088,1.4115,1.4273,1.4453,1.4415,1.4124,1.4124,1.417,1.4482,1.4222,1.4322,1.5283,1.4358,1.3881,1.4088,1.4088,1.4088,1.4088,1.4088,1.4088,1.4088,1.4088,1.4088,1.4088,1.4088,1.4088,1.4088,1.4088,1.4088,1.4088,1.4088,1.4088,0.4902,0.5126,0.5174,0.578,0.6022,0.6135,0.6122,0.605,0.5964,0.5739,0.5775,0.5755,0.562,0.5737,0.5923,0.599,0.6321,0.6652,0.6829,0.7205,0.7394,0.7392,0.7386,0.7425,0.7489,0.7319,0.7584,0.8197,0.7768,0.7595,0.768,0.8025,0.8544,0.9148,0.9492,1.0188,1.1225,1.218,1.2613,1.2619,1.3137,1.3398,1.3398,1.3519,1.3576,1.3589,1.3963,1.4166,1.4186,1.4436,1.4398,1.4193,1.4289,1.3891,1.3387,1.3885,1.4392,1.4894,1.488,1.4877,1.4783,1.4257,1.4109,1.4109,1.4109,1.4109,1.4103,1.4084,1.4155,1.4229,1.452,1.4488,1.4369,1.4369,1.4462,1.4436,1.4302,1.4282,1.4334,1.4115,1.4088,1.4088,1.4088,1.4088,1.4088,1.4088,1.4088,1.4064,1.413,1.4063,1.4316,1.4986,1.4491,1.4123,1.4095,1.4088,1.4088,1.4088,1.4088,1.4088,1.4088,1.4088,1.4088,1.4088,1.4117,1.4084,1.4084,1.411,1.4076,1.4076,1.4076,1.4076,0.4407,0.4765,0.5263,0.5607,0.5918,0.6098,0.6296,0.6175,0.6022,0.5658,0.5689,0.5716,0.5452,0.5538,0.5628,0.5758,0.6069,0.6485,0.6881,0.7026,0.7312,0.7667,0.7421,0.7415,0.7837,0.7768,0.8113,0.9148,0.8456,0.8025,0.8288,0.9065,0.9492,0.9575,1.0524,1.1483,1.2272,1.3052,1.3483,1.3483,1.3483,1.3483,1.3489,1.3771,1.3892,1.3911,1.4506,1.474,1.474,1.4973,1.4973,1.487,1.507,1.4773,1.4463,1.5479,1.5798,1.5798,1.5798,1.5798,1.5673,1.4674,1.4353,1.4353,1.4353,1.4353,1.4353,1.4353,1.4353,1.4353,1.4353,1.4552,1.4757,1.4854,1.4957,1.4897,1.4636,1.465,1.4549,1.4188,1.4108,1.4088,1.4088,1.4088,1.4088,1.4088,1.4088,1.4088,1.4088,1.4111,1.4077,1.4108,1.4117,1.4071,1.4108,1.4088,1.4088,1.4088,1.4088,1.4088,1.4088,1.4088,1.4088,1.4088,1.4137,1.4169,1.4362,1.4324,1.4339,1.4339,1.4339,1.4339,0.5935,0.6268,0.6409,0.6588,0.6612,0.6445,0.6379,0.6224,0.5996,0.5691,0.5589,0.5586,0.5432,0.5512,0.5659,0.5866,0.6162,0.6546,0.6905,0.723,0.7493,0.7652,0.7762,0.7849,0.7929,0.8544,0.9061,0.9492,1.0096,1.0443,1.0443,1.0616,1.1042,1.1724,1.2863,1.3561,1.3737,1.3913,1.3997,1.3997,1.3997,1.3997,1.401,1.4303,1.4342,1.4375,1.4993,1.5226,1.5245,1.5578,1.5678,1.5577,1.5678,1.5577,1.5571,1.5685,1.5785,1.5785,1.5785,1.5785,1.5805,1.5534,1.5473,1.5473,1.5473,1.5473,1.5473,1.5473,1.5473,1.5473,1.5473,1.5259,1.506,1.5473,1.5266,1.504,1.5095,1.4892,1.4603,1.4163,1.4064,1.4088,1.4088,1.4088,1.4088,1.4088,1.4088,1.4088,1.4088,1.4128,1.4135,1.4088,1.4128,1.4135,1.4088,1.4088,1.4088,1.4088,1.4088,1.4088,1.4088,1.4088,1.4088,1.4088,1.4135,1.4549,1.5524,1.5483,1.5511,1.5511,1.5511,1.5511,0.6542,0.6702,0.6791,0.6945,0.6753,0.6455,0.6428,0.626,0.6049,0.5837,0.5815,0.5885,0.569,0.562,0.5683,0.5888,0.6431,0.6781,0.6728,0.7411,0.7821,0.7632,0.8139,0.8543,0.882,0.9607,1.0443,1.1144,1.1655,1.1655,1.1139,1.166,1.226,1.3203,1.3822,1.4088,1.4088,1.4088,1.4088,1.4088,1.4088,1.4168,1.4322,1.4616,1.483,1.5003,1.5431,1.5618,1.5631,1.5772,1.5832,1.5832,1.5832,1.5832,1.5832,1.5818,1.5812,1.5812,1.5812,1.5798,1.5839,1.581,1.5828,1.5828,1.5828,1.5828,1.5828,1.5828,1.5828,1.5828,1.5828,1.5623,1.5517,1.5729,1.5606,1.5393,1.5497,1.5163,1.4703,1.4161,1.4117,1.4071,1.4108,1.4088,1.4088,1.4088,1.4088,1.4088,1.4088,1.4088,1.4088,1.4088,1.4088,1.4088,1.4088,1.4088,1.4088,1.4088,1.4088,1.4088,1.4088,1.4088,1.4088,1.4088,1.4137,1.4401,1.4905,1.495,1.4932,1.4932,1.4932,1.4932,0.6659,0.6788,0.6912,0.7067,0.6764,0.6436,0.6441,0.6344,0.6214,0.602,0.6083,0.6148,0.5954,0.5752,0.5686,0.5888,0.653,0.6907,0.6676,0.7597,0.8199,0.7986,0.882,0.9476,0.9947,1.0836,1.174,1.2619,1.2875,1.2705,1.1929,1.2619,1.3313,1.4088,1.4088,1.4088,1.4088,1.4088,1.4088,1.4088,1.4088,1.4242,1.4529,1.483,1.5124,1.5411,1.5705,1.5832,1.5832,1.5832,1.5825,1.5825,1.5825,1.5818,1.5805,1.5792,1.5893,1.6103,1.6103,1.5974,1.5839,1.6021,1.594,1.5825,1.5832,1.5832,1.5832,1.5832,1.5832,1.5832,1.5832,1.5832,1.5832,1.5825,1.5765,1.5797,1.5797,1.546,1.499,1.4553,1.43,1.4056,1.4117,1.4115,1.4075,1.4075,1.4082,1.4082,1.4075,1.4082,1.4088,1.4088,1.4088,1.4088,1.4088,1.4088,1.4088,1.4088,1.4088,1.4088,1.4088,1.4088,1.4088,1.4088,1.4117,1.413,1.413,1.407,1.4078,1.4078,1.4078,1.4078,0.6516,0.6656,0.6717,0.6929,0.6859,0.6648,0.67,0.655,0.635,0.6214,0.621,0.6148,0.5954,0.5888,0.5888,0.5888,0.6098,0.6556,0.7265,0.7897,0.8548,0.9401,1.0084,1.0539,1.0783,1.1866,1.2619,1.2705,1.3483,1.3913,1.3828,1.3913,1.4004,1.4088,1.4088,1.4088,1.4088,1.4088,1.4088,1.4088,1.4088,1.4242,1.4529,1.483,1.5124,1.5411,1.5705,1.5832,1.5832,1.5832,1.5818,1.5798,1.5798,1.5772,1.5839,1.5833,1.6372,1.7138,1.7138,1.6581,1.5947,1.6862,1.655,1.5805,1.5825,1.5832,1.5832,1.5832,1.5832,1.5832,1.5832,1.5832,1.5825,1.5805,1.5778,1.5765,1.5765,1.5758,1.5667,1.5633,1.4774,1.4095,1.4089,1.4123,1.4112,1.4112,1.4062,1.4075,1.4119,1.4062,1.4088,1.4088,1.4088,1.4088,1.4088,1.4088,1.4088,1.4088,1.4088,1.4088,1.4088,1.4088,1.4088,1.4088,1.4108,1.4122,1.4122,1.4064,1.407,1.407,1.407,1.407,0.65,0.6742,0.6857,0.6826,0.6749,0.6668,0.6554,0.6473,0.6416,0.635,0.635,0.6284,0.6218,0.6152,0.6017,0.5888,0.6408,0.6885,0.7096,0.766,0.8421,0.9315,1.0019,1.0726,1.1468,1.256,1.3374,1.3704,1.4062,1.4321,1.4489,1.4328,1.4237,1.4237,1.4405,1.4496,1.4496,1.4496,1.4496,1.4496,1.4682,1.4929,1.5232,1.5368,1.5759,1.6126,1.5859,1.59,1.6089,1.5873,1.5765,1.5859,1.6501,1.6711,1.669,1.6676,1.6986,1.7319,1.7319,1.7073,1.6741,1.7138,1.6602,1.5846,1.5792,1.5792,1.5772,1.5772,1.5772,1.5772,1.5772,1.5772,1.5974,1.6515,1.6718,1.6515,1.59,1.5799,1.5765,1.5821,1.5463,1.5116,1.4947,1.4462,1.4064,1.4064,1.4514,1.4685,1.4196,1.4112,1.4119,1.4132,1.4068,1.4088,1.4088,1.4088,1.4088,1.4088,1.4088,1.4088,1.4088,1.4088,1.4088,1.4088,1.4088,1.4088,1.4088,1.4088,1.4088,1.4088,1.4088,1.4088,0.6483,0.6658,0.6765,0.6643,0.6615,0.6578,0.6448,0.642,0.642,0.642,0.642,0.642,0.642,0.6478,0.6539,0.6342,0.699,0.7572,0.7577,0.8215,0.8985,0.9759,1.0564,1.1366,1.2282,1.3209,1.4014,1.4378,1.4482,1.4566,1.465,1.4657,1.4566,1.4482,1.465,1.4734,1.4734,1.4734,1.4734,1.4741,1.5056,1.5364,1.5679,1.5812,1.6116,1.6588,1.6183,1.6082,1.6365,1.594,1.594,1.6351,1.7008,1.7319,1.7305,1.729,1.7283,1.7283,1.7283,1.7261,1.734,1.7305,1.6864,1.6216,1.6278,1.6278,1.6257,1.6257,1.6257,1.6257,1.6257,1.625,1.6459,1.7116,1.7327,1.7124,1.64,1.6055,1.5886,1.6237,1.6211,1.6155,1.6034,1.5436,1.4925,1.4536,1.5047,1.5205,1.4545,1.4242,1.4208,1.443,1.4457,1.4345,1.4153,1.4062,1.4062,1.4068,1.4068,1.4075,1.4088,1.4088,1.4082,1.4068,1.4068,1.4062,1.4062,1.4062,1.4068,1.4068,1.4082,1.4088,0.6292,0.6424,0.6424,0.6424,0.642,0.642,0.642,0.642,0.642,0.642,0.642,0.642,0.642,0.7003,0.7451,0.7246,0.7897,0.8683,0.9204,0.991,1.0585,1.1286,1.2204,1.2866,1.318,1.3885,1.4391,1.4398,1.4566,1.4734,1.4734,1.4915,1.4999,1.4734,1.4734,1.4734,1.4734,1.4734,1.4734,1.4741,1.5056,1.5364,1.5679,1.598,1.6288,1.6581,1.6365,1.6372,1.6581,1.6041,1.6358,1.7305,1.7305,1.7276,1.7326,1.7326,1.7326,1.7326,1.7326,1.7326,1.7333,1.729,1.7268,1.7239,1.729,1.7319,1.724,1.724,1.724,1.724,1.724,1.7319,1.7305,1.7305,1.7305,1.7305,1.7305,1.6459,1.6048,1.7116,1.7279,1.7264,1.7279,1.7304,1.6854,1.5616,1.5431,1.5431,1.541,1.4625,1.4432,1.5324,1.5397,1.507,1.4189,1.4072,1.4085,1.4105,1.4105,1.4126,1.4082,1.4088,1.4068,1.4105,1.4105,1.4099,1.4072,1.4099,1.4105,1.4112,1.4068,1.4088,0.6354,0.642,0.642,0.642,0.642,0.642,0.642,0.642,0.642,0.642,0.642,0.6548,0.7068,0.7326,0.7587,0.7842,0.8226,0.8683,0.921,0.958,1.0245,1.1423,1.2681,1.3478,1.3416,1.4131,1.465,1.4831,1.4915,1.4999,1.5173,1.5257,1.5173,1.4999,1.509,1.5166,1.5166,1.5166,1.5166,1.518,1.5792,1.6096,1.6212,1.6578,1.6872,1.7052,1.6655,1.6749,1.7044,1.6929,1.7037,1.7254,1.7254,1.734,1.7326,1.7326,1.7326,1.7326,1.7326,1.7326,1.7333,1.7347,1.734,1.7333,1.7347,1.7261,1.7268,1.7268,1.7268,1.7268,1.7268,1.7261,1.7254,1.7254,1.7254,1.7268,1.7297,1.7059,1.6943,1.7203,1.7304,1.7316,1.7323,1.7264,1.7146,1.6726,1.6736,1.6721,1.6743,1.6426,1.6374,1.6624,1.5958,1.5252,1.4979,1.5027,1.5027,1.4951,1.4461,1.4092,1.4105,1.4105,1.4099,1.4085,1.4657,1.5034,1.5027,1.4965,1.4699,1.4068,1.4082,1.4088,0.6359,0.6379,0.6461,0.64,0.642,0.642,0.642,0.6613,0.6811,0.6811,0.7003,0.7326,0.7782,0.8102,0.8361,0.8619,0.9005,0.9396,0.9786,1.0117,1.0805,1.2011,1.3133,1.3738,1.366,1.4377,1.4908,1.509,1.5173,1.5257,1.5431,1.5431,1.5347,1.5257,1.534,1.5431,1.5431,1.5431,1.5431,1.5438,1.6067,1.6367,1.6389,1.6863,1.7153,1.7326,1.7037,1.7037,0.0,1.7326,1.7326,1.7326,1.7326,1.7326,1.7326,1.7326,1.7326,1.7326,1.7326,1.7326,1.7326,1.7326,1.7326,1.7326,1.7326,1.7326,1.7326,1.7326,1.7326,1.7326,1.7326,1.7326,1.7326,1.7326,1.7326,1.7333,1.7276,1.7254,1.7333,1.7276,1.7254,1.7326,1.7326,1.7272,1.7346,1.7346,1.7288,1.7274,1.7304,1.7281,1.7326,1.7333,1.6572,1.6103,1.6115,1.5672,1.5423,1.5405,1.4915,1.4629,1.4552,1.4552,1.4552,1.4622,1.5111,1.5398,1.5384,1.5041,1.4601,1.4062,1.4082,1.4088,0.0,0.6366,0.6543,0.6404,0.6379,0.6384,0.6461,0.6981,0.0,0.7587,0.8102,0.8554,0.8554,0.9069,0.9518,0.9582,1.0168,1.0681,1.0807,1.132,1.2068,1.2823,1.3446,1.3817,1.3817,1.4629,1.509,1.509,1.5264,1.5431,1.5431,1.5431,1.5431,1.5431,1.5431,1.5431,1.5431,1.5431,1.5431,1.5438,1.6067,1.6367,1.6389,1.7033,1.7326,1.7326,1.7326,1.7326,1.7326,1.7326,1.7326,1.7326,1.7326,1.7326,1.7326,1.7326,1.7326,1.7326,1.7326,1.7326,1.7326,1.7318,1.7318,1.7318,1.7311,1.7318,1.7326,1.7326,1.7326,1.7326,1.7326,1.7326,1.7326,1.7326,1.7326,1.7326,1.7326,1.7326,1.7326,1.7326,1.7326,1.7326,1.7326,1.7326,1.7326,1.7326,1.7326,1.7326,1.7326,1.7326,1.7323,1.734,1.731,1.7274,1.7266,1.6144,1.5397,1.5391,1.5376,1.5384,1.5405,1.5413,1.5398,1.5376,1.5376,1.5369,1.5431,1.4615,1.4176,1.4105,1.4062,1.4082,0.6515,0.0,0.6384,0.6309,0.6318,0.6418,0.0,0.74,0.7886,0.8195,0.8484,0.8801,0.9198,0.939,0.9716,1.0238,1.0555,1.0744,1.0807,1.1591,1.2422,1.3048,1.3834,1.4308,1.4145,1.488,1.534,1.534,1.5347,1.5431,1.5431,1.5431,1.5431,1.5431,1.5431,1.5431,1.5431,1.5431,1.5431,1.5438,1.6067,1.636,1.6183,1.6934,1.7326,1.7326,1.7326,1.7326,1.7326,1.7326,1.7326,1.7326,1.7326,1.7326,1.7326,1.7326,1.7326,1.7326,1.7326,1.7326,1.7318,1.7267,1.7338,1.7331,1.7279,1.7338,1.7326,1.7326,1.7326,1.7326,1.7326,1.7326,1.7326,1.7326,1.7326,1.7326,1.7326,1.7326,1.7326,1.7326,1.7326,1.7326,1.7326,1.7326,1.7326,1.7326,1.7326,1.7326,1.7326,1.7326,1.7304,1.7331,1.7323,1.7276,1.7296,1.6097,1.539,1.5369,1.5438,1.5438,1.5362,1.5362,1.5362,1.5438,1.5438,1.5362,1.5376,1.5187,1.4727,1.4079,1.4092,1.4062,0.6934,0.6915,0.69,0.6813,0.6952,0.7156,0.7507,0.8104,0.8713,0.8919,0.9364,0.9767,1.0161,1.0288,1.0415,1.0744,1.0996,1.1213,1.1293,1.2087,1.2789,1.3288,1.3994,1.4379,1.4209,1.488,1.5431,1.5431,1.5431,1.5431,1.5431,1.5431,1.5431,1.5431,1.5431,1.5431,1.5431,1.5431,1.5431,1.5431,1.5928,1.6133,1.6168,1.6887,1.7301,1.7326,1.7326,1.7326,1.7326,1.7326,1.7326,1.7326,1.7326,1.7311,1.7282,1.7282,1.726,1.7323,1.7323,1.7323,1.7323,1.7279,1.7918,1.8674,1.8635,1.8682,1.8435,1.7591,1.7304,1.7326,1.7326,1.7326,1.7326,1.7326,1.7326,1.7326,1.7326,1.7326,1.7326,1.7326,1.7326,1.7326,1.7326,1.7326,1.7326,1.7326,1.7326,1.7326,1.7326,1.7326,1.7326,1.7326,1.7326,1.7309,1.7303,1.6706,1.5994,1.5474,1.5413,1.5431,1.5431,1.5431,1.5431,1.5431,1.5431,1.5438,1.5362,1.5376,1.5151,1.4712,1.4671,1.4726,0.7434,0.767,0.7818,0.756,0.7719,0.8015,0.8113,0.8854,0.9611,0.965,1.0334,1.0933,1.1122,1.1247,1.1247,1.1185,1.1401,1.1688,1.1992,1.256,1.304,1.3455,1.3979,1.4287,1.4187,1.4873,1.5431,1.5431,1.5431,1.5431,1.5431,1.5431,1.5431,1.5431,1.5416,1.5409,1.5409,1.5409,1.5409,1.5416,1.5723,1.5915,1.5986,1.6876,1.7301,1.7345,1.7296,1.7311,1.7311,1.7311,1.7311,1.7311,1.7311,1.7267,1.7309,1.7624,1.7795,1.7742,1.7742,1.7742,1.7734,1.7727,1.892,2.0264,2.0348,2.0256,1.9937,1.8241,1.7561,1.7311,1.7326,1.7326,1.7326,1.7311,1.7318,1.7326,1.7311,1.7318,1.7326,1.7326,1.7326,1.7326,1.7326,1.7326,1.7326,1.7326,1.7326,1.7326,1.7326,1.7326,1.7326,1.7326,1.7326,1.7316,1.7325,1.728,1.6725,1.5519,1.5408,1.5431,1.5431,1.5431,1.5431,1.5431,1.5431,1.5431,1.5431,1.5423,1.5379,1.5389,1.5935,1.6316,0.775,0.8355,0.8911,0.8033,0.7883,0.8051,0.8565,0.9297,0.9989,1.0361,1.0835,1.1303,1.1498,1.131,1.1247,1.1498,1.1404,1.1602,1.2639,1.264,1.2812,1.344,1.3625,1.3839,1.4372,1.505,1.5431,1.5431,1.5431,1.5431,1.5431,1.5431,1.5431,1.5431,1.5372,1.5426,1.5426,1.5426,1.5426,1.5426,1.5485,1.5475,1.5512,1.6788,1.7304,1.7266,1.732,1.7331,1.7331,1.7331,1.7331,1.7331,1.7331,1.7287,1.7535,1.9192,1.9853,1.9836,1.9836,1.9836,1.982,1.9829,2.002,2.0329,2.0261,2.0295,2.0246,1.992,1.8619,1.7252,1.7311,1.7326,1.7311,1.7252,1.7289,1.7311,1.7345,1.7289,1.7326,1.7326,1.7326,1.7326,1.7326,1.7326,1.7326,1.7326,1.7326,1.7326,1.7326,1.7326,1.7326,1.7326,1.7326,1.7252,1.7261,1.7316,1.6779,1.5469,1.5394,1.5431,1.5431,1.5431,1.5431,1.5431,1.5431,1.5431,1.5431,1.5374,1.5411,1.5442,1.8438,2.053,0.7974,0.8612,0.9361,0.9093,0.9145,0.9432,0.9908,1.0401,1.0855,1.1063,1.1394,1.1615,1.1809,1.167,1.163,1.2014,1.2099,1.213,1.2201,1.2668,1.317,1.3447,1.3511,1.3621,1.3895,1.4831,1.5418,1.5372,1.5372,1.5394,1.5423,1.5394,1.5372,1.5372,1.5389,1.5434,1.5434,1.6355,1.6558,1.6116,1.6133,1.5829,1.5447,1.5995,1.661,1.7319,1.8417,1.8944,1.8856,1.7766,1.7286,1.7417,1.8498,1.8886,1.9011,1.994,2.0305,2.0292,2.0292,2.0252,2.032,2.0269,2.0252,2.0343,2.03,2.0317,2.0261,2.0303,1.888,1.7265,1.7301,1.7309,1.7301,1.7265,1.8087,1.8619,1.7517,1.7279,1.7287,1.7311,1.7326,1.7318,1.7282,1.7304,1.7311,1.7274,1.7304,1.7326,1.7326,1.7345,1.7287,1.7287,1.7298,1.7316,1.7325,1.9264,1.8999,1.5587,1.544,1.5418,1.5423,1.5431,1.5387,1.5381,1.5381,1.5411,1.5394,1.5403,1.6345,1.828,2.0819,2.2395,0.8427,0.8978,0.9732,1.0051,1.0257,1.0482,1.0788,1.1122,1.1453,1.1554,1.176,1.1988,1.2182,1.2073,1.2094,1.2419,1.2518,1.2489,1.2116,1.3223,1.4053,1.4057,1.4059,1.4161,1.451,1.5423,1.5988,1.6049,1.5666,1.5411,1.5379,1.5411,1.5561,1.6011,1.6024,1.6052,1.6013,1.7293,1.7635,1.7,1.6984,1.6621,1.5989,1.6004,1.6707,1.8057,1.9611,2.0292,2.0232,1.9348,1.9036,1.9133,2.0676,2.1293,2.1291,2.1298,2.1246,2.1167,2.0534,2.0318,2.0331,2.0283,2.0292,2.0292,2.0292,2.0292,2.0292,2.0317,1.9182,1.8049,1.7995,1.8003,1.7988,1.8033,1.9141,2.0093,1.918,1.8133,1.7264,1.7335,1.7301,1.7294,1.7298,1.7702,1.7855,1.7328,1.7265,1.7309,1.7309,1.7291,1.7629,1.8601,1.868,1.8619,1.8629,2.1053,2.0838,1.6895,1.5843,1.5368,1.5365,1.5426,1.5427,1.5383,1.6219,1.6605,1.6625,1.7044,1.859,2.1259,2.2532,2.309,0.9394,0.9873,1.0419,1.047,1.0257,1.011,1.0451,1.0856,1.122,1.1462,1.2016,1.2421,1.249,1.2288,1.2258,1.2432,1.2064,1.2053,1.321,1.4652,1.5627,1.5602,1.5627,1.6175,1.7567,1.7781,1.7836,1.7836,1.6347,1.5397,1.5397,1.5397,1.6106,1.7733,1.7827,1.7797,1.7802,1.7909,1.7977,1.7899,1.7912,1.7853,1.7827,1.7813,1.8607,2.0063,2.025,2.0298,2.0482,2.2993,2.395,2.4029,2.4157,2.4196,2.4185,2.4175,2.4175,2.385,2.1176,2.0329,2.0274,2.0331,2.0292,2.0292,2.0292,2.0292,2.0266,2.03,2.0159,2.0086,2.0076,2.0127,2.0068,2.0116,2.0223,2.0953,2.3425,2.0462,1.7274,1.7289,1.7304,1.7266,1.7304,1.8862,1.9405,1.759,1.7304,1.7334,1.7334,1.7319,1.8707,2.2316,2.2662,2.271,2.2709,2.1499,2.0627,2.0216,1.7224,1.5382,1.536,1.5404,1.541,1.5395,1.8555,2.02,2.0209,2.1791,2.265,2.2928,2.3077,2.309,0.9731,1.0241,1.082,1.0573,1.0733,1.1056,1.1382,1.1534,1.1736,1.2059,1.2482,1.2637,1.2032,1.2201,1.2852,1.4305,1.3533,1.3271,1.4743,1.5413,1.5811,1.5804,1.6636,1.7362,1.7982,1.7994,1.7989,1.8031,1.7351,1.6984,1.7032,1.6993,1.7284,1.8006,1.951,2.0359,2.037,2.0341,2.032,2.0305,1.8726,1.7995,1.8074,1.9615,2.0684,2.1313,2.2434,2.2922,2.2967,2.4024,2.4543,2.4518,2.4485,2.4502,2.4472,2.4513,2.4488,2.4323,2.3271,2.1817,2.0338,2.0309,2.0305,2.0275,2.0262,2.0326,2.0292,2.0305,2.1594,2.2536,2.0713,2.1624,2.2875,2.2869,2.289,2.3222,2.4246,2.3113,2.1738,2.1805,2.1797,2.1239,1.9435,2.1221,2.2432,2.1123,2.0953,2.0907,2.0907,2.0891,2.1471,2.2964,2.3065,2.3377,2.3937,2.187,2.0564,2.0571,1.7296,1.6349,1.851,1.865,1.8594,1.8652,1.9952,2.1081,2.2181,2.2819,2.3087,2.3057,2.3075,2.3104,1.0273,1.0651,1.1023,1.0769,1.1023,1.1428,1.1917,1.2018,1.2167,1.2497,1.2911,1.2975,1.231,1.2191,1.2979,1.5418,1.4915,1.4567,1.5675,1.5805,1.5769,1.5783,1.6715,1.7529,1.7943,1.8013,1.7997,1.7976,1.8006,1.8006,1.7976,1.8009,1.8382,1.9143,2.0869,2.1771,2.1808,2.1798,2.1798,2.1798,2.0033,1.9164,1.9229,2.0977,2.179,2.188,2.3104,2.365,2.368,2.4263,2.4472,2.4441,2.3888,2.3679,2.3664,2.3649,2.4002,2.4535,2.449,2.3275,2.1484,2.0553,2.0325,2.0324,2.0298,2.0943,2.1618,2.1641,2.2998,2.4045,2.2117,2.3067,2.4517,2.4456,2.4538,2.4518,2.4527,2.4466,2.4523,2.453,2.4523,2.393,2.1929,2.3202,2.4315,2.3683,2.3526,2.3585,2.3585,2.3545,2.3545,2.3545,2.358,2.3776,2.4409,2.2825,2.1481,2.0609,1.8337,1.8117,2.0529,2.0627,2.0841,2.1366,2.1425,2.1938,2.3093,2.3107,2.3103,2.3135,2.3135,2.3135,1.1124,1.1124,1.1124,1.1124,1.093,1.0933,1.1798,1.211,1.2323,1.2721,1.3199,1.3465,1.349,1.2498,1.2528,1.5326,1.5765,1.5805,1.5805,1.5805,1.5766,1.5836,1.5765,1.6395,1.7891,1.804,1.7994,1.7994,1.8013,1.8005,1.8005,1.8005,1.9201,2.1706,2.1804,2.1809,2.1807,2.1807,2.1807,2.1807,2.1807,2.1803,2.1804,2.1804,2.1818,2.1825,2.1825,2.1779,2.1949,2.3735,2.4444,2.4309,2.2504,2.1828,2.1828,2.1838,2.295,2.4476,2.4495,2.4477,2.4042,2.1256,2.0272,2.0318,2.0337,2.2236,2.4485,2.4497,2.4538,2.4497,2.4495,2.4502,2.4497,2.4495,2.454,2.454,2.454,2.454,2.454,2.454,2.4512,2.4497,2.4485,2.4477,2.4492,2.4481,2.4512,2.4467,2.4467,2.4467,2.4467,2.4467,2.4492,2.4519,2.4503,2.4541,2.3387,2.0748,2.0601,2.0575,2.0599,2.0628,2.1364,2.3093,2.3102,2.3093,2.3093,2.3065,2.3135,2.3135,2.3135,2.3135,1.1377,1.1469,1.1538,1.1645,1.198,1.2396,1.2632,1.2431,1.2386,1.3128,1.2688,1.2462,1.3341,1.4077,1.4797,1.5644,1.5764,1.5833,1.5797,1.579,1.5764,1.578,1.58,1.6353,1.7825,1.7965,1.8705,2.0526,2.0703,2.0635,2.0635,2.0693,2.1013,2.1794,2.1778,2.1772,2.1807,2.18,2.18,2.1807,2.18,2.1821,2.1793,2.1793,2.1824,2.1799,2.1799,2.1829,2.1839,2.2371,2.2562,2.2567,2.2025,2.1764,2.1818,2.1817,2.2147,2.2639,2.2595,2.2615,2.2449,2.1632,2.1329,2.1332,2.1387,2.2822,2.4493,2.4483,2.4524,2.4482,2.4498,2.4495,2.4526,2.4464,2.454,2.454,2.454,2.454,2.454,2.454,2.4495,2.4516,2.4464,2.4516,2.4461,2.4495,2.4495,2.4506,2.4506,2.4506,2.4506,2.4506,2.4495,2.454,2.4542,2.4504,2.3629,2.1603,2.1481,2.1167,2.0656,2.1709,2.2615,2.3052,2.3117,2.3132,2.3085,2.3096,2.3135,2.3135,2.3135,2.3135,1.1628,1.1728,1.1817,1.2096,1.2672,1.3184,1.3348,1.3016,1.2846,1.3393,1.3355,1.3477,1.4244,1.5377,1.6216,1.6219,1.6009,1.5809,1.5809,1.5774,1.6109,1.6995,1.7121,1.7661,1.9123,1.8802,1.9348,2.1668,2.18,2.1772,2.1778,2.1814,2.1772,2.1797,2.1832,2.179,2.1814,2.1816,2.2136,2.2767,2.2136,2.1816,2.1814,2.179,2.178,2.1814,2.1814,2.1797,2.1804,2.1808,2.218,2.2674,2.2029,2.1776,2.1769,2.1814,2.1809,2.184,2.1802,2.1817,2.1789,2.1789,2.178,2.1789,2.1809,2.2553,2.3444,2.3431,2.3928,2.4513,2.4483,2.4482,2.4467,2.4529,2.454,2.454,2.454,2.454,2.454,2.454,2.454,2.454,2.454,2.454,2.454,2.454,2.454,2.454,2.454,2.454,2.454,2.454,2.454,2.454,2.454,2.4524,2.4054,2.2922,2.2835,2.2685,2.219,2.3102,2.3662,2.3685,2.3258,2.3086,2.3135,2.3135,2.3135,2.3135,2.3135,2.3135,1.1877,1.1877,1.2027,1.2452,1.3058,1.3615,1.3987,1.3819,1.3563,1.3497,1.474,1.5794,1.5801,1.6408,1.6869,1.6899,1.6482,1.6183,1.6274,1.6309,1.7016,1.9034,1.9274,1.9799,2.109,2.0071,1.994,2.1438,2.1835,2.2048,2.2051,2.2019,2.1955,2.1829,2.1966,2.1997,2.203,2.202,2.2765,2.4197,2.2754,2.202,2.202,2.1997,2.1987,2.203,2.1839,2.1902,2.2039,2.1988,2.2883,2.4078,2.2563,2.202,2.203,2.203,2.203,2.203,2.203,2.203,2.1964,2.1847,2.1837,2.1824,2.1937,2.2045,2.2025,2.2043,2.3161,2.4474,2.454,2.4626,2.4788,2.4754,2.4615,2.4519,2.454,2.454,2.454,2.454,2.454,2.454,2.454,2.454,2.454,2.454,2.454,2.454,2.454,2.454,2.454,2.454,2.454,2.454,2.454,2.4524,2.4514,2.4514,2.4514,2.4514,2.4514,2.4535,2.4511,2.4528,2.359,2.3066,2.3125,2.3125,2.3125,2.3125,2.3125,2.3125,1.1877,1.1877,1.2099,1.2921,1.3717,1.4313,1.435,1.4309,1.4143,1.3636,1.4744,1.5801,1.5774,1.6372,1.6908,1.689,1.7746,1.8782,1.9864,2.0047,2.0214,2.0698,2.0742,2.0863,2.1173,2.094,2.0454,1.9744,2.2188,2.3684,2.3643,2.3688,2.311,2.1829,2.3034,2.369,2.3668,2.3716,2.3846,2.4209,2.3846,2.3671,2.3671,2.3646,2.369,2.3646,2.236,2.2499,2.3702,2.3642,2.3868,2.4186,2.3824,2.3653,2.3668,2.3668,2.3668,2.3668,2.3668,2.3679,2.3497,2.22,2.1786,2.2019,2.3295,2.3641,2.3696,2.3656,2.3995,2.4314,2.444,2.558,2.6603,2.6637,2.5503,2.448,2.4519,2.454,2.454,2.454,2.454,2.454,2.454,2.454,2.454,2.454,2.454,2.454,2.454,2.454,2.454,2.454,2.454,2.454,2.454,2.4478,2.4522,2.4522,2.4522,2.4522,2.4522,2.4457,2.454,2.4492,2.3557,2.3113,2.3095,2.3095,2.3095,2.3095,2.3095,2.3095,1.1977,1.2163,1.2501,1.3369,1.4047,1.4515,1.4515,1.4514,1.4399,1.4047,1.5198,1.6312,1.63,1.6629,1.7368,1.8714,1.96,2.0369,2.1117,2.1223,2.1209,2.1209,2.1213,2.122,2.1202,2.119,2.0875,2.0135,2.1733,2.2731,2.2736,2.3687,2.3814,2.2992,2.3765,2.4235,2.4166,2.4185,2.418,2.4175,2.418,2.4219,2.4219,2.4214,2.4209,2.4169,2.3316,2.3434,2.4181,2.4203,2.4192,2.4164,2.4169,2.4192,2.4175,2.4175,2.4175,2.4175,2.4175,2.4209,2.4073,2.3202,2.2966,2.3095,2.3965,2.4221,2.4209,2.4168,2.4243,2.4215,2.4348,2.506,2.6029,2.7002,2.5843,2.4492,2.4513,2.448,2.4501,2.4523,2.4513,2.4513,2.4513,2.448,2.4457,2.4529,2.454,2.454,2.454,2.454,2.454,2.454,2.454,2.454,2.454,2.454,2.454,2.454,2.454,2.454,2.454,2.454,2.4485,2.4461,2.3983,2.377,2.3744,2.3744,2.3744,2.3744,2.3744,2.3744,1.2076,1.2415,1.3,1.3699,1.4194,1.4515,1.4515,1.4484,1.4497,1.4497,1.5787,1.691,1.688,1.7311,1.8432,2.0787,2.1212,2.1217,2.1202,2.1227,2.1221,2.1221,2.1221,2.1221,2.1221,2.1197,2.1206,2.1192,2.1216,2.123,2.1206,2.2799,2.3694,2.3703,2.3688,2.3827,2.4202,2.4174,2.4192,2.4192,2.4166,2.42,2.42,2.42,2.4185,2.4203,2.4173,2.4185,2.4192,2.4162,2.42,2.42,2.42,2.42,2.42,2.42,2.42,2.42,2.42,2.4196,2.4203,2.4203,2.4203,2.4203,2.4203,2.4208,2.42,2.42,2.4192,2.4239,2.4179,2.4169,2.4637,2.6268,2.5776,2.4861,2.4588,2.4788,2.4988,2.4966,2.4945,2.4945,2.4945,2.4714,2.4523,2.4542,2.4488,2.4498,2.4478,2.4467,2.4478,2.4498,2.4498,2.4519,2.454,2.454,2.454,2.454,2.454,2.454,2.454,2.454,2.4475,2.4526,2.4537,2.4471,2.4512,2.4512,2.4512,2.4512,2.4512,2.4512,1.2076,1.2635,1.3314,1.3772,1.4194,1.4515,1.4515,1.4483,1.4496,1.4484,1.5769,1.6919,1.6892,1.8968,2.0774,2.1124,2.1213,2.1204,2.1192,2.1169,2.1221,2.1221,2.1221,2.1221,2.1221,2.1181,2.1204,2.1227,2.1174,2.1206,2.1207,2.1463,2.1565,2.162,2.1618,2.2469,2.4169,2.4178,2.4213,2.4213,2.4207,2.42,2.42,2.42,2.42,2.4223,2.42,2.42,2.4223,2.42,2.42,2.42,2.42,2.42,2.42,2.42,2.42,2.42,2.42,2.42,2.4223,2.4223,2.4223,2.4223,2.4223,2.4212,2.42,2.42,2.4173,2.4219,2.4196,2.4215,2.4284,2.457,2.5745,2.6411,2.4828,2.5695,2.6802,2.6875,2.6875,2.6875,2.6875,2.5559,2.4461,2.4546,2.4535,2.4482,2.4546,2.4525,2.4483,2.4502,2.4513,2.448,2.4529,2.454,2.454,2.454,2.454,2.454,2.454,2.454,2.4464,2.4464,2.4464,2.4475,2.4475,2.4475,2.4475,2.4475,2.4475,2.4475,1.303,1.3351,1.383,1.4573,1.4877,1.502,1.5166,1.4847,1.451,1.4492,1.6146,1.7925,1.9057,2.0353,2.1218,2.1225,2.1222,2.1206,2.1206,2.1169,2.1221,2.1221,2.1221,2.1221,2.1221,2.1221,2.1221,2.1221,2.1221,2.1227,2.1194,2.1194,2.1198,2.1203,2.1196,2.1643,2.2486,2.2537,2.3074,2.4214,2.4224,2.4172,2.42,2.42,2.42,2.42,2.42,2.42,2.42,2.42,2.42,2.42,2.42,2.42,2.42,2.42,2.42,2.42,2.42,2.42,2.42,2.42,2.42,2.42,2.42,2.42,2.42,2.42,2.42,2.42,2.42,2.423,2.4232,2.4179,2.4878,2.5633,2.5968,2.6648,2.7175,2.7178,2.7167,2.719,2.7175,2.6518,2.5714,2.4682,2.5357,2.5994,2.6023,2.6023,2.6045,2.6005,2.5126,2.4513,2.4501,2.4488,2.454,2.454,2.454,2.454,2.454,2.454,2.454,2.454,2.454,2.454,2.454,2.454,2.454,2.454,2.454,2.454,1.3772,1.3882,1.4146,1.5129,1.541,1.5478,1.5798,1.5128,1.4659,1.5292,1.6869,1.854,2.0112,2.0404,2.0402,2.0381,2.0377,2.061,2.1162,2.1213,2.1202,2.1221,2.1169,2.1204,2.1221,2.1221,2.1221,2.1221,2.1221,2.1221,2.1221,2.1221,2.1221,2.1221,2.1217,2.1223,2.1223,2.1219,2.1935,2.3468,2.3933,2.4214,2.4234,2.4184,2.4218,2.423,2.4238,2.42,2.42,2.42,2.42,2.42,2.42,2.42,2.42,2.42,2.42,2.42,2.42,2.42,2.42,2.42,2.42,2.42,2.42,2.42,2.42,2.42,2.42,2.42,2.42,2.42,2.4185,2.4203,2.4212,2.4737,2.6759,2.7197,2.7181,2.7172,2.7231,2.7172,2.7193,2.7227,2.6712,2.5373,2.6379,2.7171,2.722,2.722,2.7232,2.7182,2.595,2.4967,2.4535,2.4459,2.4522,2.4522,2.4522,2.4532,2.4478,2.4478,2.4498,2.454,2.454,2.454,2.454,2.454,2.454,2.454,2.454,2.454,1.3772,1.3882,1.4146,1.5129,1.541,1.5526,1.614,1.5375,1.5162,1.7456,1.7991,1.8158,1.8221,1.827,1.8283,1.8272,1.8283,1.8929,2.0926,2.1223,2.1224,2.1169,2.1205,2.121,2.1198,2.1221,2.1221,2.1221,2.1221,2.1221,2.1221,2.1221,2.1221,2.1221,2.1181,2.1192,2.1192,2.1212,2.123,2.1382,2.3325,2.4214,2.4169,2.4225,2.4167,2.419,2.4207,2.42,2.42,2.42,2.42,2.42,2.42,2.42,2.42,2.42,2.42,2.42,2.42,2.42,2.42,2.42,2.42,2.42,2.42,2.42,2.42,2.42,2.42,2.42,2.42,2.42,2.42,2.4212,2.4194,2.4726,2.6748,2.7219,2.7242,2.7231,2.7231,2.7231,2.7242,2.717,2.7204,2.7056,2.717,2.7227,2.7183,2.7172,2.7218,2.7167,2.7084,2.6396,2.4682,2.4493,2.4493,2.4493,2.4493,2.4462,2.4492,2.4502,2.448,2.454,2.454,2.454,2.454,2.454,2.454,2.454,2.454,2.454,1.4744,1.484,1.5157,1.626,1.6585,1.6729,1.7298,1.7146,1.7059,1.7924,1.8079,1.8098,1.8096,1.8113,1.8115,1.8115,1.8113,1.8382,1.9091,1.9204,1.9219,1.9213,2.0402,2.1224,2.1222,2.1178,2.1171,2.1171,2.1169,2.1221,2.1221,2.1221,2.121,2.1227,2.121,2.1221,2.1221,2.122,2.1201,2.1208,2.1911,2.2262,2.2264,2.2275,2.2995,2.4174,2.4202,2.4186,2.42,2.42,2.42,2.42,2.42,2.42,2.42,2.42,2.42,2.42,2.42,2.42,2.42,2.42,2.42,2.42,2.42,2.42,2.42,2.42,2.42,2.42,2.42,2.42,2.423,2.4217,2.5207,2.6352,2.7036,2.7231,2.7231,2.7231,2.7231,2.7231,2.7231,2.7183,2.7195,2.7231,2.7183,2.7195,2.7231,2.7231,2.7172,2.7206,2.7204,2.6945,2.629,2.6201,2.6256,2.6256,2.6256,2.6195,2.6239,2.5136,2.4513,2.448,2.4488,2.454,2.454,2.454,2.454,2.454,2.454,2.454,1.5575,1.569,1.5911,1.6922,1.7202,1.7346,1.7934,1.8109,1.8118,1.8111,1.8109,1.8084,1.8084,1.8084,1.8084,1.8084,1.8102,1.8126,1.8126,1.8102,1.8107,1.8101,1.9332,2.0135,2.0146,2.0165,2.0445,2.1126,2.1228,2.1195,2.1214,2.1225,2.1283,2.1549,2.1325,2.1187,2.1187,2.1187,2.1174,2.1221,2.1209,2.1181,2.1196,2.1186,2.2058,2.351,2.3315,2.3583,2.4184,2.4227,2.4177,2.4166,2.4189,2.4177,2.4166,2.4189,2.4177,2.4166,2.4189,2.4177,2.4166,2.4189,2.42,2.42,2.42,2.42,2.42,2.42,2.42,2.42,2.42,2.42,2.4214,2.4215,2.5727,2.7215,2.7163,2.7231,2.7231,2.7231,2.7231,2.7231,2.7231,2.7231,2.7231,2.7231,2.7231,2.7231,2.7231,2.7231,2.7231,2.7231,2.7229,2.7193,2.7193,2.7201,2.7186,2.7186,2.7186,2.7198,2.716,2.6034,2.5083,2.4492,2.4501,2.4488,2.454,2.454,2.454,2.4464,2.4481,2.4497,0.0,0.0,0.0,1.7069,1.7235,1.7357,1.7952,1.8073,1.8073,1.8084,1.8084,1.8084,1.8084,1.8084,1.8084,1.8084,1.8084,1.8084,1.8084,1.8084,1.8089,1.8115,1.8103,1.8123,1.8104,1.8078,1.8955,2.0949,2.1139,2.1141,2.1089,2.1197,2.1519,2.2178,2.1588,2.1232,2.1204,2.1232,2.1232,2.1204,2.1232,2.1221,2.1232,2.1225,2.1617,2.2162,2.153,2.2343,2.4132,2.4184,2.4215,2.4181,2.425,2.4238,2.4181,2.4177,2.4227,2.4181,2.425,2.4238,2.4181,2.4177,2.4189,2.4189,2.42,2.42,2.42,2.42,2.42,2.42,2.42,2.42,2.4226,2.4204,2.5727,2.7215,2.7163,2.7219,2.7219,2.7231,2.7231,2.7231,2.7231,2.7231,2.7231,2.7231,2.7231,2.7231,2.7231,2.7231,2.7231,2.7231,2.7231,2.7231,2.7231,2.7231,2.7231,2.7231,2.7231,2.7206,2.7167,2.7167,2.6368,2.4587,2.4566,2.447,2.454,2.4464,2.4464,2.4475,2.4563,2.4614,1.681,0.0,0.0,0.0,0.0,0.0,1.8002,1.8078,1.8107,1.8093,1.8104,1.8081,1.8073,1.8104,1.8093,1.8073,1.8084,1.8084,1.8084,1.8084,1.8118,1.81,1.8111,1.8079,1.8124,1.8092,1.8315,1.892,1.8939,1.8932,1.894,2.083,2.2006,2.219,2.2032,2.1922,2.1918,2.1428,2.1428,2.1918,2.1906,2.1906,2.1906,2.1954,2.2036,2.2218,2.1981,2.2212,2.2822,2.3828,2.4178,2.4267,2.4765,2.4681,2.4169,2.4192,2.4192,2.4276,2.4847,2.4681,2.4184,2.4181,2.4204,2.4204,2.4177,2.42,2.4189,2.4215,2.4238,2.42,2.42,2.4226,2.419,2.4182,2.5741,2.7167,2.7221,2.7174,2.7232,2.7219,2.7231,2.7231,2.7231,2.7231,2.7231,2.7231,2.7231,2.7231,2.7231,2.7231,2.7231,2.7231,2.7231,2.7231,2.7231,2.7231,2.7231,2.7231,2.7231,2.7161,2.7195,2.7204,2.6967,2.6462,2.5166,2.4482,2.4485,2.4538,2.4466,2.4563,2.5873,2.6557,1.7246,1.7299,1.7241,1.7082,0.0,0.0,1.7392,1.7788,1.8092,1.8119,1.8112,1.8082,1.8104,1.8325,1.8457,1.8336,1.8193,1.8116,1.8084,1.8084,1.8073,1.8104,1.8104,1.8101,1.81,1.8313,1.8351,1.8132,1.8087,1.8238,1.8442,2.0842,2.2212,2.2212,2.2212,2.2223,2.2226,2.181,2.1808,2.2223,2.2213,2.2201,2.2214,2.2213,2.2213,2.2226,2.2171,2.2178,2.2332,2.3983,2.4635,2.4696,2.5111,2.5027,2.4587,2.4302,2.4184,2.4327,2.5075,2.5027,2.4624,2.4634,2.4443,2.4207,2.4181,2.4192,2.4181,2.4218,2.423,2.4215,2.4208,2.4192,2.4408,2.5268,2.6611,2.7717,2.7711,2.7714,2.7613,2.7232,2.7196,2.7231,2.7231,2.7231,2.7231,2.7231,2.7231,2.7231,2.7231,2.7231,2.7185,2.7163,2.7174,2.7185,2.7163,2.7174,2.7231,2.7231,2.7231,2.7231,2.7231,2.7218,2.7204,2.7167,2.6196,2.6062,2.6835,2.5232,2.4866,2.5678,2.6774,2.7299,1.7519,1.7381,1.7243,1.6692,1.6543,0.0,1.6543,1.7173,1.7793,1.7831,1.7972,1.8084,1.8078,1.8546,1.8844,1.8623,1.8367,1.8201,1.8116,1.8139,1.8259,1.853,1.8352,1.8189,1.8211,1.8919,1.9138,1.8619,1.8568,1.8919,1.9728,2.1564,2.2472,2.2235,2.2172,2.2224,2.2205,2.2228,2.2367,2.2625,2.2623,2.2602,2.2614,2.2618,2.2471,2.223,2.2508,2.2579,2.2761,2.4884,2.5582,2.53,2.5313,2.5301,2.5217,2.4554,2.4307,2.4437,2.5076,2.5325,2.5324,2.5266,2.4849,2.4352,2.4327,2.4339,2.4327,2.4292,2.4341,2.4339,2.4338,2.451,2.524,2.7393,2.8498,2.8936,2.857,2.8529,2.8367,2.7959,2.7499,2.7174,2.7208,2.7219,2.7231,2.7231,2.7208,2.7185,2.7185,2.7162,2.7221,2.723,2.7418,2.7487,2.723,2.7198,2.7185,2.7185,2.7219,2.7219,2.7185,2.7185,2.7161,2.7204,2.7762,2.8847,3.0661,2.6922,2.5893,2.7317,2.7281,2.7306,1.7571,1.7381,1.7163,1.6267,1.6026,0.0,1.6038,1.5836,1.583,1.6378,1.7368,1.8083,1.8072,1.82,1.8367,1.855,1.8736,1.8666,1.8186,1.8333,1.9239,2.1171,1.9865,1.8803,1.8818,2.0488,2.1504,2.1409,2.1417,2.2339,2.4463,2.4943,2.4269,2.2235,2.2201,2.2184,2.2198,2.2192,2.3225,2.5181,2.5172,2.5204,2.5204,2.5199,2.4112,2.2314,2.4334,2.5203,2.5389,2.7754,2.7389,2.5271,2.5296,2.5321,2.5277,2.5173,2.508,2.5117,2.5241,2.5281,2.5302,2.5322,2.5169,2.5059,2.5088,2.5111,2.5064,2.5085,2.5093,2.5057,2.5107,2.6394,2.8445,3.1362,3.2212,3.1619,2.9051,2.851,2.9252,3.1601,2.9481,2.7184,2.7233,2.7174,2.7231,2.7231,2.7221,2.7163,2.7163,2.7228,2.7234,2.7187,2.9022,2.9419,2.7404,2.7184,2.7163,2.7163,2.7197,2.7221,2.7174,2.7163,2.7198,2.7198,3.1045,3.3221,3.3538,3.0543,2.8464,2.7323,2.7285,2.7315,1.726,1.7002,1.6761,1.5751,1.5498,0.0,0.0,1.5301,1.5218,1.5523,1.6139,1.6811,1.7491,1.7682,1.7912,1.8445,1.8881,1.9177,1.9105,1.9397,2.0055,2.1238,2.0901,2.0628,2.0591,2.1587,2.2196,2.2183,2.2204,2.3289,2.5756,2.5875,2.4776,2.2272,2.2202,2.2202,2.2179,2.3417,2.4666,2.5881,2.5881,2.5881,2.5881,2.5919,2.5236,2.4123,2.5374,2.59,2.6069,2.8573,2.8775,2.7404,2.7459,2.7471,2.743,2.743,2.743,2.7456,2.7424,2.6477,2.5569,2.699,2.6445,2.5271,2.533,2.5322,2.5603,2.7071,2.7468,2.7713,2.8952,3.0095,3.1267,3.2887,3.3317,3.2853,3.1222,3.0882,3.1408,3.303,3.1619,2.9592,2.7577,2.7182,2.716,2.7162,2.7217,2.7628,2.8901,2.9089,2.9123,2.9077,3.0262,3.0466,2.9192,2.9131,2.8518,2.7249,2.7184,2.7195,2.7226,2.8455,2.967,3.0741,3.3149,3.4354,3.4379,3.2947,3.0578,2.7334,2.8244,2.8719,1.7243,1.682,1.6462,1.5552,1.5337,1.5372,0.0,0.0,0.0,1.5124,1.5166,1.5586,1.6689,1.7065,1.7474,1.807,1.8766,1.9297,1.9741,2.0256,2.0669,2.0888,2.1552,2.2051,2.2187,2.2221,2.2304,2.2561,2.2765,2.3807,2.5764,2.592,2.4777,2.2278,2.2205,2.2218,2.2224,2.4191,2.5458,2.5918,2.5918,2.5892,2.5907,2.5925,2.5897,2.5907,2.5883,2.5905,2.6099,2.8596,2.9614,2.9596,2.96,2.9611,2.9611,2.9611,2.9611,2.9611,2.9613,2.8066,2.6477,2.8852,2.8053,2.6146,2.6146,2.6108,2.6593,2.8918,2.9578,3.0147,3.2681,3.3269,3.3325,3.3306,3.3304,3.3304,3.3304,3.3304,3.3315,3.3326,3.3276,3.2239,2.8973,2.8163,2.7908,2.7963,2.7939,2.866,3.0739,3.0984,3.0971,3.1033,3.1035,3.101,3.1021,3.0997,3.0133,2.8071,2.7903,2.7903,2.7945,3.0311,3.2542,3.4367,3.4376,3.4379,3.4425,3.4384,3.2414,2.874,3.0237,3.0974,1.8338,1.7686,1.6868,1.6159,1.6188,1.6348,1.5911,0.0,1.5693,1.5211,0.0,1.5864,1.599,0.0,0.0,1.7433,1.7981,1.8406,1.8578,1.9733,2.0954,2.1923,2.1559,2.1492,2.2133,2.218,2.2673,2.3778,2.4862,2.559,2.5879,2.5923,2.4769,2.2297,2.2207,2.2193,2.2207,2.2462,2.3741,2.5926,2.5926,2.5909,2.5893,2.5881,2.5921,2.5893,2.5881,2.5882,2.6099,2.8596,2.9614,2.9617,2.9624,2.9589,2.9589,2.9589,2.9589,2.9631,2.9578,2.9384,2.9149,2.949,2.9348,2.9093,2.9093,2.9075,2.9196,2.949,2.9635,3.0156,3.2673,3.3277,3.3326,3.3297,3.3311,3.3311,3.3311,3.3311,3.3325,3.3297,3.3269,3.3137,3.267,3.1468,3.0585,3.0598,3.0556,3.0677,3.0957,3.1008,3.1003,3.0974,3.1014,3.1018,3.1026,3.097,3.092,3.056,3.0584,3.061,3.056,3.2804,3.418,3.4389,3.4419,3.441,3.4366,3.4379,3.4126,3.3558,3.3822,3.3909,1.9486,1.9042,1.8232,1.6751,1.6524,1.6701,1.7111,1.6899,1.6463,1.6081,0.0,0.0,0.0,0.0,0.0,0.0,1.7464,1.7933,1.8226,1.9124,1.9987,2.0498,2.0983,2.1601,2.2436,2.2286,2.2614,2.364,2.5041,2.5885,2.5928,2.4526,2.3273,2.2228,2.2197,2.2194,2.2178,2.2214,2.2734,2.3778,2.5185,2.5926,2.5905,2.5903,2.5879,2.5892,2.5879,2.5897,2.6099,2.8596,2.9614,2.9602,2.9602,2.9602,2.9602,2.9602,2.9602,2.9631,2.9631,2.9589,2.9596,2.9609,2.9628,2.9628,2.9628,2.9595,2.961,2.961,2.9624,3.0154,3.2625,3.3289,3.3326,3.3326,3.3326,3.3326,3.3326,3.3326,3.3326,3.3326,3.3326,3.3283,3.3273,3.2727,3.2353,3.2314,3.232,3.2312,3.2312,3.2304,3.2304,3.232,3.1529,3.0987,3.0973,3.1016,3.1005,3.1005,3.0971,3.1009,3.1008,3.3172,3.4377,3.4367,3.4415,3.4397,3.4397,3.4397,3.4444,3.4425,3.4405,3.4425,2.052,2.0569,2.008,1.8786,1.8038,1.7721,1.8199,1.8043,1.7671,1.7289,1.733,0.0,0.0,0.0,1.6596,1.7088,0.0,1.7671,1.8034,1.8655,1.9251,1.9698,2.0703,2.1635,2.2267,2.2352,2.2589,2.3139,2.444,2.5278,2.5392,2.3378,2.2208,2.2173,2.2203,2.2184,2.2184,2.2205,2.2214,2.2214,2.403,2.5228,2.5888,2.6051,2.6056,2.5875,2.5892,2.5883,2.6072,2.8567,2.9585,2.9602,2.9574,2.9637,2.9637,2.9602,2.9588,2.9574,2.9602,2.9602,2.9602,2.9602,2.9602,2.9602,2.9602,2.9602,2.9602,2.9602,2.9605,3.0154,3.2625,3.3289,3.3326,3.3326,3.3326,3.3326,3.3326,3.3326,3.3326,3.3326,3.3326,3.3326,3.3326,3.3283,3.3266,3.3276,3.329,3.329,3.329,3.329,3.3287,3.3307,3.1923,3.1003,3.1031,3.0983,3.096,3.0966,3.0971,3.1252,3.1909,3.3511,3.4413,3.4397,3.4397,3.4397,3.4397,3.4397,3.4397,3.4397,3.4397,3.4397,2.1571,2.2108,2.2293,2.3102,2.165,1.9892,1.9044,1.9188,1.9412,1.8899,1.9202,1.9503,1.9478,1.8573,1.7994,1.8462,1.7947,0.0,0.0,1.8376,1.9304,2.0441,2.107,2.1423,2.145,2.2199,2.2691,2.2732,2.3206,2.3666,2.4118,2.2916,2.2207,2.2212,2.2184,2.2184,2.2184,2.2184,2.2197,2.22,2.2292,2.3566,2.5902,2.65,2.648,2.5912,2.5875,2.5925,2.612,2.8584,2.9588,2.9602,2.9628,2.9586,2.96,2.9574,2.9608,2.96,2.9574,2.9602,2.9602,2.9602,2.9602,2.9602,2.9602,2.9602,2.9602,2.9602,2.9605,3.0154,3.2625,3.3289,3.3326,3.3326,3.3326,3.3326,3.3326,3.3326,3.3326,3.3326,3.3326,3.3326,3.3326,3.3326,3.3326,3.3269,3.3269,3.3269,3.3269,3.3269,3.3325,3.3294,3.1905,3.0962,3.0969,3.0995,3.0996,3.0971,3.0981,3.196,3.4243,3.4336,3.4413,3.4397,3.4397,3.4397,3.4397,3.4397,3.4397,3.4397,3.4397,3.4397,2.3995,2.4653,2.4708,2.4983,2.3417,2.1815,2.2055,2.1987,2.1645,2.0563,2.0477,2.0365,1.9741,1.9255,1.8945,1.8697,1.8449,1.8246,0.0,1.8922,1.9625,1.9998,2.0136,2.0691,2.1925,2.2075,2.2706,2.4096,2.3224,2.2887,2.3595,2.2704,2.2189,2.2184,2.2184,2.2184,2.2184,2.2189,2.2217,2.2175,2.2185,2.373,2.6518,2.6698,2.6673,2.6515,2.6517,2.6246,2.6082,2.8596,2.9863,3.0192,2.9737,2.9577,2.9591,2.96,2.9586,2.9591,2.9614,2.9566,2.958,2.9588,2.9602,2.9602,2.9602,2.9623,2.9623,2.9575,2.9573,3.0179,3.2667,3.3293,3.3326,3.3326,3.3326,3.3326,3.3326,3.3326,3.3326,3.3326,3.3326,3.3326,3.3326,3.3326,3.3326,3.3326,3.3326,3.3326,3.3326,3.3326,3.3325,3.3329,3.2846,3.2521,3.2519,3.1572,3.1654,3.3119,3.3251,3.3631,3.4349,3.4383,3.4376,3.4397,3.4397,3.4397,3.4397,3.4397,3.4397,3.4397,3.4397,3.4397,2.4171,2.4565,2.4555,2.4477,2.3421,2.2539,2.314,2.3221,2.2984,2.2344,2.2388,2.2283,2.166,2.1078,2.059,2.0207,1.956,1.8989,0.0,1.911,1.9486,1.9486,1.9839,2.065,2.2123,2.2418,2.3053,2.4455,2.3533,2.2901,2.2979,2.2493,2.2184,2.2184,2.2203,2.2189,2.2189,2.2225,2.2271,2.2463,2.2429,2.3992,2.6773,2.6782,2.6804,2.6814,2.6811,2.7074,2.7697,2.9304,3.023,3.0539,3.0144,2.9983,2.9936,2.996,2.996,2.9979,2.9993,2.9813,2.9619,2.9628,2.9594,2.9637,2.9582,2.9582,2.9652,2.9909,3.0452,3.1268,3.2865,3.3322,3.3269,3.3312,3.3326,3.3326,3.3326,3.3326,3.3326,3.3326,3.3326,3.3326,3.3326,3.3326,3.3326,3.3326,3.3269,3.3268,3.3268,3.328,3.3318,3.3331,3.4126,3.4618,3.4644,3.3178,3.2804,3.4324,3.4433,3.4415,3.4415,3.4419,3.4397,3.4397,3.4397,3.4397,3.4397,3.4397,3.4397,3.4397,3.4397,3.4397]}]]